Wetterdaten: Dienstag, 02.07.2019
Datum Zeit Temp. A. Feuchte A. Luftdruck Regen Wind Richtung Richtung Sonnenschein ET UV Solar Taupunkt Windchill Windböen
02.07.2019 00:00 16,6 °C 88 % 1014,1 hPa 0,0 mm 7,1 km/h (2 Bft) W-NW 292 ° 0 min 0,000 mm 0,0 UV-I 0 W/m² 14,6 °C 16,6 °C 11,3 km/h (2 Bft)
02.07.2019 00:01 16,6 °C 87 % 1014,1 hPa 0,0 mm 4,0 km/h (1 Bft) SW 233 ° 0 min 0,000 mm 0,0 UV-I 0 W/m² 14,4 °C 16,6 °C 9,7 km/h (2 Bft)
02.07.2019 00:02 16,8 °C 87 % 1014,1 hPa 0,0 mm 4,9 km/h (1 Bft) S-SO 149 ° 0 min 0,000 mm 0,0 UV-I 0 W/m² 14,6 °C 16,8 °C 9,7 km/h (2 Bft)
02.07.2019 00:03 16,8 °C 87 % 1014,1 hPa 0,0 mm 2,5 km/h (1 Bft) W-SW 240 ° 0 min 0,000 mm 0,0 UV-I 0 W/m² 14,6 °C 16,8 °C 4,8 km/h (1 Bft)
02.07.2019 00:04 16,8 °C 86 % 1014,2 hPa 0,0 mm 3,7 km/h (1 Bft) W-SW 255 ° 0 min 0,000 mm 0,0 UV-I 0 W/m² 14,4 °C 16,8 °C 9,7 km/h (2 Bft)
02.07.2019 00:05 16,9 °C 86 % 1014,2 hPa 0,0 mm 0,9 km/h (0 Bft) W 260 ° 0 min 0,000 mm 0,0 UV-I 0 W/m² 14,5 °C 16,9 °C 3,2 km/h (1 Bft)
02.07.2019 00:06 16,9 °C 87 % 1014,2 hPa 0,0 mm 0,3 km/h (0 Bft) S-SO 160 ° 0 min 0,000 mm 0,0 UV-I 0 W/m² 14,7 °C 16,9 °C 3,2 km/h (1 Bft)
02.07.2019 00:07 16,8 °C 87 % 1014,2 hPa 0,0 mm 2,9 km/h (1 Bft) W-NW 286 ° 0 min 0,000 mm 0,0 UV-I 0 W/m² 14,6 °C 16,8 °C 8,0 km/h (2 Bft)
02.07.2019 00:08 16,8 °C 87 % 1014,1 hPa 0,0 mm 2,4 km/h (1 Bft) W-NW 286 ° 0 min 0,000 mm 0,0 UV-I 0 W/m² 14,6 °C 16,8 °C 6,4 km/h (2 Bft)
02.07.2019 00:09 16,8 °C 85 % 1014,2 hPa 0,0 mm 4,6 km/h (1 Bft) S 186 ° 0 min 0,000 mm 0,0 UV-I 0 W/m² 14,3 °C 16,8 °C 9,7 km/h (2 Bft)
02.07.2019 00:10 17,0 °C 83 % 1014,2 hPa 0,0 mm 4,6 km/h (1 Bft) SW 223 ° 0 min 0,000 mm 0,0 UV-I 0 W/m² 14,1 °C 17,0 °C 12,9 km/h (3 Bft)
02.07.2019 00:11 17,2 °C 82 % 1014,1 hPa 0,0 mm 3,6 km/h (1 Bft) SW 225 ° 0 min 0,000 mm 0,0 UV-I 0 W/m² 14,1 °C 17,2 °C 11,3 km/h (2 Bft)
02.07.2019 00:12 17,3 °C 82 % 1014,1 hPa 0,0 mm 3,7 km/h (1 Bft) W-SW 255 ° 0 min 0,000 mm 0,0 UV-I 0 W/m² 14,2 °C 17,3 °C 6,4 km/h (2 Bft)
02.07.2019 00:13 17,4 °C 84 % 1014,1 hPa 0,0 mm 1,4 km/h (1 Bft) W-SW 252 ° 0 min 0,000 mm 0,0 UV-I 0 W/m² 14,7 °C 17,4 °C 4,8 km/h (1 Bft)
02.07.2019 00:14 17,3 °C 83 % 1014,1 hPa 0,0 mm 2,9 km/h (1 Bft) S 182 ° 0 min 0,000 mm 0,0 UV-I 0 W/m² 14,4 °C 17,3 °C 8,0 km/h (2 Bft)
02.07.2019 00:15 17,3 °C 83 % 1014,1 hPa 0,0 mm 0,3 km/h (0 Bft) S 182 ° 0 min 0,000 mm 0,0 UV-I 0 W/m² 14,4 °C 17,3 °C 1,6 km/h (1 Bft)
02.07.2019 00:16 17,3 °C 84 % 1014,1 hPa 0,0 mm 0,0 km/h (0 Bft) S 190 ° 0 min 0,000 mm 0,0 UV-I 0 W/m² 14,6 °C 17,3 °C 0,0 km/h (0 Bft)
02.07.2019 00:17 17,2 °C 85 % 1014,1 hPa 0,0 mm 0,0 km/h (0 Bft) S 190 ° 0 min 0,000 mm 0,0 UV-I 0 W/m² 14,7 °C 17,2 °C 0,0 km/h (0 Bft)
02.07.2019 00:18 17,1 °C 86 % 1014,1 hPa 0,0 mm 0,0 km/h (0 Bft) S 190 ° 0 min 0,000 mm 0,0 UV-I 0 W/m² 14,7 °C 17,1 °C 0,0 km/h (0 Bft)
02.07.2019 00:19 16,8 °C 86 % 1014,0 hPa 0,0 mm 0,0 km/h (0 Bft) S 190 ° 0 min 0,000 mm 0,0 UV-I 0 W/m² 14,4 °C 16,8 °C 0,0 km/h (0 Bft)
02.07.2019 00:20 16,7 °C 86 % 1014,0 hPa 0,0 mm 0,1 km/h (0 Bft) S-SW 203 ° 0 min 0,000 mm 0,0 UV-I 0 W/m² 14,3 °C 16,7 °C 1,6 km/h (1 Bft)
02.07.2019 00:21 16,6 °C 87 % 1014,0 hPa 0,0 mm 0,5 km/h (0 Bft) S-SW 201 ° 0 min 0,000 mm 0,0 UV-I 0 W/m² 14,4 °C 16,6 °C 3,2 km/h (1 Bft)
02.07.2019 00:22 16,7 °C 86 % 1014,0 hPa 0,0 mm 0,0 km/h (0 Bft) S-SW 201 ° 0 min 0,000 mm 0,0 UV-I 0 W/m² 14,3 °C 16,7 °C 0,0 km/h (0 Bft)
02.07.2019 00:23 16,7 °C 86 % 1014,1 hPa 0,0 mm 4,0 km/h (1 Bft) W 278 ° 0 min 0,000 mm 0,0 UV-I 0 W/m² 14,3 °C 16,7 °C 9,7 km/h (2 Bft)
02.07.2019 00:24 16,7 °C 86 % 1014,1 hPa 0,0 mm 1,5 km/h (1 Bft) S 175 ° 0 min 0,000 mm 0,0 UV-I 0 W/m² 14,3 °C 16,7 °C 9,7 km/h (2 Bft)
02.07.2019 00:25 16,7 °C 87 % 1014,1 hPa 0,0 mm 0,7 km/h (0 Bft) S 180 ° 0 min 0,000 mm 0,0 UV-I 0 W/m² 14,5 °C 16,7 °C 3,2 km/h (1 Bft)
02.07.2019 00:26 16,7 °C 87 % 1014,1 hPa 0,0 mm 1,1 km/h (1 Bft) S 180 ° 0 min 0,000 mm 0,0 UV-I 0 W/m² 14,5 °C 16,7 °C 3,2 km/h (1 Bft)
02.07.2019 00:27 16,6 °C 87 % 1014,1 hPa 0,0 mm 2,0 km/h (1 Bft) S 180 ° 0 min 0,000 mm 0,0 UV-I 0 W/m² 14,4 °C 16,6 °C 3,2 km/h (1 Bft)
02.07.2019 00:28 16,6 °C 87 % 1014,1 hPa 0,0 mm 0,1 km/h (0 Bft) S 180 ° 0 min 0,000 mm 0,0 UV-I 0 W/m² 14,4 °C 16,6 °C 1,6 km/h (1 Bft)
02.07.2019 00:29 16,6 °C 87 % 1014,1 hPa 0,0 mm 3,1 km/h (1 Bft) S-SO 148 ° 0 min 0,000 mm 0,0 UV-I 0 W/m² 14,4 °C 16,6 °C 6,4 km/h (2 Bft)
02.07.2019 00:30 16,6 °C 87 % 1014,1 hPa 0,0 mm 2,0 km/h (1 Bft) N-NO 25 ° 0 min 0,000 mm 0,0 UV-I 0 W/m² 14,4 °C 16,6 °C 4,8 km/h (1 Bft)
02.07.2019 00:31 16,6 °C 87 % 1014,1 hPa 0,0 mm 0,2 km/h (0 Bft) N-NO 25 ° 0 min 0,000 mm 0,0 UV-I 0 W/m² 14,4 °C 16,6 °C 1,6 km/h (1 Bft)
02.07.2019 00:32 16,5 °C 88 % 1014,1 hPa 0,0 mm 2,6 km/h (1 Bft) N-NW 339 ° 0 min 0,000 mm 0,0 UV-I 0 W/m² 14,5 °C 16,5 °C 8,0 km/h (2 Bft)
02.07.2019 00:33 16,4 °C 87 % 1014,1 hPa 0,0 mm 1,7 km/h (1 Bft) S-SO 165 ° 0 min 0,000 mm 0,0 UV-I 0 W/m² 14,2 °C 16,4 °C 6,4 km/h (2 Bft)
02.07.2019 00:34 16,5 °C 87 % 1014,1 hPa 0,0 mm 1,5 km/h (1 Bft) NO 38 ° 0 min 0,000 mm 0,0 UV-I 0 W/m² 14,3 °C 16,5 °C 3,2 km/h (1 Bft)
02.07.2019 00:35 16,5 °C 87 % 1014,1 hPa 0,0 mm 0,1 km/h (0 Bft) NO 38 ° 0 min 0,000 mm 0,0 UV-I 0 W/m² 14,3 °C 16,5 °C 1,6 km/h (1 Bft)
02.07.2019 00:36 16,6 °C 87 % 1014,1 hPa 0,0 mm 0,3 km/h (0 Bft) NW 324 ° 0 min 0,000 mm 0,0 UV-I 0 W/m² 14,4 °C 16,6 °C 1,6 km/h (1 Bft)
02.07.2019 00:37 16,6 °C 86 % 1014,2 hPa 0,0 mm 4,1 km/h (1 Bft) W 267 ° 0 min 0,000 mm 0,0 UV-I 0 W/m² 14,2 °C 16,6 °C 6,4 km/h (2 Bft)
02.07.2019 00:38 16,7 °C 86 % 1014,1 hPa 0,0 mm 0,4 km/h (0 Bft) W 269 ° 0 min 0,000 mm 0,0 UV-I 0 W/m² 14,3 °C 16,7 °C 3,2 km/h (1 Bft)
02.07.2019 00:39 16,7 °C 85 % 1014,0 hPa 0,0 mm 0,5 km/h (0 Bft) S 180 ° 0 min 0,000 mm 0,0 UV-I 0 W/m² 14,2 °C 16,7 °C 3,2 km/h (1 Bft)
02.07.2019 00:40 16,8 °C 86 % 1014,1 hPa 0,0 mm 0,2 km/h (0 Bft) S 180 ° 0 min 0,000 mm 0,0 UV-I 0 W/m² 14,4 °C 16,8 °C 1,6 km/h (1 Bft)
02.07.2019 00:41 16,8 °C 86 % 1014,0 hPa 0,0 mm 0,9 km/h (0 Bft) S-SO 168 ° 0 min 0,000 mm 0,0 UV-I 0 W/m² 14,4 °C 16,8 °C 3,2 km/h (1 Bft)
02.07.2019 00:42 16,8 °C 86 % 1014,0 hPa 0,0 mm 1,4 km/h (1 Bft) O-NO 61 ° 0 min 0,000 mm 0,0 UV-I 0 W/m² 14,4 °C 16,8 °C 3,2 km/h (1 Bft)
02.07.2019 00:43 16,8 °C 87 % 1014,0 hPa 0,0 mm 2,3 km/h (1 Bft) N-NW 335 ° 0 min 0,000 mm 0,0 UV-I 0 W/m² 14,6 °C 16,8 °C 8,0 km/h (2 Bft)
02.07.2019 00:44 16,7 °C 86 % 1013,9 hPa 0,0 mm 2,4 km/h (1 Bft) N-NW 329 ° 0 min 0,000 mm 0,0 UV-I 0 W/m² 14,3 °C 16,7 °C 4,8 km/h (1 Bft)
02.07.2019 00:45 16,7 °C 86 % 1013,7 hPa 0,0 mm 2,5 km/h (1 Bft) S 170 ° 0 min 0,000 mm 0,0 UV-I 0 W/m² 14,3 °C 16,7 °C 8,0 km/h (2 Bft)
02.07.2019 00:46 16,7 °C 86 % 1013,7 hPa 0,0 mm 1,9 km/h (1 Bft) S 169 ° 0 min 0,000 mm 0,0 UV-I 0 W/m² 14,3 °C 16,7 °C 8,0 km/h (2 Bft)
02.07.2019 00:47 16,8 °C 86 % 1013,7 hPa 0,0 mm 1,4 km/h (1 Bft) NO 54 ° 0 min 0,000 mm 0,0 UV-I 0 W/m² 14,4 °C 16,8 °C 4,8 km/h (1 Bft)
02.07.2019 00:48 16,8 °C 85 % 1013,7 hPa 0,0 mm 5,0 km/h (1 Bft) NW 319 ° 0 min 0,000 mm 0,0 UV-I 0 W/m² 14,3 °C 16,8 °C 6,4 km/h (2 Bft)
02.07.2019 00:49 16,9 °C 85 % 1013,7 hPa 0,0 mm 3,7 km/h (1 Bft) W 274 ° 0 min 0,000 mm 0,0 UV-I 0 W/m² 14,4 °C 16,9 °C 4,8 km/h (1 Bft)
02.07.2019 00:50 17,1 °C 84 % 1013,7 hPa 0,0 mm 3,1 km/h (1 Bft) SW 223 ° 0 min 0,000 mm 0,0 UV-I 0 W/m² 14,4 °C 17,1 °C 4,8 km/h (1 Bft)
02.07.2019 00:51 17,2 °C 84 % 1013,8 hPa 0,0 mm 3,0 km/h (1 Bft) W-SW 249 ° 0 min 0,000 mm 0,0 UV-I 0 W/m² 14,5 °C 17,2 °C 4,8 km/h (1 Bft)
02.07.2019 00:52 17,2 °C 83 % 1013,9 hPa 0,0 mm 3,0 km/h (1 Bft) W-SW 241 ° 0 min 0,000 mm 0,0 UV-I 0 W/m² 14,3 °C 17,2 °C 6,4 km/h (2 Bft)
02.07.2019 00:53 17,3 °C 83 % 1014,0 hPa 0,0 mm 3,9 km/h (1 Bft) W-SW 253 ° 0 min 0,000 mm 0,0 UV-I 0 W/m² 14,4 °C 17,3 °C 6,4 km/h (2 Bft)
02.07.2019 00:54 17,4 °C 82 % 1014,3 hPa 0,0 mm 6,8 km/h (2 Bft) W-NW 288 ° 0 min 0,000 mm 0,0 UV-I 0 W/m² 14,3 °C 17,4 °C 11,3 km/h (2 Bft)
02.07.2019 00:55 17,6 °C 81 % 1014,4 hPa 0,0 mm 9,1 km/h (2 Bft) W 267 ° 0 min 0,000 mm 0,0 UV-I 0 W/m² 14,3 °C 17,6 °C 11,3 km/h (2 Bft)
02.07.2019 00:56 17,7 °C 80 % 1014,5 hPa 0,0 mm 8,0 km/h (2 Bft) W 276 ° 0 min 0,000 mm 0,0 UV-I 0 W/m² 14,2 °C 17,7 °C 12,9 km/h (3 Bft)
02.07.2019 00:57 17,8 °C 79 % 1014,4 hPa 0,0 mm 5,7 km/h (1 Bft) W 269 ° 0 min 0,000 mm 0,0 UV-I 0 W/m² 14,1 °C 17,8 °C 9,7 km/h (2 Bft)
02.07.2019 00:58 17,9 °C 79 % 1014,4 hPa 0,0 mm 2,1 km/h (1 Bft) W 271 ° 0 min 0,000 mm 0,0 UV-I 0 W/m² 14,2 °C 17,9 °C 4,8 km/h (1 Bft)
02.07.2019 00:59 18,1 °C 78 % 1014,5 hPa 0,0 mm 2,7 km/h (1 Bft) W-NW 282 ° 0 min 0,000 mm 0,0 UV-I 0 W/m² 14,2 °C 18,1 °C 4,8 km/h (1 Bft)
02.07.2019 01:00 18,1 °C 79 % 1014,5 hPa 0,0 mm 1,5 km/h (1 Bft) S-SW 195 ° 0 min 0,025 mm 0,0 UV-I 0 W/m² 14,4 °C 18,1 °C 4,8 km/h (1 Bft)
02.07.2019 01:01 18,0 °C 80 % 1014,5 hPa 0,0 mm 0,0 km/h (0 Bft) S-SW 194 ° 0 min 0,000 mm 0,0 UV-I 0 W/m² 14,5 °C 18,0 °C 0,0 km/h (0 Bft)
02.07.2019 01:02 17,9 °C 82 % 1014,4 hPa 0,0 mm 0,0 km/h (0 Bft) S 187 ° 0 min 0,000 mm 0,0 UV-I 0 W/m² 14,8 °C 17,9 °C 0,0 km/h (0 Bft)
02.07.2019 01:03 17,7 °C 83 % 1014,4 hPa 0,0 mm 0,0 km/h (0 Bft) S 187 ° 0 min 0,000 mm 0,0 UV-I 0 W/m² 14,8 °C 17,7 °C 0,0 km/h (0 Bft)
02.07.2019 01:04 17,5 °C 84 % 1014,4 hPa 0,0 mm 0,0 km/h (0 Bft) S 187 ° 0 min 0,000 mm 0,0 UV-I 0 W/m² 14,8 °C 17,5 °C 0,0 km/h (0 Bft)
02.07.2019 01:05 17,3 °C 84 % 1014,4 hPa 0,0 mm 0,0 km/h (0 Bft) S 187 ° 0 min 0,000 mm 0,0 UV-I 0 W/m² 14,6 °C 17,3 °C 0,0 km/h (0 Bft)
02.07.2019 01:06 17,2 °C 85 % 1014,4 hPa 0,0 mm 1,7 km/h (1 Bft) W-NW 288 ° 0 min 0,000 mm 0,0 UV-I 0 W/m² 14,7 °C 17,2 °C 6,4 km/h (2 Bft)
02.07.2019 01:07 17,2 °C 84 % 1014,3 hPa 0,0 mm 2,0 km/h (1 Bft) W-NW 292 ° 0 min 0,000 mm 0,0 UV-I 0 W/m² 14,5 °C 17,2 °C 6,4 km/h (2 Bft)
02.07.2019 01:08 17,3 °C 83 % 1014,3 hPa 0,0 mm 2,3 km/h (1 Bft) W 274 ° 0 min 0,000 mm 0,0 UV-I 0 W/m² 14,4 °C 17,3 °C 4,8 km/h (1 Bft)
02.07.2019 01:09 17,3 °C 82 % 1014,2 hPa 0,0 mm 0,5 km/h (0 Bft) W 274 ° 0 min 0,000 mm 0,0 UV-I 0 W/m² 14,2 °C 17,3 °C 3,2 km/h (1 Bft)
02.07.2019 01:10 17,3 °C 83 % 1014,1 hPa 0,0 mm 0,0 km/h (0 Bft) W 274 ° 0 min 0,000 mm 0,0 UV-I 0 W/m² 14,4 °C 17,3 °C 0,0 km/h (0 Bft)
02.07.2019 01:11 17,3 °C 82 % 1014,1 hPa 0,0 mm 0,0 km/h (0 Bft) W 274 ° 0 min 0,000 mm 0,0 UV-I 0 W/m² 14,2 °C 17,3 °C 0,0 km/h (0 Bft)
02.07.2019 01:12 17,3 °C 83 % 1014,1 hPa 0,0 mm 0,0 km/h (0 Bft) N-NO 32 ° 0 min 0,000 mm 0,0 UV-I 0 W/m² 14,4 °C 17,3 °C 0,0 km/h (0 Bft)
02.07.2019 01:13 17,3 °C 83 % 1014,1 hPa 0,0 mm 0,0 km/h (0 Bft) N-NO 32 ° 0 min 0,000 mm 0,0 UV-I 0 W/m² 14,4 °C 17,3 °C 0,0 km/h (0 Bft)
02.07.2019 01:14 17,2 °C 84 % 1014,1 hPa 0,0 mm 0,0 km/h (0 Bft) O 88 ° 0 min 0,000 mm 0,0 UV-I 0 W/m² 14,5 °C 17,2 °C 0,0 km/h (0 Bft)
02.07.2019 01:15 17,2 °C 84 % 1014,0 hPa 0,0 mm 0,0 km/h (0 Bft) O 88 ° 0 min 0,000 mm 0,0 UV-I 0 W/m² 14,5 °C 17,2 °C 0,0 km/h (0 Bft)
02.07.2019 01:16 17,1 °C 85 % 1014,1 hPa 0,0 mm 0,1 km/h (0 Bft) N 355 ° 0 min 0,000 mm 0,0 UV-I 0 W/m² 14,6 °C 17,1 °C 1,6 km/h (1 Bft)
02.07.2019 01:17 16,9 °C 85 % 1014,2 hPa 0,0 mm 1,2 km/h (1 Bft) N 355 ° 0 min 0,000 mm 0,0 UV-I 0 W/m² 14,4 °C 16,9 °C 3,2 km/h (1 Bft)
02.07.2019 01:18 16,9 °C 85 % 1014,2 hPa 0,0 mm 0,1 km/h (0 Bft) N 355 ° 0 min 0,000 mm 0,0 UV-I 0 W/m² 14,4 °C 16,9 °C 1,6 km/h (1 Bft)
02.07.2019 01:19 16,9 °C 86 % 1014,3 hPa 0,0 mm 0,1 km/h (0 Bft) N 355 ° 0 min 0,000 mm 0,0 UV-I 0 W/m² 14,5 °C 16,9 °C 1,6 km/h (1 Bft)
02.07.2019 01:20 16,8 °C 85 % 1014,5 hPa 0,0 mm 0,0 km/h (0 Bft) N 355 ° 0 min 0,000 mm 0,0 UV-I 0 W/m² 14,3 °C 16,8 °C 0,0 km/h (0 Bft)
02.07.2019 01:21 16,9 °C 85 % 1014,5 hPa 0,0 mm 0,1 km/h (0 Bft) N 355 ° 0 min 0,000 mm 0,0 UV-I 0 W/m² 14,4 °C 16,9 °C 1,6 km/h (1 Bft)
02.07.2019 01:22 16,9 °C 85 % 1014,5 hPa 0,0 mm 2,5 km/h (1 Bft) W 265 ° 0 min 0,000 mm 0,0 UV-I 0 W/m² 14,4 °C 16,9 °C 4,8 km/h (1 Bft)
02.07.2019 01:23 17,0 °C 84 % 1014,5 hPa 0,0 mm 2,4 km/h (1 Bft) W 265 ° 0 min 0,000 mm 0,0 UV-I 0 W/m² 14,3 °C 17,0 °C 4,8 km/h (1 Bft)
02.07.2019 01:24 17,0 °C 84 % 1014,6 hPa 0,0 mm 0,9 km/h (0 Bft) W 265 ° 0 min 0,000 mm 0,0 UV-I 0 W/m² 14,3 °C 17,0 °C 3,2 km/h (1 Bft)
02.07.2019 01:25 17,1 °C 83 % 1014,5 hPa 0,0 mm 1,1 km/h (1 Bft) W 265 ° 0 min 0,000 mm 0,0 UV-I 0 W/m² 14,2 °C 17,1 °C 3,2 km/h (1 Bft)
02.07.2019 01:26 17,1 °C 83 % 1014,6 hPa 0,0 mm 0,0 km/h (0 Bft) W 265 ° 0 min 0,000 mm 0,0 UV-I 0 W/m² 14,2 °C 17,1 °C 0,0 km/h (0 Bft)
02.07.2019 01:27 17,2 °C 83 % 1014,5 hPa 0,0 mm 0,1 km/h (0 Bft) W 265 ° 0 min 0,000 mm 0,0 UV-I 0 W/m² 14,3 °C 17,2 °C 1,6 km/h (1 Bft)
02.07.2019 01:28 17,2 °C 84 % 1014,6 hPa 0,2 mm 2,3 km/h (1 Bft) W 265 ° 0 min 0,000 mm 0,0 UV-I 0 W/m² 14,5 °C 17,2 °C 4,8 km/h (1 Bft)
02.07.2019 01:29 17,1 °C 84 % 1014,7 hPa 0,0 mm 2,7 km/h (1 Bft) W 265 ° 0 min 0,000 mm 0,0 UV-I 0 W/m² 14,4 °C 17,1 °C 4,8 km/h (1 Bft)
02.07.2019 01:30 17,1 °C 84 % 1014,8 hPa 0,0 mm 1,8 km/h (1 Bft) W 265 ° 0 min 0,000 mm 0,0 UV-I 0 W/m² 14,4 °C 17,1 °C 3,2 km/h (1 Bft)
02.07.2019 01:31 17,1 °C 84 % 1014,8 hPa 0,0 mm 0,0 km/h (0 Bft) W 265 ° 0 min 0,000 mm 0,0 UV-I 0 W/m² 14,4 °C 17,1 °C 0,0 km/h (0 Bft)
02.07.2019 01:32 17,1 °C 84 % 1014,7 hPa 0,0 mm 1,3 km/h (1 Bft) W 265 ° 0 min 0,000 mm 0,0 UV-I 0 W/m² 14,4 °C 17,1 °C 3,2 km/h (1 Bft)
02.07.2019 01:33 17,1 °C 84 % 1014,7 hPa 0,0 mm 1,8 km/h (1 Bft) S 180 ° 0 min 0,000 mm 0,0 UV-I 0 W/m² 14,4 °C 17,1 °C 6,4 km/h (2 Bft)
02.07.2019 01:34 17,1 °C 84 % 1014,7 hPa 0,0 mm 4,5 km/h (1 Bft) S 180 ° 0 min 0,000 mm 0,0 UV-I 0 W/m² 14,4 °C 17,1 °C 6,4 km/h (2 Bft)
02.07.2019 01:35 17,0 °C 84 % 1014,6 hPa 0,0 mm 4,4 km/h (1 Bft) S-SW 193 ° 0 min 0,000 mm 0,0 UV-I 0 W/m² 14,3 °C 17,0 °C 8,0 km/h (2 Bft)
02.07.2019 01:36 16,9 °C 85 % 1014,6 hPa 0,0 mm 2,3 km/h (1 Bft) S 175 ° 0 min 0,000 mm 0,0 UV-I 0 W/m² 14,4 °C 16,9 °C 3,2 km/h (1 Bft)
02.07.2019 01:37 16,8 °C 86 % 1014,6 hPa 0,0 mm 1,2 km/h (1 Bft) S 175 ° 0 min 0,000 mm 0,0 UV-I 0 W/m² 14,4 °C 16,8 °C 3,2 km/h (1 Bft)
02.07.2019 01:38 16,8 °C 86 % 1014,6 hPa 0,0 mm 0,9 km/h (0 Bft) S 186 ° 0 min 0,000 mm 0,0 UV-I 0 W/m² 14,4 °C 16,8 °C 4,8 km/h (1 Bft)
02.07.2019 01:39 16,7 °C 86 % 1014,6 hPa 0,0 mm 4,4 km/h (1 Bft) S-SW 196 ° 0 min 0,000 mm 0,0 UV-I 0 W/m² 14,3 °C 16,7 °C 6,4 km/h (2 Bft)
02.07.2019 01:40 16,7 °C 87 % 1014,7 hPa 0,0 mm 3,0 km/h (1 Bft) S-SW 195 ° 0 min 0,000 mm 0,0 UV-I 0 W/m² 14,5 °C 16,7 °C 4,8 km/h (1 Bft)
02.07.2019 01:41 16,7 °C 87 % 1014,7 hPa 0,0 mm 1,8 km/h (1 Bft) S-SW 195 ° 0 min 0,000 mm 0,0 UV-I 0 W/m² 14,5 °C 16,7 °C 3,2 km/h (1 Bft)
02.07.2019 01:42 16,6 °C 87 % 1014,6 hPa 0,0 mm 1,0 km/h (0 Bft) S-SW 195 ° 0 min 0,000 mm 0,0 UV-I 0 W/m² 14,4 °C 16,6 °C 3,2 km/h (1 Bft)
02.07.2019 01:43 16,6 °C 87 % 1014,6 hPa 0,0 mm 1,8 km/h (1 Bft) S-SW 194 ° 0 min 0,000 mm 0,0 UV-I 0 W/m² 14,4 °C 16,6 °C 3,2 km/h (1 Bft)
02.07.2019 01:44 16,4 °C 88 % 1014,5 hPa 0,0 mm 2,7 km/h (1 Bft) S-SW 194 ° 0 min 0,000 mm 0,0 UV-I 0 W/m² 14,4 °C 16,4 °C 4,8 km/h (1 Bft)
02.07.2019 01:45 16,4 °C 88 % 1014,5 hPa 0,0 mm 1,3 km/h (1 Bft) S-SW 194 ° 0 min 0,000 mm 0,0 UV-I 0 W/m² 14,4 °C 16,4 °C 3,2 km/h (1 Bft)
02.07.2019 01:46 16,3 °C 88 % 1014,7 hPa 0,0 mm 0,1 km/h (0 Bft) S-SW 194 ° 0 min 0,000 mm 0,0 UV-I 0 W/m² 14,3 °C 16,3 °C 1,6 km/h (1 Bft)
02.07.2019 01:47 16,3 °C 89 % 1014,7 hPa 0,0 mm 5,7 km/h (1 Bft) W 278 ° 0 min 0,000 mm 0,0 UV-I 0 W/m² 14,5 °C 16,3 °C 9,7 km/h (2 Bft)
02.07.2019 01:48 16,3 °C 89 % 1014,7 hPa 0,0 mm 4,4 km/h (1 Bft) W-NW 285 ° 0 min 0,000 mm 0,0 UV-I 0 W/m² 14,5 °C 16,3 °C 6,4 km/h (2 Bft)
02.07.2019 01:49 16,3 °C 89 % 1014,7 hPa 0,0 mm 3,5 km/h (1 Bft) W-NW 286 ° 0 min 0,000 mm 0,0 UV-I 0 W/m² 14,5 °C 16,3 °C 4,8 km/h (1 Bft)
02.07.2019 01:50 16,3 °C 89 % 1014,9 hPa 0,0 mm 6,5 km/h (2 Bft) W-NW 295 ° 0 min 0,000 mm 0,0 UV-I 0 W/m² 14,5 °C 16,3 °C 8,0 km/h (2 Bft)
02.07.2019 01:51 16,4 °C 89 % 1015,0 hPa 0,0 mm 3,6 km/h (1 Bft) W-NW 296 ° 0 min 0,000 mm 0,0 UV-I 0 W/m² 14,6 °C 16,4 °C 4,8 km/h (1 Bft)
02.07.2019 01:52 16,4 °C 88 % 1015,1 hPa 0,0 mm 7,4 km/h (2 Bft) W 259 ° 0 min 0,000 mm 0,0 UV-I 0 W/m² 14,4 °C 16,4 °C 11,3 km/h (2 Bft)
02.07.2019 01:53 16,4 °C 88 % 1015,1 hPa 0,0 mm 5,5 km/h (1 Bft) W-SW 253 ° 0 min 0,000 mm 0,0 UV-I 0 W/m² 14,4 °C 16,4 °C 6,4 km/h (2 Bft)
02.07.2019 01:54 16,4 °C 88 % 1015,2 hPa 0,0 mm 4,5 km/h (1 Bft) W-SW 248 ° 0 min 0,000 mm 0,0 UV-I 0 W/m² 14,4 °C 16,4 °C 8,0 km/h (2 Bft)
02.07.2019 01:55 16,4 °C 88 % 1015,2 hPa 0,0 mm 6,1 km/h (2 Bft) SW 227 ° 0 min 0,000 mm 0,0 UV-I 0 W/m² 14,4 °C 16,4 °C 9,7 km/h (2 Bft)
02.07.2019 01:56 16,4 °C 88 % 1015,1 hPa 0,0 mm 7,8 km/h (2 Bft) S-SW 192 ° 0 min 0,000 mm 0,0 UV-I 0 W/m² 14,4 °C 16,4 °C 11,3 km/h (2 Bft)
02.07.2019 01:57 16,4 °C 87 % 1015,1 hPa 0,0 mm 5,0 km/h (1 Bft) S-SW 196 ° 0 min 0,000 mm 0,0 UV-I 0 W/m² 14,2 °C 16,4 °C 8,0 km/h (2 Bft)
02.07.2019 01:58 16,5 °C 88 % 1015,0 hPa 0,0 mm 3,4 km/h (1 Bft) S 175 ° 0 min 0,000 mm 0,0 UV-I 0 W/m² 14,5 °C 16,5 °C 4,8 km/h (1 Bft)
02.07.2019 01:59 16,4 °C 88 % 1014,9 hPa 0,0 mm 2,9 km/h (1 Bft) S 171 ° 0 min 0,000 mm 0,0 UV-I 0 W/m² 14,4 °C 16,4 °C 6,4 km/h (2 Bft)
02.07.2019 02:00 16,4 °C 89 % 1014,8 hPa 0,2 mm 2,5 km/h (1 Bft) S 171 ° 0 min 0,026 mm 0,0 UV-I 0 W/m² 14,6 °C 16,4 °C 6,4 km/h (2 Bft)
02.07.2019 02:01 16,3 °C 88 % 1014,9 hPa 0,0 mm 0,1 km/h (0 Bft) S 171 ° 0 min 0,000 mm 0,0 UV-I 0 W/m² 14,3 °C 16,3 °C 1,6 km/h (1 Bft)
02.07.2019 02:02 16,3 °C 89 % 1015,1 hPa 0,0 mm 0,0 km/h (0 Bft) S 171 ° 0 min 0,000 mm 0,0 UV-I 0 W/m² 14,5 °C 16,3 °C 0,0 km/h (0 Bft)
02.07.2019 02:03 16,2 °C 89 % 1015,2 hPa 0,0 mm 0,0 km/h (0 Bft) S 171 ° 0 min 0,000 mm 0,0 UV-I 0 W/m² 14,4 °C 16,2 °C 0,0 km/h (0 Bft)
02.07.2019 02:04 16,2 °C 90 % 1015,2 hPa 0,0 mm 0,0 km/h (0 Bft) S 171 ° 0 min 0,000 mm 0,0 UV-I 0 W/m² 14,6 °C 16,2 °C 0,0 km/h (0 Bft)
02.07.2019 02:05 16,1 °C 90 % 1015,6 hPa 0,0 mm 2,1 km/h (1 Bft) W-NW 298 ° 0 min 0,000 mm 0,0 UV-I 0 W/m² 14,5 °C 16,1 °C 4,8 km/h (1 Bft)
02.07.2019 02:06 16,0 °C 90 % 1015,8 hPa 0,0 mm 4,5 km/h (1 Bft) W 279 ° 0 min 0,000 mm 0,0 UV-I 0 W/m² 14,4 °C 16,0 °C 6,4 km/h (2 Bft)
02.07.2019 02:07 16,0 °C 90 % 1015,8 hPa 0,0 mm 1,5 km/h (1 Bft) W-NW 286 ° 0 min 0,000 mm 0,0 UV-I 0 W/m² 14,4 °C 16,0 °C 4,8 km/h (1 Bft)
02.07.2019 02:08 16,1 °C 90 % 1015,8 hPa 0,0 mm 0,5 km/h (0 Bft) W-NW 286 ° 0 min 0,000 mm 0,0 UV-I 0 W/m² 14,5 °C 16,1 °C 1,6 km/h (1 Bft)
02.07.2019 02:09 16,1 °C 89 % 1015,8 hPa 0,0 mm 0,3 km/h (0 Bft) W-SW 252 ° 0 min 0,000 mm 0,0 UV-I 0 W/m² 14,3 °C 16,1 °C 1,6 km/h (1 Bft)
02.07.2019 02:10 16,1 °C 89 % 1015,7 hPa 0,0 mm 0,5 km/h (0 Bft) W-SW 252 ° 0 min 0,000 mm 0,0 UV-I 0 W/m² 14,3 °C 16,1 °C 1,6 km/h (1 Bft)
02.07.2019 02:11 16,1 °C 89 % 1015,7 hPa 0,0 mm 0,0 km/h (0 Bft) W-SW 252 ° 0 min 0,000 mm 0,0 UV-I 0 W/m² 14,3 °C 16,1 °C 0,0 km/h (0 Bft)
02.07.2019 02:12 16,1 °C 89 % 1015,8 hPa 0,0 mm 0,9 km/h (0 Bft) W-SW 254 ° 0 min 0,000 mm 0,0 UV-I 0 W/m² 14,3 °C 16,1 °C 1,6 km/h (1 Bft)
02.07.2019 02:13 16,1 °C 89 % 1015,8 hPa 0,0 mm 0,6 km/h (0 Bft) W-SW 242 ° 0 min 0,000 mm 0,0 UV-I 0 W/m² 14,3 °C 16,1 °C 1,6 km/h (1 Bft)
02.07.2019 02:14 16,1 °C 89 % 1015,7 hPa 0,0 mm 5,1 km/h (1 Bft) O-SO 119 ° 0 min 0,000 mm 0,0 UV-I 0 W/m² 14,3 °C 16,1 °C 6,4 km/h (2 Bft)
02.07.2019 02:15 16,1 °C 89 % 1015,7 hPa 0,0 mm 7,1 km/h (2 Bft) S-SW 192 ° 0 min 0,000 mm 0,0 UV-I 0 W/m² 14,3 °C 16,1 °C 9,7 km/h (2 Bft)
02.07.2019 02:16 16,2 °C 89 % 1015,6 hPa 0,0 mm 4,0 km/h (1 Bft) O 91 ° 0 min 0,000 mm 0,0 UV-I 0 W/m² 14,4 °C 16,2 °C 6,4 km/h (2 Bft)
02.07.2019 02:17 16,2 °C 89 % 1015,5 hPa 0,0 mm 2,6 km/h (1 Bft) O-SO 108 ° 0 min 0,000 mm 0,0 UV-I 0 W/m² 14,4 °C 16,2 °C 4,8 km/h (1 Bft)
02.07.2019 02:18 16,2 °C 89 % 1015,4 hPa 0,0 mm 5,6 km/h (1 Bft) S-SW 194 ° 0 min 0,000 mm 0,0 UV-I 0 W/m² 14,4 °C 16,2 °C 11,3 km/h (2 Bft)
02.07.2019 02:19 16,2 °C 89 % 1015,3 hPa 0,0 mm 0,5 km/h (0 Bft) S-SW 194 ° 0 min 0,000 mm 0,0 UV-I 0 W/m² 14,4 °C 16,2 °C 4,8 km/h (1 Bft)
02.07.2019 02:20 16,3 °C 88 % 1015,3 hPa 0,0 mm 2,4 km/h (1 Bft) S 186 ° 0 min 0,000 mm 0,0 UV-I 0 W/m² 14,3 °C 16,3 °C 4,8 km/h (1 Bft)
02.07.2019 02:21 16,4 °C 88 % 1015,4 hPa 0,0 mm 0,9 km/h (0 Bft) W 268 ° 0 min 0,000 mm 0,0 UV-I 0 W/m² 14,4 °C 16,4 °C 4,8 km/h (1 Bft)
02.07.2019 02:22 16,6 °C 88 % 1015,5 hPa 0,0 mm 3,5 km/h (1 Bft) W 267 ° 0 min 0,000 mm 0,0 UV-I 0 W/m² 14,6 °C 16,6 °C 4,8 km/h (1 Bft)
02.07.2019 02:23 16,6 °C 87 % 1015,5 hPa 0,0 mm 0,0 km/h (0 Bft) W 267 ° 0 min 0,000 mm 0,0 UV-I 0 W/m² 14,4 °C 16,6 °C 0,0 km/h (0 Bft)
02.07.2019 02:24 16,5 °C 88 % 1015,4 hPa 0,0 mm 0,3 km/h (0 Bft) W 267 ° 0 min 0,000 mm 0,0 UV-I 0 W/m² 14,5 °C 16,5 °C 1,6 km/h (1 Bft)
02.07.2019 02:25 16,4 °C 88 % 1015,3 hPa 0,0 mm 0,0 km/h (0 Bft) W 267 ° 0 min 0,000 mm 0,0 UV-I 0 W/m² 14,4 °C 16,4 °C 0,0 km/h (0 Bft)
02.07.2019 02:26 16,3 °C 88 % 1015,4 hPa 0,0 mm 0,6 km/h (0 Bft) S-SW 209 ° 0 min 0,000 mm 0,0 UV-I 0 W/m² 14,3 °C 16,3 °C 1,6 km/h (1 Bft)
02.07.2019 02:27 16,3 °C 89 % 1015,4 hPa 0,2 mm 1,9 km/h (1 Bft) S-SW 209 ° 0 min 0,000 mm 0,0 UV-I 0 W/m² 14,5 °C 16,3 °C 3,2 km/h (1 Bft)
02.07.2019 02:28 16,2 °C 89 % 1015,4 hPa 0,0 mm 1,0 km/h (0 Bft) S-SW 209 ° 0 min 0,000 mm 0,0 UV-I 0 W/m² 14,4 °C 16,2 °C 3,2 km/h (1 Bft)
02.07.2019 02:29 16,1 °C 90 % 1015,4 hPa 0,0 mm 0,9 km/h (0 Bft) S-SW 208 ° 0 min 0,000 mm 0,0 UV-I 0 W/m² 14,5 °C 16,1 °C 3,2 km/h (1 Bft)
02.07.2019 02:30 16,0 °C 90 % 1015,3 hPa 0,2 mm 2,3 km/h (1 Bft) S 180 ° 0 min 0,000 mm 0,0 UV-I 0 W/m² 14,4 °C 16,0 °C 4,8 km/h (1 Bft)
02.07.2019 02:31 15,9 °C 90 % 1015,3 hPa 0,0 mm 0,2 km/h (0 Bft) S 180 ° 0 min 0,000 mm 0,0 UV-I 0 W/m² 14,3 °C 15,9 °C 1,6 km/h (1 Bft)
02.07.2019 02:32 15,9 °C 90 % 1015,3 hPa 0,0 mm 0,0 km/h (0 Bft) S 180 ° 0 min 0,000 mm 0,0 UV-I 0 W/m² 14,3 °C 15,9 °C 0,0 km/h (0 Bft)
02.07.2019 02:33 15,8 °C 90 % 1015,3 hPa 0,0 mm 0,0 km/h (0 Bft) S 180 ° 0 min 0,000 mm 0,0 UV-I 0 W/m² 14,2 °C 15,8 °C 0,0 km/h (0 Bft)
02.07.2019 02:34 15,8 °C 91 % 1015,3 hPa 0,0 mm 0,0 km/h (0 Bft) S 180 ° 0 min 0,000 mm 0,0 UV-I 0 W/m² 14,3 °C 15,8 °C 0,0 km/h (0 Bft)
02.07.2019 02:35 15,8 °C 91 % 1015,3 hPa 0,0 mm 0,0 km/h (0 Bft) S 180 ° 0 min 0,000 mm 0,0 UV-I 0 W/m² 14,3 °C 15,8 °C 0,0 km/h (0 Bft)
02.07.2019 02:36 15,8 °C 91 % 1015,3 hPa 0,2 mm 0,0 km/h (0 Bft) S 180 ° 0 min 0,000 mm 0,0 UV-I 0 W/m² 14,3 °C 15,8 °C 0,0 km/h (0 Bft)
02.07.2019 02:37 15,7 °C 91 % 1015,3 hPa 0,0 mm 0,0 km/h (0 Bft) S 180 ° 0 min 0,000 mm 0,0 UV-I 0 W/m² 14,2 °C 15,7 °C 0,0 km/h (0 Bft)
02.07.2019 02:38 15,7 °C 91 % 1015,3 hPa 0,0 mm 2,5 km/h (1 Bft) S 186 ° 0 min 0,000 mm 0,0 UV-I 0 W/m² 14,2 °C 15,7 °C 4,8 km/h (1 Bft)
02.07.2019 02:39 15,7 °C 92 % 1015,4 hPa 0,0 mm 3,4 km/h (1 Bft) W 279 ° 0 min 0,000 mm 0,0 UV-I 0 W/m² 14,4 °C 15,7 °C 4,8 km/h (1 Bft)
02.07.2019 02:40 15,7 °C 92 % 1015,4 hPa 0,0 mm 4,6 km/h (1 Bft) W 262 ° 0 min 0,000 mm 0,0 UV-I 0 W/m² 14,4 °C 15,7 °C 6,4 km/h (2 Bft)
02.07.2019 02:41 15,7 °C 92 % 1015,4 hPa 0,0 mm 1,5 km/h (1 Bft) W-SW 242 ° 0 min 0,000 mm 0,0 UV-I 0 W/m² 14,4 °C 15,7 °C 4,8 km/h (1 Bft)
02.07.2019 02:42 15,7 °C 92 % 1015,4 hPa 0,0 mm 0,0 km/h (0 Bft) W-SW 242 ° 0 min 0,000 mm 0,0 UV-I 0 W/m² 14,4 °C 15,7 °C 0,0 km/h (0 Bft)
02.07.2019 02:43 15,7 °C 92 % 1015,4 hPa 0,2 mm 0,0 km/h (0 Bft) W-SW 242 ° 0 min 0,000 mm 0,0 UV-I 0 W/m² 14,4 °C 15,7 °C 0,0 km/h (0 Bft)
02.07.2019 02:44 15,7 °C 92 % 1015,5 hPa 0,0 mm 0,9 km/h (0 Bft) W-SW 247 ° 0 min 0,000 mm 0,0 UV-I 0 W/m² 14,4 °C 15,7 °C 3,2 km/h (1 Bft)
02.07.2019 02:45 15,7 °C 92 % 1015,6 hPa 0,0 mm 3,0 km/h (1 Bft) W-SW 258 ° 0 min 0,000 mm 0,0 UV-I 0 W/m² 14,4 °C 15,7 °C 4,8 km/h (1 Bft)
02.07.2019 02:46 15,7 °C 92 % 1015,6 hPa 0,2 mm 2,3 km/h (1 Bft) W-SW 250 ° 0 min 0,000 mm 0,0 UV-I 0 W/m² 14,4 °C 15,7 °C 4,8 km/h (1 Bft)
02.07.2019 02:47 15,7 °C 92 % 1015,6 hPa 0,0 mm 0,1 km/h (0 Bft) W-SW 250 ° 0 min 0,000 mm 0,0 UV-I 0 W/m² 14,4 °C 15,7 °C 1,6 km/h (1 Bft)
02.07.2019 02:48 15,7 °C 92 % 1015,7 hPa 0,0 mm 1,7 km/h (1 Bft) W-SW 250 ° 0 min 0,000 mm 0,0 UV-I 0 W/m² 14,4 °C 15,7 °C 3,2 km/h (1 Bft)
02.07.2019 02:49 15,7 °C 92 % 1015,7 hPa 0,0 mm 0,9 km/h (0 Bft) W-SW 250 ° 0 min 0,000 mm 0,0 UV-I 0 W/m² 14,4 °C 15,7 °C 3,2 km/h (1 Bft)
02.07.2019 02:50 15,7 °C 92 % 1015,7 hPa 0,0 mm 0,4 km/h (0 Bft) W-SW 250 ° 0 min 0,000 mm 0,0 UV-I 0 W/m² 14,4 °C 15,7 °C 1,6 km/h (1 Bft)
02.07.2019 02:51 15,7 °C 92 % 1015,7 hPa 0,2 mm 0,0 km/h (0 Bft) W-SW 250 ° 0 min 0,000 mm 0,0 UV-I 0 W/m² 14,4 °C 15,7 °C 0,0 km/h (0 Bft)
02.07.2019 02:52 15,6 °C 92 % 1015,8 hPa 0,0 mm 0,0 km/h (0 Bft) W-SW 250 ° 0 min 0,000 mm 0,0 UV-I 0 W/m² 14,3 °C 15,6 °C 0,0 km/h (0 Bft)
02.07.2019 02:53 15,6 °C 92 % 1015,9 hPa 0,0 mm 0,0 km/h (0 Bft) W-SW 250 ° 0 min 0,000 mm 0,0 UV-I 0 W/m² 14,3 °C 15,6 °C 0,0 km/h (0 Bft)
02.07.2019 02:54 15,6 °C 92 % 1016,0 hPa 0,0 mm 1,9 km/h (1 Bft) W-SW 250 ° 0 min 0,000 mm 0,0 UV-I 0 W/m² 14,3 °C 15,6 °C 4,8 km/h (1 Bft)
02.07.2019 02:55 15,6 °C 92 % 1016,0 hPa 0,2 mm 3,8 km/h (1 Bft) W-SW 255 ° 0 min 0,000 mm 0,0 UV-I 0 W/m² 14,3 °C 15,6 °C 6,4 km/h (2 Bft)
02.07.2019 02:56 15,6 °C 92 % 1016,2 hPa 0,0 mm 1,5 km/h (1 Bft) W-SW 255 ° 0 min 0,000 mm 0,0 UV-I 0 W/m² 14,3 °C 15,6 °C 4,8 km/h (1 Bft)
02.07.2019 02:57 15,6 °C 92 % 1016,2 hPa 0,0 mm 0,1 km/h (0 Bft) W-SW 255 ° 0 min 0,000 mm 0,0 UV-I 0 W/m² 14,3 °C 15,6 °C 1,6 km/h (1 Bft)
02.07.2019 02:58 15,5 °C 92 % 1016,2 hPa 0,0 mm 0,0 km/h (0 Bft) W-SW 255 ° 0 min 0,000 mm 0,0 UV-I 0 W/m² 14,2 °C 15,5 °C 0,0 km/h (0 Bft)
02.07.2019 02:59 15,5 °C 92 % 1016,2 hPa 0,2 mm 0,0 km/h (0 Bft) W-SW 255 ° 0 min 0,000 mm 0,0 UV-I 0 W/m² 14,2 °C 15,5 °C 0,0 km/h (0 Bft)
02.07.2019 03:00 15,5 °C 92 % 1016,3 hPa 0,0 mm 0,0 km/h (0 Bft) W-SW 255 ° 0 min 0,000 mm 0,0 UV-I 0 W/m² 14,2 °C 15,5 °C 0,0 km/h (0 Bft)
02.07.2019 03:01 15,5 °C 92 % 1016,2 hPa 0,0 mm 0,5 km/h (0 Bft) W-SW 255 ° 0 min 0,000 mm 0,0 UV-I 0 W/m² 14,2 °C 15,5 °C 1,6 km/h (1 Bft)
02.07.2019 03:02 15,4 °C 92 % 1016,3 hPa 0,0 mm 1,3 km/h (1 Bft) W-SW 255 ° 0 min 0,000 mm 0,0 UV-I 0 W/m² 14,1 °C 15,4 °C 3,2 km/h (1 Bft)
02.07.2019 03:03 15,4 °C 92 % 1016,2 hPa 0,0 mm 0,0 km/h (0 Bft) W-SW 255 ° 0 min 0,000 mm 0,0 UV-I 0 W/m² 14,1 °C 15,4 °C 0,0 km/h (0 Bft)
02.07.2019 03:04 15,5 °C 93 % 1016,3 hPa 0,0 mm 0,7 km/h (0 Bft) W-SW 255 ° 0 min 0,000 mm 0,0 UV-I 0 W/m² 14,4 °C 15,5 °C 3,2 km/h (1 Bft)
02.07.2019 03:05 15,4 °C 93 % 1016,3 hPa 0,0 mm 2,4 km/h (1 Bft) W-SW 255 ° 0 min 0,000 mm 0,0 UV-I 0 W/m² 14,3 °C 15,4 °C 3,2 km/h (1 Bft)
02.07.2019 03:06 15,5 °C 93 % 1016,3 hPa 0,0 mm 0,8 km/h (0 Bft) W-SW 255 ° 0 min 0,000 mm 0,0 UV-I 0 W/m² 14,4 °C 15,5 °C 1,6 km/h (1 Bft)
02.07.2019 03:07 15,5 °C 93 % 1016,3 hPa 0,0 mm 0,2 km/h (0 Bft) W-SW 255 ° 0 min 0,000 mm 0,0 UV-I 0 W/m² 14,4 °C 15,5 °C 1,6 km/h (1 Bft)
02.07.2019 03:08 15,5 °C 93 % 1016,3 hPa 0,2 mm 0,3 km/h (0 Bft) W-SW 255 ° 0 min 0,000 mm 0,0 UV-I 0 W/m² 14,4 °C 15,5 °C 1,6 km/h (1 Bft)
02.07.2019 03:09 15,4 °C 93 % 1016,3 hPa 0,0 mm 0,0 km/h (0 Bft) W-SW 255 ° 0 min 0,000 mm 0,0 UV-I 0 W/m² 14,3 °C 15,4 °C 0,0 km/h (0 Bft)
02.07.2019 03:10 15,4 °C 93 % 1016,3 hPa 0,0 mm 0,0 km/h (0 Bft) W-SW 255 ° 0 min 0,000 mm 0,0 UV-I 0 W/m² 14,3 °C 15,4 °C 0,0 km/h (0 Bft)
02.07.2019 03:11 15,4 °C 93 % 1016,3 hPa 0,0 mm 0,2 km/h (0 Bft) W-SW 254 ° 0 min 0,000 mm 0,0 UV-I 0 W/m² 14,3 °C 15,4 °C 1,6 km/h (1 Bft)
02.07.2019 03:12 15,4 °C 93 % 1016,3 hPa 0,0 mm 0,1 km/h (0 Bft) W-SW 255 ° 0 min 0,000 mm 0,0 UV-I 0 W/m² 14,3 °C 15,4 °C 1,6 km/h (1 Bft)
02.07.2019 03:13 15,4 °C 93 % 1016,3 hPa 0,0 mm 4,4 km/h (1 Bft) W-NW 284 ° 0 min 0,000 mm 0,0 UV-I 0 W/m² 14,3 °C 15,4 °C 6,4 km/h (2 Bft)
02.07.2019 03:14 15,4 °C 93 % 1016,4 hPa 0,0 mm 3,2 km/h (1 Bft) W 279 ° 0 min 0,000 mm 0,0 UV-I 0 W/m² 14,3 °C 15,4 °C 4,8 km/h (1 Bft)
02.07.2019 03:15 15,4 °C 93 % 1016,4 hPa 0,0 mm 1,3 km/h (1 Bft) S 170 ° 0 min 0,000 mm 0,0 UV-I 0 W/m² 14,3 °C 15,4 °C 3,2 km/h (1 Bft)
02.07.2019 03:16 15,4 °C 93 % 1016,4 hPa 0,2 mm 2,3 km/h (1 Bft) S 173 ° 0 min 0,000 mm 0,0 UV-I 0 W/m² 14,3 °C 15,4 °C 6,4 km/h (2 Bft)
02.07.2019 03:17 15,4 °C 93 % 1016,4 hPa 0,0 mm 1,9 km/h (1 Bft) W 259 ° 0 min 0,000 mm 0,0 UV-I 0 W/m² 14,3 °C 15,4 °C 6,4 km/h (2 Bft)
02.07.2019 03:18 15,4 °C 93 % 1016,4 hPa 0,0 mm 6,0 km/h (2 Bft) W 275 ° 0 min 0,000 mm 0,0 UV-I 0 W/m² 14,3 °C 15,4 °C 9,7 km/h (2 Bft)
02.07.2019 03:19 15,5 °C 93 % 1016,4 hPa 0,0 mm 1,7 km/h (1 Bft) W 268 ° 0 min 0,000 mm 0,0 UV-I 0 W/m² 14,4 °C 15,5 °C 4,8 km/h (1 Bft)
02.07.2019 03:20 15,5 °C 93 % 1016,4 hPa 0,0 mm 0,0 km/h (0 Bft) S-SW 207 ° 0 min 0,000 mm 0,0 UV-I 0 W/m² 14,4 °C 15,5 °C 0,0 km/h (0 Bft)
02.07.2019 03:21 15,5 °C 93 % 1016,4 hPa 0,0 mm 0,0 km/h (0 Bft) S-SW 207 ° 0 min 0,000 mm 0,0 UV-I 0 W/m² 14,4 °C 15,5 °C 0,0 km/h (0 Bft)
02.07.2019 03:22 15,4 °C 93 % 1016,4 hPa 0,0 mm 0,0 km/h (0 Bft) S-SW 207 ° 0 min 0,000 mm 0,0 UV-I 0 W/m² 14,3 °C 15,4 °C 0,0 km/h (0 Bft)
02.07.2019 03:23 15,4 °C 93 % 1016,4 hPa 0,0 mm 0,0 km/h (0 Bft) S-SW 207 ° 0 min 0,000 mm 0,0 UV-I 0 W/m² 14,3 °C 15,4 °C 0,0 km/h (0 Bft)
02.07.2019 03:24 15,4 °C 93 % 1016,4 hPa 0,0 mm 0,0 km/h (0 Bft) S-SW 207 ° 0 min 0,000 mm 0,0 UV-I 0 W/m² 14,3 °C 15,4 °C 0,0 km/h (0 Bft)
02.07.2019 03:25 15,4 °C 93 % 1016,2 hPa 0,2 mm 1,5 km/h (1 Bft) SO 132 ° 0 min 0,000 mm 0,0 UV-I 0 W/m² 14,3 °C 15,4 °C 6,4 km/h (2 Bft)
02.07.2019 03:26 15,4 °C 93 % 1016,2 hPa 0,0 mm 2,6 km/h (1 Bft) SO 140 ° 0 min 0,000 mm 0,0 UV-I 0 W/m² 14,3 °C 15,4 °C 8,0 km/h (2 Bft)
02.07.2019 03:27 15,3 °C 93 % 1016,2 hPa 0,0 mm 0,1 km/h (0 Bft) SO 140 ° 0 min 0,000 mm 0,0 UV-I 0 W/m² 14,2 °C 15,3 °C 1,6 km/h (1 Bft)
02.07.2019 03:28 15,3 °C 93 % 1016,3 hPa 0,0 mm 0,3 km/h (0 Bft) S-SW 205 ° 0 min 0,000 mm 0,0 UV-I 0 W/m² 14,2 °C 15,3 °C 3,2 km/h (1 Bft)
02.07.2019 03:29 15,3 °C 93 % 1016,2 hPa 0,0 mm 2,4 km/h (1 Bft) SW 221 ° 0 min 0,000 mm 0,0 UV-I 0 W/m² 14,2 °C 15,3 °C 4,8 km/h (1 Bft)
02.07.2019 03:30 15,3 °C 93 % 1016,2 hPa 0,0 mm 0,4 km/h (0 Bft) W-SW 237 ° 0 min 0,000 mm 0,0 UV-I 0 W/m² 14,2 °C 15,3 °C 1,6 km/h (1 Bft)
02.07.2019 03:31 15,3 °C 93 % 1016,1 hPa 0,0 mm 0,2 km/h (0 Bft) W-SW 238 ° 0 min 0,000 mm 0,0 UV-I 0 W/m² 14,2 °C 15,3 °C 1,6 km/h (1 Bft)
02.07.2019 03:32 15,2 °C 93 % 1016,1 hPa 0,2 mm 0,0 km/h (0 Bft) W-SW 238 ° 0 min 0,000 mm 0,0 UV-I 0 W/m² 14,1 °C 15,2 °C 0,0 km/h (0 Bft)
02.07.2019 03:33 15,3 °C 93 % 1016,1 hPa 0,0 mm 0,6 km/h (0 Bft) S 186 ° 0 min 0,000 mm 0,0 UV-I 0 W/m² 14,2 °C 15,3 °C 3,2 km/h (1 Bft)
02.07.2019 03:34 15,2 °C 93 % 1016,1 hPa 0,0 mm 0,0 km/h (0 Bft) S 187 ° 0 min 0,000 mm 0,0 UV-I 0 W/m² 14,1 °C 15,2 °C 0,0 km/h (0 Bft)
02.07.2019 03:35 15,2 °C 93 % 1016,2 hPa 0,0 mm 0,1 km/h (0 Bft) S 187 ° 0 min 0,000 mm 0,0 UV-I 0 W/m² 14,1 °C 15,2 °C 1,6 km/h (1 Bft)
02.07.2019 03:36 15,2 °C 93 % 1016,2 hPa 0,2 mm 1,5 km/h (1 Bft) N-NO 26 ° 0 min 0,000 mm 0,0 UV-I 0 W/m² 14,1 °C 15,2 °C 3,2 km/h (1 Bft)
02.07.2019 03:37 15,2 °C 93 % 1016,2 hPa 0,0 mm 2,5 km/h (1 Bft) S-SW 195 ° 0 min 0,000 mm 0,0 UV-I 0 W/m² 14,1 °C 15,2 °C 6,4 km/h (2 Bft)
02.07.2019 03:38 15,2 °C 93 % 1016,1 hPa 0,0 mm 5,6 km/h (1 Bft) S 175 ° 0 min 0,000 mm 0,0 UV-I 0 W/m² 14,1 °C 15,2 °C 8,0 km/h (2 Bft)
02.07.2019 03:39 15,2 °C 93 % 1015,9 hPa 0,0 mm 4,9 km/h (1 Bft) NO 40 ° 0 min 0,000 mm 0,0 UV-I 0 W/m² 14,1 °C 15,2 °C 9,7 km/h (2 Bft)
02.07.2019 03:40 15,1 °C 93 % 1015,6 hPa 0,2 mm 2,1 km/h (1 Bft) N 355 ° 0 min 0,000 mm 0,0 UV-I 0 W/m² 14,0 °C 15,1 °C 4,8 km/h (1 Bft)
02.07.2019 03:41 15,1 °C 93 % 1015,6 hPa 0,0 mm 3,6 km/h (1 Bft) N-NO 31 ° 0 min 0,000 mm 0,0 UV-I 0 W/m² 14,0 °C 15,1 °C 8,0 km/h (2 Bft)
02.07.2019 03:42 15,1 °C 93 % 1015,7 hPa 0,0 mm 7,8 km/h (2 Bft) W 279 ° 0 min 0,000 mm 0,0 UV-I 0 W/m² 14,0 °C 15,1 °C 14,5 km/h (3 Bft)
02.07.2019 03:43 15,1 °C 93 % 1015,7 hPa 0,0 mm 4,7 km/h (1 Bft) S-SW 194 ° 0 min 0,000 mm 0,0 UV-I 0 W/m² 14,0 °C 15,1 °C 9,7 km/h (2 Bft)
02.07.2019 03:44 15,1 °C 93 % 1015,7 hPa 0,2 mm 3,8 km/h (1 Bft) S-SW 201 ° 0 min 0,000 mm 0,0 UV-I 0 W/m² 14,0 °C 15,1 °C 6,4 km/h (2 Bft)
02.07.2019 03:45 15,1 °C 93 % 1015,7 hPa 0,0 mm 5,8 km/h (2 Bft) S 186 ° 0 min 0,000 mm 0,0 UV-I 0 W/m² 14,0 °C 15,1 °C 19,3 km/h (3 Bft)
02.07.2019 03:46 15,2 °C 93 % 1015,7 hPa 0,0 mm 2,7 km/h (1 Bft) SO 140 ° 0 min 0,000 mm 0,0 UV-I 0 W/m² 14,1 °C 15,2 °C 9,7 km/h (2 Bft)
02.07.2019 03:47 15,1 °C 93 % 1015,6 hPa 0,2 mm 1,3 km/h (1 Bft) NW 319 ° 0 min 0,000 mm 0,0 UV-I 0 W/m² 14,0 °C 15,1 °C 6,4 km/h (2 Bft)
02.07.2019 03:48 15,1 °C 93 % 1015,6 hPa 0,0 mm 0,6 km/h (0 Bft) W 271 ° 0 min 0,000 mm 0,0 UV-I 0 W/m² 14,0 °C 15,1 °C 4,8 km/h (1 Bft)
02.07.2019 03:49 15,1 °C 93 % 1015,5 hPa 0,0 mm 4,8 km/h (1 Bft) S-SO 155 ° 0 min 0,000 mm 0,0 UV-I 0 W/m² 14,0 °C 15,1 °C 6,4 km/h (2 Bft)
02.07.2019 03:50 15,1 °C 93 % 1015,5 hPa 0,2 mm 2,4 km/h (1 Bft) S-SO 155 ° 0 min 0,000 mm 0,0 UV-I 0 W/m² 14,0 °C 15,1 °C 3,2 km/h (1 Bft)
02.07.2019 03:51 15,1 °C 93 % 1015,6 hPa 0,0 mm 3,1 km/h (1 Bft) W 278 ° 0 min 0,000 mm 0,0 UV-I 0 W/m² 14,0 °C 15,1 °C 8,0 km/h (2 Bft)
02.07.2019 03:52 15,1 °C 93 % 1015,5 hPa 0,0 mm 4,8 km/h (1 Bft) W 279 ° 0 min 0,000 mm 0,0 UV-I 0 W/m² 14,0 °C 15,1 °C 12,9 km/h (3 Bft)
02.07.2019 03:53 15,1 °C 93 % 1015,4 hPa 0,2 mm 3,6 km/h (1 Bft) N-NO 24 ° 0 min 0,000 mm 0,0 UV-I 0 W/m² 14,0 °C 15,1 °C 9,7 km/h (2 Bft)
02.07.2019 03:54 15,1 °C 93 % 1015,4 hPa 0,0 mm 4,9 km/h (1 Bft) O-SO 107 ° 0 min 0,000 mm 0,0 UV-I 0 W/m² 14,0 °C 15,1 °C 11,3 km/h (2 Bft)
02.07.2019 03:55 15,1 °C 93 % 1015,3 hPa 0,0 mm 3,4 km/h (1 Bft) O-SO 111 ° 0 min 0,000 mm 0,0 UV-I 0 W/m² 14,0 °C 15,1 °C 8,0 km/h (2 Bft)
02.07.2019 03:56 15,1 °C 93 % 1015,4 hPa 0,2 mm 3,0 km/h (1 Bft) N 355 ° 0 min 0,000 mm 0,0 UV-I 0 W/m² 14,0 °C 15,1 °C 6,4 km/h (2 Bft)
02.07.2019 03:57 15,1 °C 93 % 1015,3 hPa 0,0 mm 3,6 km/h (1 Bft) N-NO 15 ° 0 min 0,000 mm 0,0 UV-I 0 W/m² 14,0 °C 15,1 °C 4,8 km/h (1 Bft)
02.07.2019 03:58 15,1 °C 93 % 1015,3 hPa 0,0 mm 4,7 km/h (1 Bft) W 280 ° 0 min 0,000 mm 0,0 UV-I 0 W/m² 14,0 °C 15,1 °C 6,4 km/h (2 Bft)
02.07.2019 03:59 15,1 °C 93 % 1015,5 hPa 0,2 mm 5,0 km/h (1 Bft) W 273 ° 0 min 0,000 mm 0,0 UV-I 0 W/m² 14,0 °C 15,1 °C 6,4 km/h (2 Bft)
02.07.2019 04:00 15,1 °C 93 % 1015,5 hPa 0,0 mm 5,0 km/h (1 Bft) W 267 ° 0 min 0,000 mm 0,0 UV-I 0 W/m² 14,0 °C 15,1 °C 12,9 km/h (3 Bft)
02.07.2019 04:01 15,1 °C 93 % 1015,5 hPa 0,0 mm 4,2 km/h (1 Bft) W-SW 246 ° 0 min 0,000 mm 0,0 UV-I 0 W/m² 14,0 °C 15,1 °C 9,7 km/h (2 Bft)
02.07.2019 04:02 15,1 °C 93 % 1015,6 hPa 0,2 mm 2,5 km/h (1 Bft) SW 220 ° 0 min 0,000 mm 0,0 UV-I 0 W/m² 14,0 °C 15,1 °C 6,4 km/h (2 Bft)
02.07.2019 04:03 15,1 °C 93 % 1015,5 hPa 0,0 mm 5,8 km/h (2 Bft) W-NW 300 ° 0 min 0,000 mm 0,0 UV-I 0 W/m² 14,0 °C 15,1 °C 9,7 km/h (2 Bft)
02.07.2019 04:04 15,1 °C 93 % 1015,5 hPa 0,0 mm 7,2 km/h (2 Bft) W 280 ° 0 min 0,000 mm 0,0 UV-I 0 W/m² 14,0 °C 15,1 °C 12,9 km/h (3 Bft)
02.07.2019 04:05 15,1 °C 93 % 1015,5 hPa 0,2 mm 5,5 km/h (1 Bft) W 267 ° 0 min 0,000 mm 0,0 UV-I 0 W/m² 14,0 °C 15,1 °C 9,7 km/h (2 Bft)
02.07.2019 04:06 15,1 °C 93 % 1015,5 hPa 0,0 mm 4,8 km/h (1 Bft) N-NW 342 ° 0 min 0,000 mm 0,0 UV-I 0 W/m² 14,0 °C 15,1 °C 11,3 km/h (2 Bft)
02.07.2019 04:07 15,1 °C 93 % 1015,6 hPa 0,0 mm 3,5 km/h (1 Bft) W-NW 282 ° 0 min 0,000 mm 0,0 UV-I 0 W/m² 14,0 °C 15,1 °C 6,4 km/h (2 Bft)
02.07.2019 04:08 15,1 °C 93 % 1015,6 hPa 0,0 mm 7,5 km/h (2 Bft) W 263 ° 0 min 0,000 mm 0,0 UV-I 0 W/m² 14,0 °C 15,1 °C 12,9 km/h (3 Bft)
02.07.2019 04:09 15,1 °C 93 % 1015,7 hPa 0,2 mm 7,5 km/h (2 Bft) W-SW 252 ° 0 min 0,000 mm 0,0 UV-I 0 W/m² 14,0 °C 15,1 °C 11,3 km/h (2 Bft)
02.07.2019 04:10 15,1 °C 93 % 1015,7 hPa 0,0 mm 2,5 km/h (1 Bft) W-NW 286 ° 0 min 0,000 mm 0,0 UV-I 0 W/m² 14,0 °C 15,1 °C 4,8 km/h (1 Bft)
02.07.2019 04:11 15,2 °C 93 % 1015,7 hPa 0,0 mm 8,4 km/h (2 Bft) S 172 ° 0 min 0,000 mm 0,0 UV-I 0 W/m² 14,1 °C 15,2 °C 12,9 km/h (3 Bft)
02.07.2019 04:12 15,2 °C 93 % 1015,7 hPa 0,0 mm 2,4 km/h (1 Bft) W 266 ° 0 min 0,000 mm 0,0 UV-I 0 W/m² 14,1 °C 15,2 °C 6,4 km/h (2 Bft)
02.07.2019 04:13 15,1 °C 93 % 1015,7 hPa 0,2 mm 1,3 km/h (1 Bft) W 263 ° 0 min 0,000 mm 0,0 UV-I 0 W/m² 14,0 °C 15,1 °C 3,2 km/h (1 Bft)
02.07.2019 04:14 15,1 °C 93 % 1015,7 hPa 0,0 mm 1,5 km/h (1 Bft) W-NW 283 ° 0 min 0,000 mm 0,0 UV-I 0 W/m² 14,0 °C 15,1 °C 6,4 km/h (2 Bft)
02.07.2019 04:15 15,1 °C 93 % 1015,7 hPa 0,0 mm 4,9 km/h (1 Bft) W 273 ° 0 min 0,000 mm 0,0 UV-I 0 W/m² 14,0 °C 15,1 °C 9,7 km/h (2 Bft)
02.07.2019 04:16 15,1 °C 93 % 1015,5 hPa 0,0 mm 3,4 km/h (1 Bft) W 263 ° 0 min 0,000 mm 0,0 UV-I 0 W/m² 14,0 °C 15,1 °C 4,8 km/h (1 Bft)
02.07.2019 04:17 15,1 °C 93 % 1015,5 hPa 0,0 mm 1,7 km/h (1 Bft) W-SW 251 ° 0 min 0,000 mm 0,0 UV-I 0 W/m² 14,0 °C 15,1 °C 4,8 km/h (1 Bft)
02.07.2019 04:18 15,1 °C 93 % 1015,6 hPa 0,2 mm 2,1 km/h (1 Bft) N 355 ° 0 min 0,000 mm 0,0 UV-I 0 W/m² 14,0 °C 15,1 °C 4,8 km/h (1 Bft)
02.07.2019 04:19 15,1 °C 93 % 1015,5 hPa 0,0 mm 1,9 km/h (1 Bft) W 267 ° 0 min 0,000 mm 0,0 UV-I 0 W/m² 14,0 °C 15,1 °C 11,3 km/h (2 Bft)
02.07.2019 04:20 15,1 °C 93 % 1015,4 hPa 0,0 mm 0,0 km/h (0 Bft) W 267 ° 0 min 0,000 mm 0,0 UV-I 0 W/m² 14,0 °C 15,1 °C 0,0 km/h (0 Bft)
02.07.2019 04:21 15,0 °C 93 % 1015,4 hPa 0,0 mm 2,8 km/h (1 Bft) S-SO 165 ° 0 min 0,000 mm 0,0 UV-I 0 W/m² 13,9 °C 15,0 °C 9,7 km/h (2 Bft)
02.07.2019 04:22 15,0 °C 93 % 1015,4 hPa 0,0 mm 0,8 km/h (0 Bft) W-SW 258 ° 0 min 0,000 mm 0,0 UV-I 0 W/m² 13,9 °C 15,0 °C 3,2 km/h (1 Bft)
02.07.2019 04:23 15,0 °C 93 % 1015,3 hPa 0,0 mm 4,4 km/h (1 Bft) NW 319 ° 0 min 0,000 mm 0,0 UV-I 0 W/m² 13,9 °C 15,0 °C 6,4 km/h (2 Bft)
02.07.2019 04:24 15,0 °C 93 % 1015,3 hPa 0,0 mm 2,3 km/h (1 Bft) N-NW 348 ° 0 min 0,000 mm 0,0 UV-I 0 W/m² 13,9 °C 15,0 °C 8,0 km/h (2 Bft)
02.07.2019 04:25 14,9 °C 93 % 1015,2 hPa 0,0 mm 3,6 km/h (1 Bft) W 269 ° 0 min 0,000 mm 0,0 UV-I 0 W/m² 13,8 °C 14,9 °C 6,4 km/h (2 Bft)
02.07.2019 04:26 14,9 °C 93 % 1015,1 hPa 0,0 mm 2,2 km/h (1 Bft) W-SW 255 ° 0 min 0,000 mm 0,0 UV-I 0 W/m² 13,8 °C 14,9 °C 6,4 km/h (2 Bft)
02.07.2019 04:27 14,9 °C 93 % 1015,0 hPa 0,0 mm 3,0 km/h (1 Bft) N-NW 327 ° 0 min 0,000 mm 0,0 UV-I 0 W/m² 13,8 °C 14,9 °C 6,4 km/h (2 Bft)
02.07.2019 04:28 14,9 °C 93 % 1015,0 hPa 0,0 mm 5,2 km/h (1 Bft) W 270 ° 0 min 0,000 mm 0,0 UV-I 0 W/m² 13,8 °C 14,9 °C 9,7 km/h (2 Bft)
02.07.2019 04:29 14,9 °C 93 % 1015,0 hPa 0,0 mm 4,2 km/h (1 Bft) W-NW 299 ° 0 min 0,000 mm 0,0 UV-I 0 W/m² 13,8 °C 14,9 °C 11,3 km/h (2 Bft)
02.07.2019 04:30 14,9 °C 93 % 1015,0 hPa 0,0 mm 5,7 km/h (1 Bft) W-NW 286 ° 0 min 0,000 mm 0,0 UV-I 0 W/m² 13,8 °C 14,9 °C 9,7 km/h (2 Bft)
02.07.2019 04:31 14,9 °C 93 % 1014,9 hPa 0,0 mm 2,0 km/h (1 Bft) NW 322 ° 0 min 0,000 mm 0,0 UV-I 0 W/m² 13,8 °C 14,9 °C 4,8 km/h (1 Bft)
02.07.2019 04:32 14,9 °C 93 % 1014,9 hPa 0,0 mm 2,2 km/h (1 Bft) S-SW 198 ° 0 min 0,000 mm 0,0 UV-I 0 W/m² 13,8 °C 14,9 °C 4,8 km/h (1 Bft)
02.07.2019 04:33 14,9 °C 93 % 1014,9 hPa 0,0 mm 3,9 km/h (1 Bft) W 275 ° 0 min 0,000 mm 0,0 UV-I 0 W/m² 13,8 °C 14,9 °C 9,7 km/h (2 Bft)
02.07.2019 04:34 15,0 °C 93 % 1015,0 hPa 0,0 mm 7,7 km/h (2 Bft) W-NW 291 ° 0 min 0,000 mm 0,0 UV-I 0 W/m² 13,9 °C 15,0 °C 11,3 km/h (2 Bft)
02.07.2019 04:35 15,0 °C 93 % 1015,0 hPa 0,0 mm 6,9 km/h (2 Bft) W 264 ° 0 min 0,000 mm 0,0 UV-I 0 W/m² 13,9 °C 15,0 °C 12,9 km/h (3 Bft)
02.07.2019 04:36 15,0 °C 93 % 1015,0 hPa 0,0 mm 8,1 km/h (2 Bft) W 264 ° 0 min 0,000 mm 0,0 UV-I 0 W/m² 13,9 °C 15,0 °C 11,3 km/h (2 Bft)
02.07.2019 04:37 15,1 °C 93 % 1015,2 hPa 0,2 mm 6,0 km/h (2 Bft) S 172 ° 0 min 0,000 mm 0,0 UV-I 0 W/m² 14,0 °C 15,1 °C 8,0 km/h (2 Bft)
02.07.2019 04:38 15,1 °C 93 % 1015,2 hPa 0,0 mm 5,6 km/h (1 Bft) S 180 ° 0 min 0,000 mm 0,0 UV-I 0 W/m² 14,0 °C 15,1 °C 12,9 km/h (3 Bft)
02.07.2019 04:39 15,1 °C 93 % 1015,2 hPa 0,0 mm 7,0 km/h (2 Bft) W-NW 290 ° 0 min 0,000 mm 0,0 UV-I 0 W/m² 14,0 °C 15,1 °C 14,5 km/h (3 Bft)
02.07.2019 04:40 15,2 °C 93 % 1015,2 hPa 0,0 mm 6,2 km/h (2 Bft) W 266 ° 0 min 0,000 mm 0,0 UV-I 0 W/m² 14,1 °C 15,2 °C 11,3 km/h (2 Bft)
02.07.2019 04:41 15,2 °C 92 % 1015,2 hPa 0,0 mm 5,2 km/h (1 Bft) S-SO 160 ° 0 min 0,000 mm 0,0 UV-I 0 W/m² 13,9 °C 15,2 °C 11,3 km/h (2 Bft)
02.07.2019 04:42 15,2 °C 92 % 1015,2 hPa 0,0 mm 1,1 km/h (1 Bft) S-SO 156 ° 0 min 0,000 mm 0,0 UV-I 0 W/m² 13,9 °C 15,2 °C 3,2 km/h (1 Bft)
02.07.2019 04:43 15,2 °C 92 % 1015,1 hPa 0,0 mm 2,3 km/h (1 Bft) N-NO 12 ° 0 min 0,000 mm 0,0 UV-I 0 W/m² 13,9 °C 15,2 °C 6,4 km/h (2 Bft)
02.07.2019 04:44 15,1 °C 92 % 1015,1 hPa 0,0 mm 4,3 km/h (1 Bft) N-NO 17 ° 0 min 0,000 mm 0,0 UV-I 0 W/m² 13,8 °C 15,1 °C 8,0 km/h (2 Bft)
02.07.2019 04:45 15,1 °C 93 % 1015,0 hPa 0,0 mm 3,1 km/h (1 Bft) N-NW 331 ° 0 min 0,000 mm 0,0 UV-I 0 W/m² 14,0 °C 15,1 °C 4,8 km/h (1 Bft)
02.07.2019 04:46 15,1 °C 93 % 1015,1 hPa 0,0 mm 2,6 km/h (1 Bft) N-NW 333 ° 0 min 0,000 mm 0,0 UV-I 0 W/m² 14,0 °C 15,1 °C 4,8 km/h (1 Bft)
02.07.2019 04:47 15,0 °C 93 % 1015,0 hPa 0,0 mm 2,6 km/h (1 Bft) NO 42 ° 0 min 0,000 mm 0,0 UV-I 0 W/m² 13,9 °C 15,0 °C 6,4 km/h (2 Bft)
02.07.2019 04:48 15,0 °C 92 % 1015,0 hPa 0,0 mm 3,3 km/h (1 Bft) NO 36 ° 0 min 0,000 mm 0,0 UV-I 0 W/m² 13,7 °C 15,0 °C 6,4 km/h (2 Bft)
02.07.2019 04:49 14,9 °C 93 % 1015,0 hPa 0,0 mm 1,2 km/h (1 Bft) N 5 ° 0 min 0,000 mm 0,0 UV-I 0 W/m² 13,8 °C 14,9 °C 4,8 km/h (1 Bft)
02.07.2019 04:50 14,9 °C 93 % 1015,0 hPa 0,0 mm 3,1 km/h (1 Bft) N-NW 343 ° 0 min 0,000 mm 0,0 UV-I 0 W/m² 13,8 °C 14,9 °C 8,0 km/h (2 Bft)
02.07.2019 04:51 14,9 °C 93 % 1015,0 hPa 0,0 mm 1,8 km/h (1 Bft) N-NW 343 ° 0 min 0,000 mm 0,0 UV-I 0 W/m² 13,8 °C 14,9 °C 3,2 km/h (1 Bft)
02.07.2019 04:52 14,9 °C 93 % 1015,0 hPa 0,0 mm 1,6 km/h (1 Bft) N 360 ° 0 min 0,000 mm 0,0 UV-I 0 W/m² 13,8 °C 14,9 °C 3,2 km/h (1 Bft)
02.07.2019 04:53 14,9 °C 93 % 1015,0 hPa 0,0 mm 0,1 km/h (0 Bft) N 360 ° 0 min 0,000 mm 0,0 UV-I 0 W/m² 13,8 °C 14,9 °C 1,6 km/h (1 Bft)
02.07.2019 04:54 14,8 °C 93 % 1014,9 hPa 0,0 mm 2,9 km/h (1 Bft) O 86 ° 0 min 0,000 mm 0,0 UV-I 0 W/m² 13,7 °C 14,8 °C 4,8 km/h (1 Bft)
02.07.2019 04:55 14,8 °C 93 % 1014,9 hPa 0,0 mm 1,1 km/h (1 Bft) O 86 ° 0 min 0,000 mm 0,0 UV-I 0 W/m² 13,7 °C 14,8 °C 3,2 km/h (1 Bft)
02.07.2019 04:56 14,8 °C 93 % 1014,9 hPa 0,0 mm 1,3 km/h (1 Bft) N 5 ° 0 min 0,000 mm 0,0 UV-I 0 W/m² 13,7 °C 14,8 °C 6,4 km/h (2 Bft)
02.07.2019 04:57 14,8 °C 93 % 1015,0 hPa 0,0 mm 4,4 km/h (1 Bft) NO 47 ° 0 min 0,000 mm 0,0 UV-I 0 W/m² 13,7 °C 14,8 °C 6,4 km/h (2 Bft)
02.07.2019 04:58 14,8 °C 93 % 1014,9 hPa 0,0 mm 2,5 km/h (1 Bft) O 87 ° 0 min 0,000 mm 0,0 UV-I 0 W/m² 13,7 °C 14,8 °C 8,0 km/h (2 Bft)
02.07.2019 04:59 14,8 °C 93 % 1015,1 hPa 0,0 mm 4,3 km/h (1 Bft) N-NO 28 ° 0 min 0,000 mm 0,0 UV-I 0 W/m² 13,7 °C 14,8 °C 9,7 km/h (2 Bft)
02.07.2019 05:00 14,8 °C 93 % 1015,1 hPa 0,0 mm 3,0 km/h (1 Bft) O-SO 117 ° 0 min 0,000 mm 0,0 UV-I 0 W/m² 13,7 °C 14,8 °C 9,7 km/h (2 Bft)
02.07.2019 05:01 14,8 °C 93 % 1015,4 hPa 0,0 mm 3,5 km/h (1 Bft) NW 311 ° 0 min 0,000 mm 0,0 UV-I 0 W/m² 13,7 °C 14,8 °C 6,4 km/h (2 Bft)
02.07.2019 05:02 14,8 °C 93 % 1015,4 hPa 0,0 mm 7,2 km/h (2 Bft) W 265 ° 0 min 0,000 mm 0,0 UV-I 0 W/m² 13,7 °C 14,8 °C 16,1 km/h (3 Bft)
02.07.2019 05:03 14,8 °C 93 % 1015,7 hPa 0,0 mm 12,2 km/h (2 Bft) W-SW 244 ° 0 min 0,000 mm 0,0 UV-I 0 W/m² 13,7 °C 14,8 °C 14,5 km/h (3 Bft)
02.07.2019 05:04 14,8 °C 93 % 1015,7 hPa 0,0 mm 6,9 km/h (2 Bft) W-NW 283 ° 0 min 0,000 mm 0,0 UV-I 0 W/m² 13,7 °C 14,8 °C 12,9 km/h (3 Bft)
02.07.2019 05:05 14,9 °C 93 % 1015,8 hPa 0,0 mm 5,0 km/h (1 Bft) NW 304 ° 0 min 0,000 mm 0,0 UV-I 0 W/m² 13,8 °C 14,9 °C 9,7 km/h (2 Bft)
02.07.2019 05:06 14,9 °C 93 % 1015,8 hPa 0,0 mm 0,5 km/h (0 Bft) NW 304 ° 0 min 0,000 mm 0,0 UV-I 0 W/m² 13,8 °C 14,9 °C 1,6 km/h (1 Bft)
02.07.2019 05:07 15,0 °C 93 % 1015,9 hPa 0,0 mm 0,9 km/h (0 Bft) W-NW 288 ° 0 min 0,000 mm 0,0 UV-I 0 W/m² 13,9 °C 15,0 °C 3,2 km/h (1 Bft)
02.07.2019 05:08 15,1 °C 93 % 1015,9 hPa 0,0 mm 1,7 km/h (1 Bft) W-NW 288 ° 0 min 0,000 mm 0,0 UV-I 0 W/m² 14,0 °C 15,1 °C 3,2 km/h (1 Bft)
02.07.2019 05:09 15,1 °C 92 % 1015,9 hPa 0,0 mm 1,6 km/h (1 Bft) S 175 ° 0 min 0,000 mm 0,0 UV-I 0 W/m² 13,8 °C 15,1 °C 3,2 km/h (1 Bft)
02.07.2019 05:10 15,1 °C 92 % 1016,0 hPa 0,0 mm 4,1 km/h (1 Bft) S 174 ° 0 min 0,000 mm 0,0 UV-I 0 W/m² 13,8 °C 15,1 °C 4,8 km/h (1 Bft)
02.07.2019 05:11 15,1 °C 92 % 1016,0 hPa 0,0 mm 4,8 km/h (1 Bft) S 173 ° 0 min 0,000 mm 0,0 UV-I 0 W/m² 13,8 °C 15,1 °C 8,0 km/h (2 Bft)
02.07.2019 05:12 15,0 °C 92 % 1015,9 hPa 0,0 mm 2,9 km/h (1 Bft) S 173 ° 0 min 0,000 mm 0,0 UV-I 0 W/m² 13,7 °C 15,0 °C 4,8 km/h (1 Bft)
02.07.2019 05:13 14,9 °C 92 % 1015,8 hPa 0,0 mm 2,4 km/h (1 Bft) S 173 ° 0 min 0,000 mm 0,0 UV-I 0 W/m² 13,6 °C 14,9 °C 4,8 km/h (1 Bft)
02.07.2019 05:14 14,9 °C 92 % 1015,9 hPa 0,0 mm 1,1 km/h (1 Bft) S 173 ° 0 min 0,000 mm 0,0 UV-I 0 W/m² 13,6 °C 14,9 °C 3,2 km/h (1 Bft)
02.07.2019 05:15 14,8 °C 92 % 1015,9 hPa 0,0 mm 0,0 km/h (0 Bft) S 173 ° 0 min 0,000 mm 0,0 UV-I 0 W/m² 13,5 °C 14,8 °C 0,0 km/h (0 Bft)
02.07.2019 05:16 14,8 °C 93 % 1015,8 hPa 0,0 mm 0,1 km/h (0 Bft) S 173 ° 0 min 0,000 mm 0,0 UV-I 0 W/m² 13,7 °C 14,8 °C 1,6 km/h (1 Bft)
02.07.2019 05:17 14,8 °C 93 % 1015,8 hPa 0,0 mm 1,8 km/h (1 Bft) S 173 ° 0 min 0,000 mm 0,0 UV-I 0 W/m² 13,7 °C 14,8 °C 3,2 km/h (1 Bft)
02.07.2019 05:18 14,8 °C 93 % 1015,8 hPa 0,0 mm 2,0 km/h (1 Bft) S 173 ° 0 min 0,000 mm 0,0 UV-I 0 W/m² 13,7 °C 14,8 °C 3,2 km/h (1 Bft)
02.07.2019 05:19 14,8 °C 93 % 1015,8 hPa 0,0 mm 1,2 km/h (1 Bft) S 173 ° 0 min 0,000 mm 0,0 UV-I 0 W/m² 13,7 °C 14,8 °C 3,2 km/h (1 Bft)
02.07.2019 05:20 14,7 °C 93 % 1015,8 hPa 0,0 mm 0,0 km/h (0 Bft) S 173 ° 0 min 0,000 mm 0,0 UV-I 0 W/m² 13,6 °C 14,7 °C 0,0 km/h (0 Bft)
02.07.2019 05:21 14,7 °C 93 % 1015,8 hPa 0,0 mm 0,0 km/h (0 Bft) S 173 ° 0 min 0,000 mm 0,0 UV-I 0 W/m² 13,6 °C 14,7 °C 0,0 km/h (0 Bft)
02.07.2019 05:22 14,7 °C 93 % 1015,9 hPa 0,0 mm 0,0 km/h (0 Bft) S 173 ° 0 min 0,000 mm 0,0 UV-I 0 W/m² 13,6 °C 14,7 °C 0,0 km/h (0 Bft)
02.07.2019 05:23 14,7 °C 93 % 1015,9 hPa 0,0 mm 0,0 km/h (0 Bft) S 173 ° 0 min 0,000 mm 0,0 UV-I 0 W/m² 13,6 °C 14,7 °C 0,0 km/h (0 Bft)
02.07.2019 05:24 14,7 °C 93 % 1015,9 hPa 0,0 mm 0,0 km/h (0 Bft) S 173 ° 0 min 0,000 mm 0,0 UV-I 0 W/m² 13,6 °C 14,7 °C 0,0 km/h (0 Bft)
02.07.2019 05:25 14,7 °C 93 % 1015,8 hPa 0,0 mm 0,0 km/h (0 Bft) S 173 ° 0 min 0,000 mm 0,0 UV-I 0 W/m² 13,6 °C 14,7 °C 0,0 km/h (0 Bft)
02.07.2019 05:26 14,7 °C 93 % 1015,9 hPa 0,0 mm 0,0 km/h (0 Bft) S 173 ° 0 min 0,000 mm 0,0 UV-I 0 W/m² 13,6 °C 14,7 °C 0,0 km/h (0 Bft)
02.07.2019 05:27 14,7 °C 93 % 1015,9 hPa 0,0 mm 0,0 km/h (0 Bft) S 173 ° 0 min 0,000 mm 0,0 UV-I 0 W/m² 13,6 °C 14,7 °C 0,0 km/h (0 Bft)
02.07.2019 05:28 14,7 °C 93 % 1016,0 hPa 0,0 mm 0,0 km/h (0 Bft) S 173 ° 0 min 0,000 mm 0,0 UV-I 0 W/m² 13,6 °C 14,7 °C 0,0 km/h (0 Bft)
02.07.2019 05:29 14,7 °C 93 % 1016,0 hPa 0,0 mm 1,1 km/h (1 Bft) S 173 ° 0 min 0,000 mm 0,0 UV-I 0 W/m² 13,6 °C 14,7 °C 3,2 km/h (1 Bft)
02.07.2019 05:30 14,7 °C 93 % 1016,1 hPa 0,0 mm 1,3 km/h (1 Bft) S 173 ° 0 min 0,000 mm 0,0 UV-I 0 W/m² 13,6 °C 14,7 °C 3,2 km/h (1 Bft)
02.07.2019 05:31 14,7 °C 93 % 1016,1 hPa 0,0 mm 0,2 km/h (0 Bft) S 173 ° 0 min 0,000 mm 0,0 UV-I 0 W/m² 13,6 °C 14,7 °C 1,6 km/h (1 Bft)
02.07.2019 05:32 14,7 °C 93 % 1016,0 hPa 0,0 mm 0,0 km/h (0 Bft) S 173 ° 0 min 0,000 mm 0,0 UV-I 0 W/m² 13,6 °C 14,7 °C 0,0 km/h (0 Bft)
02.07.2019 05:33 14,7 °C 93 % 1016,0 hPa 0,0 mm 0,0 km/h (0 Bft) S 173 ° 0 min 0,000 mm 0,0 UV-I 0 W/m² 13,6 °C 14,7 °C 0,0 km/h (0 Bft)
02.07.2019 05:34 14,7 °C 93 % 1016,0 hPa 0,0 mm 0,0 km/h (0 Bft) S 173 ° 0 min 0,000 mm 0,0 UV-I 0 W/m² 13,6 °C 14,7 °C 0,0 km/h (0 Bft)
02.07.2019 05:35 14,8 °C 93 % 1016,0 hPa 0,0 mm 0,0 km/h (0 Bft) S 173 ° 0 min 0,000 mm 0,0 UV-I 0 W/m² 13,7 °C 14,8 °C 0,0 km/h (0 Bft)
02.07.2019 05:36 14,8 °C 93 % 1016,1 hPa 0,0 mm 0,9 km/h (0 Bft) S 173 ° 0 min 0,000 mm 0,0 UV-I 0 W/m² 13,7 °C 14,8 °C 3,2 km/h (1 Bft)
02.07.2019 05:37 14,8 °C 93 % 1016,1 hPa 0,0 mm 1,8 km/h (1 Bft) S 173 ° 0 min 0,000 mm 0,0 UV-I 0 W/m² 13,7 °C 14,8 °C 3,2 km/h (1 Bft)
02.07.2019 05:38 14,8 °C 93 % 1016,1 hPa 0,0 mm 3,6 km/h (1 Bft) S 190 ° 0 min 0,000 mm 0,0 UV-I 0 W/m² 13,7 °C 14,8 °C 6,4 km/h (2 Bft)
02.07.2019 05:39 14,8 °C 93 % 1016,1 hPa 0,0 mm 3,5 km/h (1 Bft) S 173 ° 0 min 0,000 mm 0,0 UV-I 0 W/m² 13,7 °C 14,8 °C 6,4 km/h (2 Bft)
02.07.2019 05:40 14,8 °C 93 % 1016,0 hPa 0,0 mm 2,8 km/h (1 Bft) S-SO 153 ° 0 min 0,000 mm 0,0 UV-I 0 W/m² 13,7 °C 14,8 °C 4,8 km/h (1 Bft)
02.07.2019 05:41 14,8 °C 93 % 1016,0 hPa 0,0 mm 1,4 km/h (1 Bft) S-SO 153 ° 0 min 0,000 mm 0,0 UV-I 0 W/m² 13,7 °C 14,8 °C 3,2 km/h (1 Bft)
02.07.2019 05:42 14,8 °C 93 % 1016,0 hPa 0,0 mm 2,3 km/h (1 Bft) S-SO 153 ° 0 min 0,000 mm 0,0 UV-I 0 W/m² 13,7 °C 14,8 °C 3,2 km/h (1 Bft)
02.07.2019 05:43 14,8 °C 93 % 1015,9 hPa 0,0 mm 2,1 km/h (1 Bft) S-SO 153 ° 0 min 0,000 mm 0,0 UV-I 0 W/m² 13,7 °C 14,8 °C 3,2 km/h (1 Bft)
02.07.2019 05:44 14,8 °C 93 % 1015,9 hPa 0,0 mm 1,4 km/h (1 Bft) S-SO 153 ° 0 min 0,000 mm 0,0 UV-I 0 W/m² 13,7 °C 14,8 °C 3,2 km/h (1 Bft)
02.07.2019 05:45 14,8 °C 93 % 1015,9 hPa 0,0 mm 0,7 km/h (0 Bft) S-SO 153 ° 0 min 0,000 mm 0,0 UV-I 0 W/m² 13,7 °C 14,8 °C 3,2 km/h (1 Bft)
02.07.2019 05:46 14,8 °C 93 % 1015,9 hPa 0,0 mm 0,5 km/h (0 Bft) S-SO 153 ° 0 min 0,000 mm 0,0 UV-I 5 W/m² 13,7 °C 14,8 °C 1,6 km/h (1 Bft)
02.07.2019 05:47 14,8 °C 93 % 1015,9 hPa 0,0 mm 0,1 km/h (0 Bft) S-SO 153 ° 0 min 0,000 mm 0,0 UV-I 5 W/m² 13,7 °C 14,8 °C 1,6 km/h (1 Bft)
02.07.2019 05:48 14,8 °C 93 % 1016,1 hPa 0,0 mm 0,0 km/h (0 Bft) S-SO 153 ° 0 min 0,000 mm 0,0 UV-I 5 W/m² 13,7 °C 14,8 °C 0,0 km/h (0 Bft)
02.07.2019 05:49 14,8 °C 93 % 1016,1 hPa 0,0 mm 0,5 km/h (0 Bft) S-SO 153 ° 0 min 0,000 mm 0,0 UV-I 5 W/m² 13,7 °C 14,8 °C 3,2 km/h (1 Bft)
02.07.2019 05:50 14,8 °C 93 % 1016,1 hPa 0,0 mm 3,7 km/h (1 Bft) S-SO 153 ° 0 min 0,000 mm 0,0 UV-I 5 W/m² 13,7 °C 14,8 °C 4,8 km/h (1 Bft)
02.07.2019 05:51 14,8 °C 93 % 1016,1 hPa 0,0 mm 4,5 km/h (1 Bft) S 179 ° 0 min 0,000 mm 0,0 UV-I 7 W/m² 13,7 °C 14,8 °C 8,0 km/h (2 Bft)
02.07.2019 05:52 14,8 °C 93 % 1016,1 hPa 0,0 mm 4,9 km/h (1 Bft) S 182 ° 0 min 0,000 mm 0,0 UV-I 7 W/m² 13,7 °C 14,8 °C 6,4 km/h (2 Bft)
02.07.2019 05:53 14,8 °C 93 % 1016,1 hPa 0,0 mm 2,5 km/h (1 Bft) S 182 ° 0 min 0,000 mm 0,0 UV-I 9 W/m² 13,7 °C 14,8 °C 3,2 km/h (1 Bft)
02.07.2019 05:54 14,8 °C 93 % 1016,1 hPa 0,0 mm 0,3 km/h (0 Bft) S 182 ° 0 min 0,000 mm 0,0 UV-I 9 W/m² 13,7 °C 14,8 °C 1,6 km/h (1 Bft)
02.07.2019 05:55 14,8 °C 93 % 1016,1 hPa 0,0 mm 1,5 km/h (1 Bft) S 181 ° 0 min 0,000 mm 0,0 UV-I 9 W/m² 13,7 °C 14,8 °C 4,8 km/h (1 Bft)
02.07.2019 05:56 14,8 °C 93 % 1016,0 hPa 0,0 mm 3,8 km/h (1 Bft) S 181 ° 0 min 0,000 mm 0,0 UV-I 11 W/m² 13,7 °C 14,8 °C 4,8 km/h (1 Bft)
02.07.2019 05:57 14,8 °C 93 % 1015,9 hPa 0,0 mm 2,5 km/h (1 Bft) S 180 ° 0 min 0,000 mm 0,0 UV-I 11 W/m² 13,7 °C 14,8 °C 3,2 km/h (1 Bft)
02.07.2019 05:58 14,8 °C 93 % 1015,9 hPa 0,0 mm 0,6 km/h (0 Bft) S 180 ° 0 min 0,000 mm 0,0 UV-I 12 W/m² 13,7 °C 14,8 °C 1,6 km/h (1 Bft)
02.07.2019 05:59 14,7 °C 93 % 1015,9 hPa 0,0 mm 0,0 km/h (0 Bft) S 180 ° 0 min 0,000 mm 0,0 UV-I 12 W/m² 13,6 °C 14,7 °C 0,0 km/h (0 Bft)
02.07.2019 06:00 14,7 °C 93 % 1015,9 hPa 0,0 mm 0,0 km/h (0 Bft) S 180 ° 0 min 0,000 mm 0,0 UV-I 14 W/m² 13,6 °C 14,7 °C 0,0 km/h (0 Bft)
02.07.2019 06:01 14,7 °C 93 % 1016,0 hPa 0,0 mm 0,0 km/h (0 Bft) S 180 ° 0 min 0,000 mm 0,0 UV-I 14 W/m² 13,6 °C 14,7 °C 0,0 km/h (0 Bft)
02.07.2019 06:02 14,7 °C 93 % 1016,1 hPa 0,0 mm 0,0 km/h (0 Bft) S 180 ° 0 min 0,000 mm 0,0 UV-I 14 W/m² 13,6 °C 14,7 °C 0,0 km/h (0 Bft)
02.07.2019 06:03 14,8 °C 93 % 1016,1 hPa 0,0 mm 0,0 km/h (0 Bft) S 180 ° 0 min 0,000 mm 0,0 UV-I 16 W/m² 13,7 °C 14,8 °C 0,0 km/h (0 Bft)
02.07.2019 06:04 14,8 °C 94 % 1016,1 hPa 0,0 mm 2,0 km/h (1 Bft) S 181 ° 0 min 0,000 mm 0,0 UV-I 16 W/m² 13,8 °C 14,8 °C 4,8 km/h (1 Bft)
02.07.2019 06:05 14,8 °C 94 % 1016,1 hPa 0,0 mm 0,7 km/h (0 Bft) S 181 ° 0 min 0,000 mm 0,0 UV-I 16 W/m² 13,8 °C 14,8 °C 1,6 km/h (1 Bft)
02.07.2019 06:06 14,8 °C 94 % 1016,1 hPa 0,0 mm 0,0 km/h (0 Bft) S 181 ° 0 min 0,000 mm 0,0 UV-I 16 W/m² 13,8 °C 14,8 °C 0,0 km/h (0 Bft)
02.07.2019 06:07 14,8 °C 94 % 1016,1 hPa 0,0 mm 1,2 km/h (1 Bft) S 181 ° 0 min 0,000 mm 0,0 UV-I 16 W/m² 13,8 °C 14,8 °C 3,2 km/h (1 Bft)
02.07.2019 06:08 14,8 °C 94 % 1016,1 hPa 0,0 mm 1,1 km/h (1 Bft) S 181 ° 0 min 0,000 mm 0,0 UV-I 16 W/m² 13,8 °C 14,8 °C 3,2 km/h (1 Bft)
02.07.2019 06:09 14,8 °C 94 % 1016,1 hPa 0,0 mm 2,5 km/h (1 Bft) S 180 ° 0 min 0,000 mm 0,0 UV-I 18 W/m² 13,8 °C 14,8 °C 4,8 km/h (1 Bft)
02.07.2019 06:10 14,8 °C 94 % 1016,1 hPa 0,0 mm 3,2 km/h (1 Bft) S 180 ° 0 min 0,000 mm 0,0 UV-I 18 W/m² 13,8 °C 14,8 °C 4,8 km/h (1 Bft)
02.07.2019 06:11 14,8 °C 94 % 1016,1 hPa 0,0 mm 2,9 km/h (1 Bft) S 180 ° 0 min 0,000 mm 0,0 UV-I 19 W/m² 13,8 °C 14,8 °C 4,8 km/h (1 Bft)
02.07.2019 06:12 14,8 °C 94 % 1016,0 hPa 0,0 mm 3,4 km/h (1 Bft) S 178 ° 0 min 0,000 mm 0,0 UV-I 21 W/m² 13,8 °C 14,8 °C 4,8 km/h (1 Bft)
02.07.2019 06:13 14,8 °C 94 % 1016,0 hPa 0,0 mm 2,8 km/h (1 Bft) S 178 ° 0 min 0,000 mm 0,0 UV-I 25 W/m² 13,8 °C 14,8 °C 3,2 km/h (1 Bft)
02.07.2019 06:14 14,8 °C 94 % 1016,0 hPa 0,0 mm 1,0 km/h (0 Bft) S 178 ° 0 min 0,000 mm 0,0 UV-I 26 W/m² 13,8 °C 14,8 °C 1,6 km/h (1 Bft)
02.07.2019 06:15 14,8 °C 94 % 1016,1 hPa 0,0 mm 0,2 km/h (0 Bft) S 178 ° 0 min 0,000 mm 0,0 UV-I 32 W/m² 13,8 °C 14,8 °C 1,6 km/h (1 Bft)
02.07.2019 06:16 14,8 °C 94 % 1016,1 hPa 0,0 mm 0,0 km/h (0 Bft) S 178 ° 0 min 0,000 mm 0,0 UV-I 33 W/m² 13,8 °C 14,8 °C 0,0 km/h (0 Bft)
02.07.2019 06:17 14,8 °C 94 % 1016,1 hPa 0,0 mm 0,0 km/h (0 Bft) S 178 ° 0 min 0,000 mm 0,0 UV-I 33 W/m² 13,8 °C 14,8 °C 0,0 km/h (0 Bft)
02.07.2019 06:18 14,8 °C 94 % 1016,1 hPa 0,0 mm 0,0 km/h (0 Bft) S 177 ° 0 min 0,000 mm 0,0 UV-I 35 W/m² 13,8 °C 14,8 °C 0,0 km/h (0 Bft)
02.07.2019 06:19 14,8 °C 94 % 1016,1 hPa 0,0 mm 0,0 km/h (0 Bft) S 177 ° 0 min 0,000 mm 0,0 UV-I 35 W/m² 13,8 °C 14,8 °C 0,0 km/h (0 Bft)
02.07.2019 06:20 14,9 °C 94 % 1016,1 hPa 0,0 mm 1,3 km/h (1 Bft) S 177 ° 0 min 0,000 mm 0,0 UV-I 35 W/m² 13,9 °C 14,9 °C 3,2 km/h (1 Bft)
02.07.2019 06:21 14,9 °C 94 % 1016,0 hPa 0,0 mm 1,3 km/h (1 Bft) S 177 ° 0 min 0,000 mm 0,0 UV-I 37 W/m² 13,9 °C 14,9 °C 3,2 km/h (1 Bft)
02.07.2019 06:22 14,9 °C 94 % 1016,0 hPa 0,0 mm 1,3 km/h (1 Bft) S 177 ° 0 min 0,000 mm 0,0 UV-I 39 W/m² 13,9 °C 14,9 °C 1,6 km/h (1 Bft)
02.07.2019 06:23 14,9 °C 94 % 1016,1 hPa 0,0 mm 0,7 km/h (0 Bft) S 177 ° 0 min 0,000 mm 0,0 UV-I 39 W/m² 13,9 °C 14,9 °C 1,6 km/h (1 Bft)
02.07.2019 06:24 14,9 °C 94 % 1016,1 hPa 0,0 mm 0,0 km/h (0 Bft) S 177 ° 0 min 0,000 mm 0,0 UV-I 40 W/m² 13,9 °C 14,9 °C 0,0 km/h (0 Bft)
02.07.2019 06:25 14,9 °C 94 % 1016,1 hPa 0,0 mm 0,7 km/h (0 Bft) S 177 ° 0 min 0,000 mm 0,0 UV-I 42 W/m² 13,9 °C 14,9 °C 3,2 km/h (1 Bft)
02.07.2019 06:26 14,9 °C 94 % 1016,2 hPa 0,0 mm 3,7 km/h (1 Bft) S 178 ° 0 min 0,000 mm 0,0 UV-I 42 W/m² 13,9 °C 14,9 °C 4,8 km/h (1 Bft)
02.07.2019 06:27 14,9 °C 94 % 1016,2 hPa 0,0 mm 3,7 km/h (1 Bft) S 178 ° 0 min 0,000 mm 0,0 UV-I 46 W/m² 13,9 °C 14,9 °C 4,8 km/h (1 Bft)
02.07.2019 06:28 14,9 °C 94 % 1016,2 hPa 0,0 mm 4,8 km/h (1 Bft) S 187 ° 0 min 0,000 mm 0,0 UV-I 46 W/m² 13,9 °C 14,9 °C 8,0 km/h (2 Bft)
02.07.2019 06:29 14,9 °C 94 % 1016,1 hPa 0,0 mm 1,9 km/h (1 Bft) S 183 ° 0 min 0,000 mm 0,0 UV-I 46 W/m² 13,9 °C 14,9 °C 4,8 km/h (1 Bft)
02.07.2019 06:30 15,0 °C 94 % 1016,1 hPa 0,0 mm 0,6 km/h (0 Bft) S 183 ° 0 min 0,000 mm 0,0 UV-I 46 W/m² 14,0 °C 15,0 °C 3,2 km/h (1 Bft)
02.07.2019 06:31 14,9 °C 94 % 1016,0 hPa 0,0 mm 0,1 km/h (0 Bft) S 183 ° 0 min 0,000 mm 0,0 UV-I 44 W/m² 13,9 °C 14,9 °C 1,6 km/h (1 Bft)
02.07.2019 06:32 15,0 °C 94 % 1015,9 hPa 0,0 mm 0,0 km/h (0 Bft) S 183 ° 0 min 0,000 mm 0,0 UV-I 40 W/m² 14,0 °C 15,0 °C 0,0 km/h (0 Bft)
02.07.2019 06:33 15,0 °C 94 % 1016,0 hPa 0,0 mm 0,0 km/h (0 Bft) S 183 ° 0 min 0,000 mm 0,0 UV-I 39 W/m² 14,0 °C 15,0 °C 0,0 km/h (0 Bft)
02.07.2019 06:34 15,0 °C 94 % 1016,0 hPa 0,0 mm 0,0 km/h (0 Bft) S 183 ° 0 min 0,000 mm 0,0 UV-I 35 W/m² 14,0 °C 15,0 °C 0,0 km/h (0 Bft)
02.07.2019 06:35 15,0 °C 94 % 1016,0 hPa 0,0 mm 0,0 km/h (0 Bft) S 183 ° 0 min 0,000 mm 0,0 UV-I 33 W/m² 14,0 °C 15,0 °C 0,0 km/h (0 Bft)
02.07.2019 06:36 15,0 °C 94 % 1016,0 hPa 0,0 mm 0,0 km/h (0 Bft) S 183 ° 0 min 0,000 mm 0,0 UV-I 32 W/m² 14,0 °C 15,0 °C 0,0 km/h (0 Bft)
02.07.2019 06:37 15,0 °C 94 % 1016,0 hPa 0,0 mm 1,3 km/h (1 Bft) S 182 ° 0 min 0,000 mm 0,0 UV-I 32 W/m² 14,0 °C 15,0 °C 3,2 km/h (1 Bft)
02.07.2019 06:38 14,9 °C 94 % 1015,9 hPa 0,0 mm 1,5 km/h (1 Bft) S 182 ° 0 min 0,000 mm 0,0 UV-I 32 W/m² 13,9 °C 14,9 °C 3,2 km/h (1 Bft)
02.07.2019 06:39 14,9 °C 94 % 1015,9 hPa 0,0 mm 0,7 km/h (0 Bft) S 182 ° 0 min 0,000 mm 0,0 UV-I 30 W/m² 13,9 °C 14,9 °C 1,6 km/h (1 Bft)
02.07.2019 06:40 14,9 °C 94 % 1015,9 hPa 0,0 mm 0,3 km/h (0 Bft) S 182 ° 0 min 0,000 mm 0,0 UV-I 30 W/m² 13,9 °C 14,9 °C 1,6 km/h (1 Bft)
02.07.2019 06:41 14,9 °C 94 % 1015,8 hPa 0,0 mm 0,0 km/h (0 Bft) S 182 ° 0 min 0,000 mm 0,0 UV-I 28 W/m² 13,9 °C 14,9 °C 0,0 km/h (0 Bft)
02.07.2019 06:42 15,0 °C 94 % 1015,8 hPa 0,0 mm 0,0 km/h (0 Bft) S 182 ° 0 min 0,000 mm 0,0 UV-I 28 W/m² 14,0 °C 15,0 °C 0,0 km/h (0 Bft)
02.07.2019 06:43 15,0 °C 94 % 1015,8 hPa 0,0 mm 1,7 km/h (1 Bft) S 182 ° 0 min 0,000 mm 0,0 UV-I 26 W/m² 14,0 °C 15,0 °C 3,2 km/h (1 Bft)
02.07.2019 06:44 14,9 °C 94 % 1015,7 hPa 0,0 mm 0,3 km/h (0 Bft) S 182 ° 0 min 0,000 mm 0,0 UV-I 26 W/m² 13,9 °C 14,9 °C 1,6 km/h (1 Bft)
02.07.2019 06:45 15,0 °C 94 % 1015,7 hPa 0,0 mm 0,0 km/h (0 Bft) S 182 ° 0 min 0,000 mm 0,0 UV-I 26 W/m² 14,0 °C 15,0 °C 0,0 km/h (0 Bft)
02.07.2019 06:46 15,0 °C 94 % 1015,7 hPa 0,0 mm 0,0 km/h (0 Bft) S 182 ° 0 min 0,000 mm 0,0 UV-I 26 W/m² 14,0 °C 15,0 °C 0,0 km/h (0 Bft)
02.07.2019 06:47 15,0 °C 94 % 1015,7 hPa 0,0 mm 0,0 km/h (0 Bft) S 182 ° 0 min 0,000 mm 0,0 UV-I 26 W/m² 14,0 °C 15,0 °C 0,0 km/h (0 Bft)
02.07.2019 06:48 15,0 °C 94 % 1015,7 hPa 0,0 mm 0,0 km/h (0 Bft) S 182 ° 0 min 0,000 mm 0,0 UV-I 26 W/m² 14,0 °C 15,0 °C 0,0 km/h (0 Bft)
02.07.2019 06:49 15,0 °C 94 % 1015,7 hPa 0,0 mm 0,0 km/h (0 Bft) S 182 ° 0 min 0,000 mm 0,0 UV-I 26 W/m² 14,0 °C 15,0 °C 0,0 km/h (0 Bft)
02.07.2019 06:50 14,9 °C 94 % 1015,7 hPa 0,0 mm 0,0 km/h (0 Bft) S 182 ° 0 min 0,000 mm 0,0 UV-I 30 W/m² 13,9 °C 14,9 °C 0,0 km/h (0 Bft)
02.07.2019 06:51 15,0 °C 94 % 1015,6 hPa 0,0 mm 0,0 km/h (0 Bft) S 182 ° 0 min 0,000 mm 0,0 UV-I 32 W/m² 14,0 °C 15,0 °C 0,0 km/h (0 Bft)
02.07.2019 06:52 14,9 °C 94 % 1015,7 hPa 0,0 mm 0,0 km/h (0 Bft) S 182 ° 0 min 0,000 mm 0,0 UV-I 33 W/m² 13,9 °C 14,9 °C 0,0 km/h (0 Bft)
02.07.2019 06:53 15,0 °C 94 % 1015,7 hPa 0,0 mm 0,0 km/h (0 Bft) S 183 ° 0 min 0,000 mm 0,0 UV-I 33 W/m² 14,0 °C 15,0 °C 0,0 km/h (0 Bft)
02.07.2019 06:54 15,0 °C 94 % 1015,7 hPa 0,0 mm 0,4 km/h (0 Bft) S-SW 195 ° 0 min 0,000 mm 0,0 UV-I 35 W/m² 14,0 °C 15,0 °C 1,6 km/h (1 Bft)
02.07.2019 06:55 15,0 °C 94 % 1015,7 hPa 0,0 mm 0,3 km/h (0 Bft) S-SW 195 ° 0 min 0,000 mm 0,0 UV-I 37 W/m² 14,0 °C 15,0 °C 3,2 km/h (1 Bft)
02.07.2019 06:56 15,0 °C 94 % 1015,7 hPa 0,0 mm 1,1 km/h (1 Bft) S-SW 195 ° 0 min 0,000 mm 0,0 UV-I 39 W/m² 14,0 °C 15,0 °C 1,6 km/h (1 Bft)
02.07.2019 06:57 15,0 °C 94 % 1015,7 hPa 0,0 mm 0,0 km/h (0 Bft) S-SW 195 ° 0 min 0,000 mm 0,0 UV-I 42 W/m² 14,0 °C 15,0 °C 0,0 km/h (0 Bft)
02.07.2019 06:58 15,0 °C 94 % 1015,6 hPa 0,0 mm 0,3 km/h (0 Bft) S-SW 195 ° 0 min 0,000 mm 0,0 UV-I 42 W/m² 14,0 °C 15,0 °C 1,6 km/h (1 Bft)
02.07.2019 06:59 15,0 °C 94 % 1015,6 hPa 0,0 mm 0,4 km/h (0 Bft) S-SW 195 ° 0 min 0,000 mm 0,0 UV-I 42 W/m² 14,0 °C 15,0 °C 1,6 km/h (1 Bft)
02.07.2019 07:00 14,9 °C 94 % 1015,6 hPa 0,0 mm 0,6 km/h (0 Bft) S-SW 195 ° 0 min 0,000 mm 0,0 UV-I 44 W/m² 13,9 °C 14,9 °C 1,6 km/h (1 Bft)
02.07.2019 07:01 14,9 °C 94 % 1015,6 hPa 0,0 mm 0,0 km/h (0 Bft) S-SW 195 ° 0 min 0,025 mm 0,0 UV-I 44 W/m² 13,9 °C 14,9 °C 0,0 km/h (0 Bft)
02.07.2019 07:02 15,0 °C 94 % 1015,7 hPa 0,0 mm 0,0 km/h (0 Bft) S-SW 195 ° 0 min 0,000 mm 0,0 UV-I 44 W/m² 14,0 °C 15,0 °C 0,0 km/h (0 Bft)
02.07.2019 07:03 14,9 °C 94 % 1015,7 hPa 0,0 mm 0,0 km/h (0 Bft) S-SW 195 ° 0 min 0,000 mm 0,0 UV-I 44 W/m² 13,9 °C 14,9 °C 0,0 km/h (0 Bft)
02.07.2019 07:04 14,9 °C 94 % 1015,7 hPa 0,0 mm 0,0 km/h (0 Bft) S-SW 195 ° 0 min 0,000 mm 0,0 UV-I 46 W/m² 13,9 °C 14,9 °C 0,0 km/h (0 Bft)
02.07.2019 07:05 14,9 °C 94 % 1015,7 hPa 0,0 mm 0,0 km/h (0 Bft) S-SW 195 ° 0 min 0,000 mm 0,0 UV-I 46 W/m² 13,9 °C 14,9 °C 0,0 km/h (0 Bft)
02.07.2019 07:06 14,9 °C 94 % 1015,7 hPa 0,0 mm 0,0 km/h (0 Bft) S-SW 195 ° 0 min 0,000 mm 0,0 UV-I 46 W/m² 13,9 °C 14,9 °C 0,0 km/h (0 Bft)
02.07.2019 07:07 14,9 °C 94 % 1015,7 hPa 0,0 mm 0,0 km/h (0 Bft) S-SW 195 ° 0 min 0,000 mm 0,0 UV-I 47 W/m² 13,9 °C 14,9 °C 0,0 km/h (0 Bft)
02.07.2019 07:08 15,0 °C 94 % 1015,7 hPa 0,0 mm 0,0 km/h (0 Bft) S-SW 195 ° 0 min 0,000 mm 0,0 UV-I 47 W/m² 14,0 °C 15,0 °C 0,0 km/h (0 Bft)
02.07.2019 07:09 15,0 °C 94 % 1015,7 hPa 0,0 mm 0,0 km/h (0 Bft) S-SW 195 ° 0 min 0,000 mm 0,0 UV-I 47 W/m² 14,0 °C 15,0 °C 0,0 km/h (0 Bft)
02.07.2019 07:10 15,0 °C 94 % 1015,7 hPa 0,0 mm 0,0 km/h (0 Bft) S-SW 195 ° 0 min 0,000 mm 0,0 UV-I 47 W/m² 14,0 °C 15,0 °C 0,0 km/h (0 Bft)
02.07.2019 07:11 14,9 °C 94 % 1015,7 hPa 0,0 mm 0,0 km/h (0 Bft) S-SW 195 ° 0 min 0,000 mm 0,0 UV-I 47 W/m² 13,9 °C 14,9 °C 0,0 km/h (0 Bft)
02.07.2019 07:12 15,0 °C 94 % 1015,6 hPa 0,0 mm 0,3 km/h (0 Bft) S-SW 192 ° 0 min 0,000 mm 0,0 UV-I 47 W/m² 14,0 °C 15,0 °C 1,6 km/h (1 Bft)
02.07.2019 07:13 15,0 °C 94 % 1015,6 hPa 0,0 mm 0,0 km/h (0 Bft) S-SW 192 ° 0 min 0,000 mm 0,0 UV-I 47 W/m² 14,0 °C 15,0 °C 0,0 km/h (0 Bft)
02.07.2019 07:14 15,0 °C 94 % 1015,6 hPa 0,0 mm 0,0 km/h (0 Bft) S-SW 192 ° 0 min 0,000 mm 0,0 UV-I 47 W/m² 14,0 °C 15,0 °C 0,0 km/h (0 Bft)
02.07.2019 07:15 15,0 °C 94 % 1015,6 hPa 0,0 mm 0,0 km/h (0 Bft) S-SW 192 ° 0 min 0,000 mm 0,0 UV-I 47 W/m² 14,0 °C 15,0 °C 0,0 km/h (0 Bft)
02.07.2019 07:16 15,0 °C 94 % 1015,7 hPa 0,0 mm 0,0 km/h (0 Bft) S-SW 192 ° 0 min 0,000 mm 0,0 UV-I 47 W/m² 14,0 °C 15,0 °C 0,0 km/h (0 Bft)
02.07.2019 07:17 15,0 °C 94 % 1015,7 hPa 0,0 mm 0,0 km/h (0 Bft) S-SW 192 ° 0 min 0,000 mm 0,0 UV-I 49 W/m² 14,0 °C 15,0 °C 0,0 km/h (0 Bft)
02.07.2019 07:18 15,1 °C 94 % 1015,7 hPa 0,0 mm 0,0 km/h (0 Bft) S-SW 192 ° 0 min 0,000 mm 0,0 UV-I 49 W/m² 14,1 °C 15,1 °C 0,0 km/h (0 Bft)
02.07.2019 07:19 15,1 °C 94 % 1015,7 hPa 0,0 mm 0,0 km/h (0 Bft) S-SW 192 ° 0 min 0,000 mm 0,0 UV-I 54 W/m² 14,1 °C 15,1 °C 0,0 km/h (0 Bft)
02.07.2019 07:20 15,1 °C 94 % 1015,7 hPa 0,0 mm 0,0 km/h (0 Bft) S-SW 192 ° 0 min 0,000 mm 0,6 UV-I 58 W/m² 14,1 °C 15,1 °C 0,0 km/h (0 Bft)
02.07.2019 07:21 15,1 °C 94 % 1015,8 hPa 0,0 mm 0,0 km/h (0 Bft) S-SW 192 ° 0 min 0,000 mm 0,6 UV-I 63 W/m² 14,1 °C 15,1 °C 0,0 km/h (0 Bft)
02.07.2019 07:22 15,1 °C 94 % 1015,7 hPa 0,0 mm 0,0 km/h (0 Bft) S-SW 192 ° 0 min 0,000 mm 0,6 UV-I 70 W/m² 14,1 °C 15,1 °C 0,0 km/h (0 Bft)
02.07.2019 07:23 15,2 °C 94 % 1015,8 hPa 0,0 mm 0,0 km/h (0 Bft) S-SW 192 ° 0 min 0,000 mm 0,6 UV-I 79 W/m² 14,2 °C 15,2 °C 0,0 km/h (0 Bft)
02.07.2019 07:24 15,2 °C 94 % 1015,7 hPa 0,0 mm 0,0 km/h (0 Bft) S-SW 192 ° 0 min 0,000 mm 0,6 UV-I 88 W/m² 14,2 °C 15,2 °C 0,0 km/h (0 Bft)
02.07.2019 07:25 15,2 °C 94 % 1015,7 hPa 0,0 mm 0,0 km/h (0 Bft) S-SW 192 ° 0 min 0,000 mm 0,7 UV-I 102 W/m² 14,2 °C 15,2 °C 0,0 km/h (0 Bft)
02.07.2019 07:26 15,2 °C 94 % 1015,8 hPa 0,0 mm 0,0 km/h (0 Bft) S-SW 192 ° 0 min 0,000 mm 0,7 UV-I 107 W/m² 14,2 °C 15,2 °C 0,0 km/h (0 Bft)
02.07.2019 07:27 15,2 °C 94 % 1015,8 hPa 0,0 mm 0,0 km/h (0 Bft) S-SW 192 ° 0 min 0,000 mm 0,7 UV-I 109 W/m² 14,2 °C 15,2 °C 0,0 km/h (0 Bft)
02.07.2019 07:28 15,2 °C 94 % 1015,8 hPa 0,0 mm 0,0 km/h (0 Bft) S-SW 192 ° 0 min 0,000 mm 0,7 UV-I 107 W/m² 14,2 °C 15,2 °C 0,0 km/h (0 Bft)
02.07.2019 07:29 15,2 °C 94 % 1015,8 hPa 0,0 mm 0,0 km/h (0 Bft) S-SW 192 ° 0 min 0,000 mm 0,7 UV-I 107 W/m² 14,2 °C 15,2 °C 0,0 km/h (0 Bft)
02.07.2019 07:30 15,3 °C 94 % 1015,8 hPa 0,0 mm 0,0 km/h (0 Bft) S-SW 192 ° 0 min 0,000 mm 0,7 UV-I 111 W/m² 14,3 °C 15,3 °C 0,0 km/h (0 Bft)
02.07.2019 07:31 15,3 °C 94 % 1015,8 hPa 0,0 mm 0,0 km/h (0 Bft) S-SW 192 ° 0 min 0,000 mm 0,7 UV-I 114 W/m² 14,3 °C 15,3 °C 0,0 km/h (0 Bft)
02.07.2019 07:32 15,3 °C 94 % 1015,7 hPa 0,0 mm 0,0 km/h (0 Bft) S-SW 192 ° 0 min 0,000 mm 0,7 UV-I 114 W/m² 14,3 °C 15,3 °C 0,0 km/h (0 Bft)
02.07.2019 07:33 15,3 °C 94 % 1015,7 hPa 0,0 mm 0,0 km/h (0 Bft) S-SW 192 ° 0 min 0,000 mm 0,8 UV-I 116 W/m² 14,3 °C 15,3 °C 0,0 km/h (0 Bft)
02.07.2019 07:34 15,3 °C 94 % 1015,7 hPa 0,0 mm 0,0 km/h (0 Bft) S-SW 192 ° 0 min 0,000 mm 0,8 UV-I 118 W/m² 14,3 °C 15,3 °C 0,0 km/h (0 Bft)
02.07.2019 07:35 15,3 °C 94 % 1015,6 hPa 0,0 mm 0,0 km/h (0 Bft) S-SW 192 ° 0 min 0,000 mm 0,8 UV-I 118 W/m² 14,3 °C 15,3 °C 0,0 km/h (0 Bft)
02.07.2019 07:36 15,3 °C 94 % 1015,6 hPa 0,0 mm 0,0 km/h (0 Bft) S-SW 192 ° 0 min 0,000 mm 0,8 UV-I 118 W/m² 14,3 °C 15,3 °C 0,0 km/h (0 Bft)
02.07.2019 07:37 15,3 °C 94 % 1015,5 hPa 0,0 mm 0,0 km/h (0 Bft) S-SW 192 ° 0 min 0,000 mm 0,8 UV-I 120 W/m² 14,3 °C 15,3 °C 0,0 km/h (0 Bft)
02.07.2019 07:38 15,3 °C 94 % 1015,5 hPa 0,0 mm 0,0 km/h (0 Bft) S-SW 192 ° 0 min 0,000 mm 0,8 UV-I 120 W/m² 14,3 °C 15,3 °C 0,0 km/h (0 Bft)
02.07.2019 07:39 15,4 °C 94 % 1015,5 hPa 0,0 mm 0,0 km/h (0 Bft) S-SW 192 ° 0 min 0,000 mm 0,8 UV-I 120 W/m² 14,4 °C 15,4 °C 0,0 km/h (0 Bft)
02.07.2019 07:40 15,4 °C 94 % 1015,5 hPa 0,0 mm 0,0 km/h (0 Bft) S-SW 192 ° 0 min 0,000 mm 0,8 UV-I 120 W/m² 14,4 °C 15,4 °C 0,0 km/h (0 Bft)
02.07.2019 07:41 15,5 °C 94 % 1015,4 hPa 0,0 mm 0,0 km/h (0 Bft) S-SW 192 ° 0 min 0,000 mm 0,8 UV-I 121 W/m² 14,5 °C 15,5 °C 0,0 km/h (0 Bft)
02.07.2019 07:42 15,5 °C 94 % 1015,5 hPa 0,0 mm 0,0 km/h (0 Bft) S-SW 192 ° 0 min 0,000 mm 0,8 UV-I 123 W/m² 14,5 °C 15,5 °C 0,0 km/h (0 Bft)
02.07.2019 07:43 15,6 °C 94 % 1015,5 hPa 0,0 mm 0,0 km/h (0 Bft) S-SW 192 ° 0 min 0,000 mm 0,8 UV-I 127 W/m² 14,6 °C 15,6 °C 0,0 km/h (0 Bft)
02.07.2019 07:44 15,6 °C 94 % 1015,5 hPa 0,0 mm 0,0 km/h (0 Bft) S-SW 192 ° 0 min 0,000 mm 0,8 UV-I 125 W/m² 14,6 °C 15,6 °C 0,0 km/h (0 Bft)
02.07.2019 07:45 15,7 °C 94 % 1015,5 hPa 0,0 mm 0,0 km/h (0 Bft) S-SW 192 ° 0 min 0,000 mm 0,8 UV-I 123 W/m² 14,7 °C 15,7 °C 0,0 km/h (0 Bft)
02.07.2019 07:46 15,7 °C 95 % 1015,5 hPa 0,0 mm 0,0 km/h (0 Bft) S-SW 192 ° 0 min 0,000 mm 0,8 UV-I 118 W/m² 14,9 °C 15,7 °C 0,0 km/h (0 Bft)
02.07.2019 07:47 15,7 °C 94 % 1015,5 hPa 0,0 mm 0,0 km/h (0 Bft) S-SW 192 ° 0 min 0,000 mm 0,7 UV-I 109 W/m² 14,7 °C 15,7 °C 0,0 km/h (0 Bft)
02.07.2019 07:48 15,8 °C 94 % 1015,5 hPa 0,0 mm 0,0 km/h (0 Bft) S-SW 192 ° 0 min 0,000 mm 0,7 UV-I 100 W/m² 14,8 °C 15,8 °C 0,0 km/h (0 Bft)
02.07.2019 07:49 15,8 °C 94 % 1015,5 hPa 0,0 mm 0,0 km/h (0 Bft) S-SW 192 ° 0 min 0,000 mm 0,7 UV-I 84 W/m² 14,8 °C 15,8 °C 0,0 km/h (0 Bft)
02.07.2019 07:50 15,8 °C 94 % 1015,6 hPa 0,0 mm 0,0 km/h (0 Bft) S-SW 192 ° 0 min 0,000 mm 0,7 UV-I 79 W/m² 14,8 °C 15,8 °C 0,0 km/h (0 Bft)
02.07.2019 07:51 15,8 °C 94 % 1015,6 hPa 0,0 mm 0,0 km/h (0 Bft) S-SW 192 ° 0 min 0,000 mm 0,7 UV-I 77 W/m² 14,8 °C 15,8 °C 0,0 km/h (0 Bft)
02.07.2019 07:52 15,9 °C 94 % 1015,6 hPa 0,0 mm 0,0 km/h (0 Bft) S-SW 194 ° 0 min 0,000 mm 0,7 UV-I 76 W/m² 14,9 °C 15,9 °C 0,0 km/h (0 Bft)
02.07.2019 07:53 15,9 °C 94 % 1015,6 hPa 0,0 mm 0,0 km/h (0 Bft) S-SW 193 ° 0 min 0,000 mm 0,7 UV-I 74 W/m² 14,9 °C 15,9 °C 0,0 km/h (0 Bft)
02.07.2019 07:54 15,9 °C 94 % 1015,6 hPa 0,0 mm 0,0 km/h (0 Bft) S-SW 193 ° 0 min 0,000 mm 0,7 UV-I 77 W/m² 14,9 °C 15,9 °C 0,0 km/h (0 Bft)
02.07.2019 07:55 15,9 °C 94 % 1015,6 hPa 0,0 mm 0,0 km/h (0 Bft) S-SW 193 ° 0 min 0,000 mm 0,8 UV-I 77 W/m² 14,9 °C 15,9 °C 0,0 km/h (0 Bft)
02.07.2019 07:56 15,9 °C 94 % 1015,6 hPa 0,0 mm 0,0 km/h (0 Bft) S-SW 193 ° 0 min 0,000 mm 0,8 UV-I 79 W/m² 14,9 °C 15,9 °C 0,0 km/h (0 Bft)
02.07.2019 07:57 15,8 °C 94 % 1015,6 hPa 0,0 mm 1,7 km/h (1 Bft) W-NW 289 ° 0 min 0,000 mm 0,8 UV-I 81 W/m² 14,8 °C 15,8 °C 4,8 km/h (1 Bft)
02.07.2019 07:58 15,8 °C 94 % 1015,6 hPa 0,0 mm 2,3 km/h (1 Bft) W-NW 286 ° 0 min 0,000 mm 0,8 UV-I 84 W/m² 14,8 °C 15,8 °C 4,8 km/h (1 Bft)
02.07.2019 07:59 15,8 °C 93 % 1015,6 hPa 0,0 mm 1,0 km/h (0 Bft) W-NW 286 ° 0 min 0,000 mm 0,9 UV-I 90 W/m² 14,7 °C 15,8 °C 3,2 km/h (1 Bft)
02.07.2019 08:00 15,8 °C 93 % 1015,7 hPa 0,0 mm 0,3 km/h (0 Bft) W-NW 286 ° 0 min 0,051 mm 0,9 UV-I 97 W/m² 14,7 °C 15,8 °C 3,2 km/h (1 Bft)
02.07.2019 08:01 15,8 °C 93 % 1015,7 hPa 0,0 mm 0,0 km/h (0 Bft) W-NW 286 ° 0 min 0,000 mm 0,9 UV-I 98 W/m² 14,7 °C 15,8 °C 0,0 km/h (0 Bft)
02.07.2019 08:02 15,8 °C 93 % 1015,8 hPa 0,0 mm 0,0 km/h (0 Bft) W-NW 286 ° 0 min 0,000 mm 0,9 UV-I 102 W/m² 14,7 °C 15,8 °C 0,0 km/h (0 Bft)
02.07.2019 08:03 15,8 °C 93 % 1015,8 hPa 0,0 mm 0,0 km/h (0 Bft) W-NW 286 ° 0 min 0,000 mm 0,9 UV-I 105 W/m² 14,7 °C 15,8 °C 0,0 km/h (0 Bft)
02.07.2019 08:04 15,8 °C 93 % 1015,8 hPa 0,0 mm 0,0 km/h (0 Bft) W-NW 286 ° 0 min 0,000 mm 0,9 UV-I 113 W/m² 14,7 °C 15,8 °C 0,0 km/h (0 Bft)
02.07.2019 08:05 15,8 °C 93 % 1015,8 hPa 0,0 mm 0,0 km/h (0 Bft) W-NW 286 ° 0 min 0,000 mm 0,9 UV-I 121 W/m² 14,7 °C 15,8 °C 0,0 km/h (0 Bft)
02.07.2019 08:06 15,8 °C 93 % 1015,8 hPa 0,0 mm 0,1 km/h (0 Bft) W-NW 286 ° 0 min 0,000 mm 0,9 UV-I 135 W/m² 14,7 °C 15,8 °C 1,6 km/h (1 Bft)
02.07.2019 08:07 15,8 °C 93 % 1015,9 hPa 0,0 mm 1,2 km/h (1 Bft) W-NW 286 ° 0 min 0,000 mm 0,9 UV-I 141 W/m² 14,7 °C 15,8 °C 3,2 km/h (1 Bft)
02.07.2019 08:08 15,9 °C 93 % 1015,9 hPa 0,0 mm 0,0 km/h (0 Bft) W-NW 286 ° 0 min 0,000 mm 1,0 UV-I 142 W/m² 14,8 °C 15,9 °C 0,0 km/h (0 Bft)
02.07.2019 08:09 15,9 °C 93 % 1015,9 hPa 0,0 mm 0,0 km/h (0 Bft) W-NW 286 ° 0 min 0,000 mm 1,0 UV-I 146 W/m² 14,8 °C 15,9 °C 0,0 km/h (0 Bft)
02.07.2019 08:10 15,9 °C 93 % 1015,8 hPa 0,0 mm 0,0 km/h (0 Bft) W-NW 286 ° 0 min 0,000 mm 1,0 UV-I 148 W/m² 14,8 °C 15,9 °C 0,0 km/h (0 Bft)
02.07.2019 08:11 15,9 °C 93 % 1015,9 hPa 0,0 mm 0,0 km/h (0 Bft) W-NW 286 ° 0 min 0,000 mm 1,0 UV-I 148 W/m² 14,8 °C 15,9 °C 0,0 km/h (0 Bft)
02.07.2019 08:12 16,0 °C 93 % 1015,8 hPa 0,0 mm 0,0 km/h (0 Bft) W-NW 286 ° 0 min 0,000 mm 1,0 UV-I 151 W/m² 14,9 °C 16,0 °C 0,0 km/h (0 Bft)
02.07.2019 08:13 16,0 °C 92 % 1015,9 hPa 0,0 mm 0,0 km/h (0 Bft) W-NW 286 ° 0 min 0,000 mm 1,0 UV-I 156 W/m² 14,7 °C 16,0 °C 0,0 km/h (0 Bft)
02.07.2019 08:14 16,1 °C 92 % 1015,9 hPa 0,0 mm 0,0 km/h (0 Bft) W-NW 286 ° 0 min 0,000 mm 1,1 UV-I 158 W/m² 14,8 °C 16,1 °C 0,0 km/h (0 Bft)
02.07.2019 08:15 16,2 °C 93 % 1015,8 hPa 0,0 mm 0,0 km/h (0 Bft) W-NW 286 ° 0 min 0,000 mm 1,1 UV-I 158 W/m² 15,1 °C 16,2 °C 0,0 km/h (0 Bft)
02.07.2019 08:16 16,2 °C 92 % 1015,9 hPa 0,0 mm 0,0 km/h (0 Bft) W-NW 286 ° 0 min 0,000 mm 1,1 UV-I 158 W/m² 14,9 °C 16,2 °C 0,0 km/h (0 Bft)
02.07.2019 08:17 16,2 °C 92 % 1016,0 hPa 0,0 mm 0,0 km/h (0 Bft) W-NW 286 ° 0 min 0,000 mm 1,1 UV-I 153 W/m² 14,9 °C 16,2 °C 0,0 km/h (0 Bft)
02.07.2019 08:18 16,2 °C 92 % 1016,1 hPa 0,0 mm 0,0 km/h (0 Bft) W-NW 286 ° 0 min 0,000 mm 1,1 UV-I 149 W/m² 14,9 °C 16,2 °C 0,0 km/h (0 Bft)
02.07.2019 08:19 16,3 °C 92 % 1016,0 hPa 0,0 mm 0,3 km/h (0 Bft) W-NW 286 ° 0 min 0,000 mm 1,1 UV-I 149 W/m² 15,0 °C 16,3 °C 1,6 km/h (1 Bft)
02.07.2019 08:20 16,3 °C 93 % 1016,1 hPa 0,0 mm 0,0 km/h (0 Bft) W-NW 286 ° 0 min 0,000 mm 1,1 UV-I 148 W/m² 15,2 °C 16,3 °C 0,0 km/h (0 Bft)
02.07.2019 08:21 16,3 °C 92 % 1016,0 hPa 0,0 mm 0,0 km/h (0 Bft) W-NW 286 ° 0 min 0,000 mm 1,1 UV-I 148 W/m² 15,0 °C 16,3 °C 0,0 km/h (0 Bft)
02.07.2019 08:22 16,4 °C 92 % 1016,1 hPa 0,0 mm 0,0 km/h (0 Bft) W-NW 286 ° 0 min 0,000 mm 1,2 UV-I 149 W/m² 15,1 °C 16,4 °C 0,0 km/h (0 Bft)
02.07.2019 08:23 16,4 °C 93 % 1016,1 hPa 0,0 mm 0,0 km/h (0 Bft) W-NW 286 ° 0 min 0,000 mm 1,2 UV-I 155 W/m² 15,3 °C 16,4 °C 0,0 km/h (0 Bft)
02.07.2019 08:24 16,6 °C 93 % 1016,1 hPa 0,0 mm 0,0 km/h (0 Bft) W-NW 286 ° 0 min 0,000 mm 1,3 UV-I 169 W/m² 15,5 °C 16,6 °C 0,0 km/h (0 Bft)
02.07.2019 08:25 16,6 °C 93 % 1016,1 hPa 0,0 mm 0,0 km/h (0 Bft) W-NW 286 ° 0 min 0,000 mm 1,6 UV-I 169 W/m² 15,5 °C 16,6 °C 0,0 km/h (0 Bft)
02.07.2019 08:26 16,6 °C 92 % 1016,1 hPa 0,0 mm 0,0 km/h (0 Bft) W-NW 286 ° 0 min 0,000 mm 1,3 UV-I 172 W/m² 15,3 °C 16,6 °C 0,0 km/h (0 Bft)
02.07.2019 08:27 16,6 °C 92 % 1016,1 hPa 0,0 mm 0,0 km/h (0 Bft) W-NW 286 ° 0 min 0,000 mm 1,3 UV-I 174 W/m² 15,3 °C 16,6 °C 0,0 km/h (0 Bft)
02.07.2019 08:28 16,6 °C 92 % 1016,1 hPa 0,0 mm 0,0 km/h (0 Bft) W-NW 286 ° 0 min 0,000 mm 1,3 UV-I 183 W/m² 15,3 °C 16,6 °C 0,0 km/h (0 Bft)
02.07.2019 08:29 16,6 °C 92 % 1016,2 hPa 0,0 mm 0,0 km/h (0 Bft) W-NW 286 ° 0 min 0,000 mm 1,5 UV-I 183 W/m² 15,3 °C 16,6 °C 0,0 km/h (0 Bft)
02.07.2019 08:30 16,6 °C 92 % 1016,2 hPa 0,0 mm 0,0 km/h (0 Bft) W-NW 286 ° 0 min 0,000 mm 1,5 UV-I 311 W/m² 15,3 °C 16,6 °C 0,0 km/h (0 Bft)
02.07.2019 08:31 16,7 °C 93 % 1016,1 hPa 0,0 mm 0,0 km/h (0 Bft) W-NW 286 ° 0 min 0,000 mm 1,4 UV-I 311 W/m² 15,6 °C 16,7 °C 0,0 km/h (0 Bft)
02.07.2019 08:32 16,8 °C 93 % 1016,1 hPa 0,0 mm 0,0 km/h (0 Bft) W-NW 286 ° 0 min 0,000 mm 1,4 UV-I 169 W/m² 15,7 °C 16,8 °C 0,0 km/h (0 Bft)
02.07.2019 08:33 16,8 °C 93 % 1016,1 hPa 0,0 mm 0,0 km/h (0 Bft) W-NW 286 ° 0 min 0,000 mm 1,5 UV-I 174 W/m² 15,7 °C 16,8 °C 0,0 km/h (0 Bft)
02.07.2019 08:34 16,8 °C 93 % 1016,1 hPa 0,0 mm 0,0 km/h (0 Bft) W-NW 286 ° 0 min 0,000 mm 1,5 UV-I 200 W/m² 15,7 °C 16,8 °C 0,0 km/h (0 Bft)
02.07.2019 08:35 16,7 °C 92 % 1016,1 hPa 0,0 mm 0,0 km/h (0 Bft) W-NW 286 ° 0 min 0,000 mm 1,6 UV-I 258 W/m² 15,4 °C 16,7 °C 0,0 km/h (0 Bft)
02.07.2019 08:36 16,8 °C 92 % 1016,1 hPa 0,0 mm 0,0 km/h (0 Bft) W-NW 286 ° 0 min 0,000 mm 1,7 UV-I 258 W/m² 15,5 °C 16,8 °C 0,0 km/h (0 Bft)
02.07.2019 08:37 16,8 °C 92 % 1016,1 hPa 0,0 mm 0,0 km/h (0 Bft) W 265 ° 0 min 0,000 mm 1,9 UV-I 281 W/m² 15,5 °C 16,8 °C 0,0 km/h (0 Bft)
02.07.2019 08:38 16,8 °C 92 % 1016,1 hPa 0,0 mm 0,0 km/h (0 Bft) W 265 ° 0 min 0,000 mm 1,8 UV-I 267 W/m² 15,5 °C 16,8 °C 0,0 km/h (0 Bft)
02.07.2019 08:39 16,9 °C 92 % 1016,0 hPa 0,0 mm 0,0 km/h (0 Bft) W 265 ° 0 min 0,000 mm 1,8 UV-I 267 W/m² 15,6 °C 16,9 °C 0,0 km/h (0 Bft)
02.07.2019 08:40 17,0 °C 91 % 1016,1 hPa 0,0 mm 0,0 km/h (0 Bft) S-SO 155 ° 0 min 0,000 mm 1,8 UV-I 330 W/m² 15,5 °C 17,0 °C 0,0 km/h (0 Bft)
02.07.2019 08:41 17,1 °C 91 % 1016,1 hPa 0,0 mm 0,0 km/h (0 Bft) S-SO 155 ° 0 min 0,000 mm 1,8 UV-I 264 W/m² 15,6 °C 17,1 °C 0,0 km/h (0 Bft)
02.07.2019 08:42 17,2 °C 91 % 1016,1 hPa 0,0 mm 0,0 km/h (0 Bft) S-SO 155 ° 0 min 0,000 mm 1,6 UV-I 216 W/m² 15,7 °C 17,2 °C 0,0 km/h (0 Bft)
02.07.2019 08:43 17,2 °C 90 % 1016,1 hPa 0,0 mm 0,0 km/h (0 Bft) S-SO 155 ° 0 min 0,000 mm 1,5 UV-I 199 W/m² 15,5 °C 17,2 °C 0,0 km/h (0 Bft)
02.07.2019 08:44 17,3 °C 90 % 1016,0 hPa 0,0 mm 0,0 km/h (0 Bft) S-SO 155 ° 0 min 0,000 mm 1,6 UV-I 195 W/m² 15,6 °C 17,3 °C 0,0 km/h (0 Bft)
02.07.2019 08:45 17,3 °C 91 % 1016,1 hPa 0,0 mm 0,0 km/h (0 Bft) S-SO 155 ° 0 min 0,000 mm 1,6 UV-I 200 W/m² 15,8 °C 17,3 °C 0,0 km/h (0 Bft)
02.07.2019 08:46 17,2 °C 90 % 1016,1 hPa 0,0 mm 0,0 km/h (0 Bft) S-SO 155 ° 0 min 0,000 mm 1,6 UV-I 211 W/m² 15,5 °C 17,2 °C 0,0 km/h (0 Bft)
02.07.2019 08:47 17,3 °C 91 % 1016,1 hPa 0,0 mm 0,0 km/h (0 Bft) S-SO 155 ° 0 min 0,000 mm 1,7 UV-I 234 W/m² 15,8 °C 17,3 °C 0,0 km/h (0 Bft)
02.07.2019 08:48 17,3 °C 91 % 1016,0 hPa 0,0 mm 0,0 km/h (0 Bft) S-SO 155 ° 0 min 0,000 mm 1,8 UV-I 244 W/m² 15,8 °C 17,3 °C 0,0 km/h (0 Bft)
02.07.2019 08:49 17,2 °C 91 % 1016,0 hPa 0,0 mm 0,0 km/h (0 Bft) S-SO 155 ° 0 min 0,000 mm 2,1 UV-I 323 W/m² 15,7 °C 17,2 °C 0,0 km/h (0 Bft)
02.07.2019 08:50 17,2 °C 90 % 1016,0 hPa 0,0 mm 0,0 km/h (0 Bft) S-SO 155 ° 0 min 0,000 mm 1,8 UV-I 383 W/m² 15,5 °C 17,2 °C 0,0 km/h (0 Bft)
02.07.2019 08:51 17,1 °C 91 % 1016,1 hPa 0,0 mm 0,0 km/h (0 Bft) S-SO 155 ° 0 min 0,000 mm 1,8 UV-I 330 W/m² 15,6 °C 17,1 °C 0,0 km/h (0 Bft)
02.07.2019 08:52 17,1 °C 91 % 1016,1 hPa 0,0 mm 0,0 km/h (0 Bft) S-SO 155 ° 0 min 0,000 mm 1,7 UV-I 330 W/m² 15,6 °C 17,1 °C 0,0 km/h (0 Bft)
02.07.2019 08:53 17,1 °C 91 % 1016,1 hPa 0,0 mm 0,0 km/h (0 Bft) S-SO 155 ° 0 min 0,000 mm 1,7 UV-I 236 W/m² 15,6 °C 17,1 °C 0,0 km/h (0 Bft)
02.07.2019 08:54 17,2 °C 91 % 1016,0 hPa 0,0 mm 0,0 km/h (0 Bft) S-SO 155 ° 0 min 0,000 mm 2,0 UV-I 272 W/m² 15,7 °C 17,2 °C 0,0 km/h (0 Bft)
02.07.2019 08:55 17,2 °C 92 % 1016,0 hPa 0,0 mm 0,0 km/h (0 Bft) S-SO 155 ° 0 min 0,000 mm 2,2 UV-I 355 W/m² 15,9 °C 17,2 °C 0,0 km/h (0 Bft)
02.07.2019 08:56 17,2 °C 92 % 1015,9 hPa 0,0 mm 0,0 km/h (0 Bft) S-SO 155 ° 0 min 0,000 mm 2,3 UV-I 438 W/m² 15,9 °C 17,2 °C 0,0 km/h (0 Bft)
02.07.2019 08:57 17,3 °C 92 % 1016,0 hPa 0,0 mm 0,0 km/h (0 Bft) S-SO 155 ° 0 min 0,000 mm 2,0 UV-I 438 W/m² 16,0 °C 17,3 °C 0,0 km/h (0 Bft)
02.07.2019 08:58 17,5 °C 92 % 1016,0 hPa 0,0 mm 0,0 km/h (0 Bft) S-SO 155 ° 0 min 0,000 mm 2,3 UV-I 438 W/m² 16,2 °C 17,5 °C 0,0 km/h (0 Bft)
02.07.2019 08:59 17,7 °C 91 % 1016,0 hPa 0,0 mm 0,0 km/h (0 Bft) S-SO 155 ° 0 min 0,000 mm 2,5 UV-I 478 W/m² 16,2 °C 17,7 °C 0,0 km/h (0 Bft)
02.07.2019 09:00 17,8 °C 92 % 1016,0 hPa 0,0 mm 0,0 km/h (0 Bft) S-SO 155 ° 0 min 0,000 mm 2,6 UV-I 587 W/m² 16,5 °C 17,8 °C 0,0 km/h (0 Bft)
02.07.2019 09:01 17,8 °C 91 % 1016,0 hPa 0,0 mm 0,0 km/h (0 Bft) S-SO 155 ° 1 min 0,127 mm 2,6 UV-I 606 W/m² 16,3 °C 17,8 °C 0,0 km/h (0 Bft)
02.07.2019 09:02 17,9 °C 90 % 1016,0 hPa 0,0 mm 0,0 km/h (0 Bft) S-SW 198 ° 1 min 0,000 mm 2,6 UV-I 605 W/m² 16,2 °C 17,9 °C 0,0 km/h (0 Bft)
02.07.2019 09:03 18,1 °C 89 % 1016,1 hPa 0,0 mm 0,0 km/h (0 Bft) S-SW 198 ° 0 min 0,000 mm 2,5 UV-I 550 W/m² 16,3 °C 18,1 °C 0,0 km/h (0 Bft)
02.07.2019 09:04 18,1 °C 87 % 1016,1 hPa 0,0 mm 0,0 km/h (0 Bft) S-SW 198 ° 0 min 0,000 mm 1,7 UV-I 550 W/m² 15,9 °C 18,1 °C 0,0 km/h (0 Bft)
02.07.2019 09:05 18,2 °C 87 % 1016,1 hPa 0,0 mm 0,0 km/h (0 Bft) S-SW 198 ° 0 min 0,000 mm 1,6 UV-I 178 W/m² 16,0 °C 18,2 °C 0,0 km/h (0 Bft)
02.07.2019 09:06 18,2 °C 85 % 1016,1 hPa 0,0 mm 0,0 km/h (0 Bft) S-SW 198 ° 0 min 0,000 mm 1,7 UV-I 174 W/m² 15,6 °C 18,2 °C 0,0 km/h (0 Bft)
02.07.2019 09:07 18,2 °C 86 % 1016,2 hPa 0,0 mm 0,0 km/h (0 Bft) S-SW 198 ° 0 min 0,000 mm 1,7 UV-I 174 W/m² 15,8 °C 18,2 °C 0,0 km/h (0 Bft)
02.07.2019 09:08 18,1 °C 87 % 1016,1 hPa 0,0 mm 0,0 km/h (0 Bft) S-SW 198 ° 0 min 0,000 mm 1,7 UV-I 181 W/m² 15,9 °C 18,1 °C 0,0 km/h (0 Bft)
02.07.2019 09:09 18,0 °C 88 % 1016,1 hPa 0,0 mm 0,0 km/h (0 Bft) S-SW 198 ° 0 min 0,000 mm 1,8 UV-I 190 W/m² 16,0 °C 18,0 °C 0,0 km/h (0 Bft)
02.07.2019 09:10 17,9 °C 88 % 1016,1 hPa 0,0 mm 0,0 km/h (0 Bft) S-SW 198 ° 0 min 0,000 mm 1,9 UV-I 204 W/m² 15,9 °C 17,9 °C 0,0 km/h (0 Bft)
02.07.2019 09:11 17,9 °C 89 % 1016,2 hPa 0,0 mm 0,0 km/h (0 Bft) S-SW 198 ° 0 min 0,000 mm 2,0 UV-I 253 W/m² 16,1 °C 17,9 °C 0,0 km/h (0 Bft)
02.07.2019 09:12 17,9 °C 90 % 1016,1 hPa 0,0 mm 0,0 km/h (0 Bft) S-SW 198 ° 0 min 0,000 mm 2,3 UV-I 278 W/m² 16,2 °C 17,9 °C 0,0 km/h (0 Bft)
02.07.2019 09:13 17,9 °C 89 % 1016,1 hPa 0,0 mm 0,0 km/h (0 Bft) S-SW 198 ° 0 min 0,000 mm 3,3 UV-I 278 W/m² 16,1 °C 17,9 °C 0,0 km/h (0 Bft)
02.07.2019 09:14 18,1 °C 88 % 1016,1 hPa 0,0 mm 0,0 km/h (0 Bft) S-SW 198 ° 0 min 0,000 mm 2,8 UV-I 278 W/m² 16,1 °C 18,1 °C 0,0 km/h (0 Bft)
02.07.2019 09:15 18,2 °C 88 % 1016,1 hPa 0,0 mm 0,0 km/h (0 Bft) S-SW 198 ° 0 min 0,000 mm 2,3 UV-I 278 W/m² 16,2 °C 18,2 °C 0,0 km/h (0 Bft)
02.07.2019 09:16 18,3 °C 88 % 1016,1 hPa 0,0 mm 0,0 km/h (0 Bft) S-SW 198 ° 0 min 0,000 mm 2,9 UV-I 278 W/m² 16,3 °C 18,3 °C 0,0 km/h (0 Bft)
02.07.2019 09:17 18,5 °C 89 % 1016,1 hPa 0,0 mm 0,0 km/h (0 Bft) S-SW 198 ° 0 min 0,000 mm 2,4 UV-I 316 W/m² 16,7 °C 18,5 °C 0,0 km/h (0 Bft)
02.07.2019 09:18 18,6 °C 89 % 1016,2 hPa 0,0 mm 0,5 km/h (0 Bft) W 260 ° 0 min 0,000 mm 2,4 UV-I 357 W/m² 16,7 °C 18,6 °C 3,2 km/h (1 Bft)
02.07.2019 09:19 18,7 °C 87 % 1016,2 hPa 0,0 mm 0,0 km/h (0 Bft) W 267 ° 0 min 0,000 mm 2,3 UV-I 281 W/m² 16,5 °C 18,7 °C 0,0 km/h (0 Bft)
02.07.2019 09:20 18,7 °C 86 % 1016,2 hPa 0,0 mm 0,0 km/h (0 Bft) W 267 ° 0 min 0,000 mm 2,4 UV-I 294 W/m² 16,3 °C 18,7 °C 0,0 km/h (0 Bft)
02.07.2019 09:21 18,6 °C 86 % 1016,2 hPa 0,0 mm 0,0 km/h (0 Bft) W 267 ° 0 min 0,000 mm 2,3 UV-I 274 W/m² 16,2 °C 18,6 °C 0,0 km/h (0 Bft)
02.07.2019 09:22 18,5 °C 86 % 1016,2 hPa 0,0 mm 0,0 km/h (0 Bft) W 267 ° 0 min 0,000 mm 2,2 UV-I 301 W/m² 16,1 °C 18,5 °C 0,0 km/h (0 Bft)
02.07.2019 09:23 18,4 °C 86 % 1016,1 hPa 0,0 mm 0,0 km/h (0 Bft) W 267 ° 0 min 0,000 mm 2,3 UV-I 269 W/m² 16,0 °C 18,4 °C 0,0 km/h (0 Bft)
02.07.2019 09:24 18,4 °C 86 % 1016,1 hPa 0,0 mm 0,0 km/h (0 Bft) W 261 ° 0 min 0,000 mm 2,3 UV-I 246 W/m² 16,0 °C 18,4 °C 0,0 km/h (0 Bft)
02.07.2019 09:25 18,3 °C 87 % 1016,1 hPa 0,0 mm 0,0 km/h (0 Bft) W 261 ° 0 min 0,000 mm 3,0 UV-I 246 W/m² 16,1 °C 18,3 °C 0,0 km/h (0 Bft)
02.07.2019 09:26 18,2 °C 89 % 1016,1 hPa 0,0 mm 0,0 km/h (0 Bft) W 261 ° 0 min 0,000 mm 3,0 UV-I 524 W/m² 16,4 °C 18,2 °C 0,0 km/h (0 Bft)
02.07.2019 09:27 18,1 °C 90 % 1016,1 hPa 0,0 mm 0,0 km/h (0 Bft) W 263 ° 0 min 0,000 mm 2,9 UV-I 524 W/m² 16,4 °C 18,1 °C 0,0 km/h (0 Bft)
02.07.2019 09:28 18,1 °C 89 % 1016,2 hPa 0,0 mm 0,0 km/h (0 Bft) W 263 ° 0 min 0,000 mm 2,8 UV-I 397 W/m² 16,3 °C 18,1 °C 0,0 km/h (0 Bft)
02.07.2019 09:29 18,3 °C 90 % 1016,2 hPa 0,0 mm 0,0 km/h (0 Bft) W 263 ° 0 min 0,000 mm 2,6 UV-I 392 W/m² 16,6 °C 18,3 °C 0,0 km/h (0 Bft)
02.07.2019 09:30 18,3 °C 88 % 1016,2 hPa 0,0 mm 0,0 km/h (0 Bft) W 263 ° 0 min 0,000 mm 2,3 UV-I 392 W/m² 16,3 °C 18,3 °C 0,0 km/h (0 Bft)
02.07.2019 09:31 18,4 °C 88 % 1016,2 hPa 0,0 mm 0,0 km/h (0 Bft) W 263 ° 0 min 0,000 mm 2,3 UV-I 278 W/m² 16,4 °C 18,4 °C 0,0 km/h (0 Bft)
02.07.2019 09:32 18,5 °C 88 % 1016,2 hPa 0,0 mm 0,0 km/h (0 Bft) W 263 ° 0 min 0,000 mm 2,2 UV-I 248 W/m² 16,5 °C 18,5 °C 0,0 km/h (0 Bft)
02.07.2019 09:33 18,5 °C 87 % 1016,2 hPa 0,0 mm 0,0 km/h (0 Bft) W 263 ° 0 min 0,000 mm 2,2 UV-I 237 W/m² 16,3 °C 18,5 °C 0,0 km/h (0 Bft)
02.07.2019 09:34 18,5 °C 87 % 1016,1 hPa 0,0 mm 0,0 km/h (0 Bft) W 263 ° 0 min 0,000 mm 2,2 UV-I 234 W/m² 16,3 °C 18,5 °C 0,0 km/h (0 Bft)
02.07.2019 09:35 18,6 °C 88 % 1016,2 hPa 0,0 mm 0,0 km/h (0 Bft) W 263 ° 0 min 0,000 mm 2,2 UV-I 214 W/m² 16,6 °C 18,6 °C 0,0 km/h (0 Bft)
02.07.2019 09:36 18,6 °C 87 % 1016,1 hPa 0,0 mm 0,6 km/h (0 Bft) W 264 ° 0 min 0,000 mm 2,2 UV-I 202 W/m² 16,4 °C 18,6 °C 3,2 km/h (1 Bft)
02.07.2019 09:37 18,6 °C 88 % 1016,2 hPa 0,0 mm 3,9 km/h (1 Bft) N 360 ° 0 min 0,000 mm 2,3 UV-I 237 W/m² 16,6 °C 18,6 °C 6,4 km/h (2 Bft)
02.07.2019 09:38 18,6 °C 88 % 1016,2 hPa 0,0 mm 2,1 km/h (1 Bft) N 5 ° 0 min 0,000 mm 2,3 UV-I 225 W/m² 16,6 °C 18,6 °C 4,8 km/h (1 Bft)
02.07.2019 09:39 18,6 °C 87 % 1016,2 hPa 0,0 mm 1,1 km/h (1 Bft) N 5 ° 0 min 0,000 mm 2,3 UV-I 192 W/m² 16,4 °C 18,6 °C 3,2 km/h (1 Bft)
02.07.2019 09:40 18,6 °C 87 % 1016,2 hPa 0,0 mm 0,2 km/h (0 Bft) N 5 ° 0 min 0,000 mm 2,5 UV-I 290 W/m² 16,4 °C 18,6 °C 1,6 km/h (1 Bft)
02.07.2019 09:41 18,6 °C 86 % 1016,2 hPa 0,0 mm 0,0 km/h (0 Bft) N 5 ° 0 min 0,000 mm 2,7 UV-I 311 W/m² 16,2 °C 18,6 °C 0,0 km/h (0 Bft)
02.07.2019 09:42 18,6 °C 86 % 1016,2 hPa 0,0 mm 0,0 km/h (0 Bft) N 5 ° 0 min 0,000 mm 3,1 UV-I 311 W/m² 16,2 °C 18,6 °C 0,0 km/h (0 Bft)
02.07.2019 09:43 18,6 °C 88 % 1016,2 hPa 0,0 mm 0,0 km/h (0 Bft) N 5 ° 0 min 0,000 mm 3,0 UV-I 311 W/m² 16,6 °C 18,6 °C 0,0 km/h (0 Bft)
02.07.2019 09:44 18,8 °C 88 % 1016,2 hPa 0,0 mm 3,8 km/h (1 Bft) NW 326 ° 0 min 0,000 mm 2,9 UV-I 311 W/m² 16,8 °C 18,8 °C 4,8 km/h (1 Bft)
02.07.2019 09:45 18,8 °C 87 % 1016,3 hPa 0,0 mm 3,4 km/h (1 Bft) NW 310 ° 0 min 0,000 mm 3,7 UV-I 311 W/m² 16,6 °C 18,8 °C 8,0 km/h (2 Bft)
02.07.2019 09:46 18,9 °C 86 % 1016,2 hPa 0,0 mm 4,3 km/h (1 Bft) NW 309 ° 0 min 0,000 mm 3,1 UV-I 311 W/m² 16,5 °C 18,9 °C 8,0 km/h (2 Bft)
02.07.2019 09:47 18,9 °C 86 % 1016,2 hPa 0,0 mm 1,1 km/h (1 Bft) NW 309 ° 0 min 0,000 mm 2,3 UV-I 214 W/m² 16,5 °C 18,9 °C 3,2 km/h (1 Bft)
02.07.2019 09:48 18,9 °C 85 % 1016,2 hPa 0,0 mm 3,6 km/h (1 Bft) N-NW 346 ° 0 min 0,000 mm 2,2 UV-I 197 W/m² 16,3 °C 18,9 °C 6,4 km/h (2 Bft)
02.07.2019 09:49 18,8 °C 86 % 1016,2 hPa 0,0 mm 3,0 km/h (1 Bft) N-NW 329 ° 0 min 0,000 mm 2,3 UV-I 214 W/m² 16,4 °C 18,8 °C 6,4 km/h (2 Bft)
02.07.2019 09:50 18,8 °C 85 % 1016,3 hPa 0,2 mm 0,1 km/h (0 Bft) N-NW 329 ° 0 min 0,000 mm 2,4 UV-I 213 W/m² 16,2 °C 18,8 °C 1,6 km/h (1 Bft)
02.07.2019 09:51 18,7 °C 85 % 1016,3 hPa 0,0 mm 0,5 km/h (0 Bft) N-NO 21 ° 0 min 0,000 mm 2,4 UV-I 207 W/m² 16,1 °C 18,7 °C 3,2 km/h (1 Bft)
02.07.2019 09:52 18,7 °C 86 % 1016,3 hPa 0,0 mm 2,2 km/h (1 Bft) N-NO 21 ° 0 min 0,000 mm 2,5 UV-I 209 W/m² 16,3 °C 18,7 °C 3,2 km/h (1 Bft)
02.07.2019 09:53 18,7 °C 86 % 1016,3 hPa 0,0 mm 2,9 km/h (1 Bft) NO 37 ° 0 min 0,000 mm 4,1 UV-I 209 W/m² 16,3 °C 18,7 °C 4,8 km/h (1 Bft)
02.07.2019 09:54 18,8 °C 88 % 1016,2 hPa 0,0 mm 3,3 km/h (1 Bft) NW 311 ° 1 min 0,000 mm 4,2 UV-I 701 W/m² 16,8 °C 18,8 °C 6,4 km/h (2 Bft)
02.07.2019 09:55 18,9 °C 87 % 1016,3 hPa 0,0 mm 0,6 km/h (0 Bft) NW 312 ° 1 min 0,000 mm 4,3 UV-I 742 W/m² 16,7 °C 18,9 °C 3,2 km/h (1 Bft)
02.07.2019 09:56 19,0 °C 87 % 1016,3 hPa 0,0 mm 0,3 km/h (0 Bft) N 5 ° 1 min 0,000 mm 4,4 UV-I 786 W/m² 16,8 °C 19,0 °C 1,6 km/h (1 Bft)
02.07.2019 09:57 19,2 °C 86 % 1016,3 hPa 0,0 mm 4,0 km/h (1 Bft) N 355 ° 1 min 0,000 mm 4,5 UV-I 821 W/m² 16,8 °C 19,2 °C 6,4 km/h (2 Bft)
02.07.2019 09:58 19,3 °C 85 % 1016,3 hPa 0,0 mm 2,8 km/h (1 Bft) N 355 ° 0 min 0,000 mm 3,6 UV-I 550 W/m² 16,7 °C 19,3 °C 4,8 km/h (1 Bft)
02.07.2019 09:59 19,4 °C 86 % 1016,3 hPa 0,0 mm 2,3 km/h (1 Bft) NW 309 ° 0 min 0,000 mm 4,5 UV-I 550 W/m² 17,0 °C 19,4 °C 3,2 km/h (1 Bft)
02.07.2019 10:00 19,6 °C 86 % 1016,3 hPa 0,0 mm 5,9 km/h (2 Bft) N 355 ° 1 min 0,000 mm 4,5 UV-I 770 W/m² 17,2 °C 19,6 °C 9,7 km/h (2 Bft)
02.07.2019 10:01 19,8 °C 88 % 1016,3 hPa 0,0 mm 5,9 km/h (2 Bft) W-NW 298 ° 1 min 0,203 mm 4,6 UV-I 803 W/m² 17,8 °C 19,8 °C 9,7 km/h (2 Bft)
02.07.2019 10:02 19,8 °C 85 % 1016,3 hPa 0,0 mm 0,6 km/h (0 Bft) W-NW 298 ° 1 min 0,000 mm 4,7 UV-I 823 W/m² 17,2 °C 19,8 °C 1,6 km/h (1 Bft)
02.07.2019 10:03 19,8 °C 85 % 1016,2 hPa 0,0 mm 2,0 km/h (1 Bft) W-NW 292 ° 0 min 0,000 mm 3,3 UV-I 480 W/m² 17,2 °C 19,8 °C 6,4 km/h (2 Bft)
02.07.2019 10:04 19,8 °C 85 % 1016,3 hPa 0,0 mm 5,0 km/h (1 Bft) NW 326 ° 0 min 0,000 mm 4,7 UV-I 480 W/m² 17,2 °C 19,8 °C 6,4 km/h (2 Bft)
02.07.2019 10:05 19,8 °C 83 % 1016,3 hPa 0,0 mm 1,9 km/h (1 Bft) N 5 ° 1 min 0,000 mm 4,7 UV-I 870 W/m² 16,8 °C 19,8 °C 6,4 km/h (2 Bft)
02.07.2019 10:06 19,9 °C 86 % 1016,3 hPa 0,0 mm 5,6 km/h (1 Bft) NW 324 ° 1 min 0,000 mm 3,6 UV-I 870 W/m² 17,5 °C 19,9 °C 9,7 km/h (2 Bft)
02.07.2019 10:07 19,9 °C 83 % 1016,3 hPa 0,0 mm 3,8 km/h (1 Bft) W-NW 300 ° 0 min 0,000 mm 3,3 UV-I 469 W/m² 16,9 °C 19,9 °C 6,4 km/h (2 Bft)
02.07.2019 10:08 19,9 °C 83 % 1016,3 hPa 0,0 mm 3,7 km/h (1 Bft) NW 307 ° 0 min 0,000 mm 3,1 UV-I 448 W/m² 16,9 °C 19,9 °C 6,4 km/h (2 Bft)
02.07.2019 10:09 19,8 °C 84 % 1016,4 hPa 0,0 mm 6,8 km/h (2 Bft) N-NW 345 ° 0 min 0,000 mm 2,9 UV-I 323 W/m² 17,0 °C 19,8 °C 11,3 km/h (2 Bft)
02.07.2019 10:10 19,7 °C 84 % 1016,4 hPa 0,0 mm 3,5 km/h (1 Bft) N-NW 331 ° 0 min 0,000 mm 4,8 UV-I 323 W/m² 16,9 °C 19,7 °C 6,4 km/h (2 Bft)
02.07.2019 10:11 19,7 °C 85 % 1016,3 hPa 0,0 mm 1,9 km/h (1 Bft) N-NW 327 ° 1 min 0,000 mm 4,7 UV-I 851 W/m² 17,1 °C 19,7 °C 4,8 km/h (1 Bft)
02.07.2019 10:12 19,8 °C 84 % 1016,3 hPa 0,0 mm 3,0 km/h (1 Bft) NW 311 ° 1 min 0,000 mm 4,1 UV-I 851 W/m² 17,0 °C 19,8 °C 4,8 km/h (1 Bft)
02.07.2019 10:13 19,8 °C 84 % 1016,3 hPa 0,0 mm 2,0 km/h (1 Bft) W 260 ° 1 min 0,000 mm 3,0 UV-I 851 W/m² 17,0 °C 19,8 °C 6,4 km/h (2 Bft)
02.07.2019 10:14 19,9 °C 85 % 1016,3 hPa 0,0 mm 4,1 km/h (1 Bft) W 279 ° 1 min 0,000 mm 2,9 UV-I 851 W/m² 17,3 °C 19,9 °C 6,4 km/h (2 Bft)
02.07.2019 10:15 19,8 °C 85 % 1016,3 hPa 0,0 mm 2,8 km/h (1 Bft) NW 315 ° 0 min 0,000 mm 2,9 UV-I 318 W/m² 17,2 °C 19,8 °C 4,8 km/h (1 Bft)
02.07.2019 10:16 19,8 °C 84 % 1016,3 hPa 0,0 mm 2,3 km/h (1 Bft) NW 310 ° 0 min 0,000 mm 3,0 UV-I 413 W/m² 17,0 °C 19,8 °C 4,8 km/h (1 Bft)
02.07.2019 10:17 19,7 °C 85 % 1016,3 hPa 0,0 mm 2,4 km/h (1 Bft) NW 304 ° 0 min 0,000 mm 2,4 UV-I 413 W/m² 17,1 °C 19,7 °C 4,8 km/h (1 Bft)
02.07.2019 10:18 19,6 °C 84 % 1016,3 hPa 0,0 mm 1,7 km/h (1 Bft) NW 316 ° 0 min 0,000 mm 2,3 UV-I 179 W/m² 16,8 °C 19,6 °C 3,2 km/h (1 Bft)
02.07.2019 10:19 19,4 °C 84 % 1016,3 hPa 0,0 mm 3,8 km/h (1 Bft) W 277 ° 0 min 0,000 mm 2,4 UV-I 178 W/m² 16,6 °C 19,4 °C 6,4 km/h (2 Bft)
02.07.2019 10:20 19,4 °C 84 % 1016,3 hPa 0,0 mm 3,3 km/h (1 Bft) W 275 ° 0 min 0,000 mm 2,4 UV-I 176 W/m² 16,6 °C 19,4 °C 6,4 km/h (2 Bft)
02.07.2019 10:21 19,3 °C 84 % 1016,3 hPa 0,0 mm 6,2 km/h (2 Bft) W 271 ° 0 min 0,000 mm 2,4 UV-I 174 W/m² 16,5 °C 19,3 °C 11,3 km/h (2 Bft)
02.07.2019 10:22 19,2 °C 84 % 1016,3 hPa 0,0 mm 5,7 km/h (1 Bft) W-SW 238 ° 0 min 0,000 mm 2,4 UV-I 171 W/m² 16,4 °C 19,2 °C 11,3 km/h (2 Bft)
02.07.2019 10:23 19,1 °C 83 % 1016,4 hPa 0,0 mm 1,5 km/h (1 Bft) W-SW 239 ° 0 min 0,000 mm 2,4 UV-I 169 W/m² 16,1 °C 19,1 °C 3,2 km/h (1 Bft)
02.07.2019 10:24 18,9 °C 85 % 1016,3 hPa 0,0 mm 1,9 km/h (1 Bft) W-SW 239 ° 0 min 0,000 mm 2,5 UV-I 176 W/m² 16,3 °C 18,9 °C 3,2 km/h (1 Bft)
02.07.2019 10:25 18,9 °C 85 % 1016,3 hPa 0,0 mm 2,7 km/h (1 Bft) W 276 ° 0 min 0,000 mm 2,6 UV-I 197 W/m² 16,3 °C 18,9 °C 3,2 km/h (1 Bft)
02.07.2019 10:26 18,9 °C 85 % 1016,3 hPa 0,0 mm 0,3 km/h (0 Bft) W 276 ° 0 min 0,000 mm 2,8 UV-I 227 W/m² 16,3 °C 18,9 °C 1,6 km/h (1 Bft)
02.07.2019 10:27 18,9 °C 86 % 1016,3 hPa 0,0 mm 0,0 km/h (0 Bft) W-NW 288 ° 0 min 0,000 mm 3,0 UV-I 271 W/m² 16,5 °C 18,9 °C 0,0 km/h (0 Bft)
02.07.2019 10:28 18,9 °C 85 % 1016,3 hPa 0,0 mm 0,0 km/h (0 Bft) W-NW 288 ° 0 min 0,000 mm 3,1 UV-I 278 W/m² 16,3 °C 18,9 °C 0,0 km/h (0 Bft)
02.07.2019 10:29 19,1 °C 85 % 1016,4 hPa 0,0 mm 0,0 km/h (0 Bft) W-NW 288 ° 0 min 0,000 mm 3,3 UV-I 304 W/m² 16,5 °C 19,1 °C 0,0 km/h (0 Bft)
02.07.2019 10:30 19,1 °C 85 % 1016,4 hPa 0,0 mm 0,0 km/h (0 Bft) W-NW 288 ° 0 min 0,000 mm 3,8 UV-I 304 W/m² 16,5 °C 19,1 °C 0,0 km/h (0 Bft)
02.07.2019 10:31 19,2 °C 87 % 1016,4 hPa 0,0 mm 0,0 km/h (0 Bft) W-NW 288 ° 0 min 0,000 mm 3,6 UV-I 448 W/m² 17,0 °C 19,2 °C 0,0 km/h (0 Bft)
02.07.2019 10:32 19,2 °C 84 % 1016,4 hPa 0,0 mm 0,8 km/h (0 Bft) W-NW 288 ° 0 min 0,000 mm 3,2 UV-I 448 W/m² 16,4 °C 19,2 °C 1,6 km/h (1 Bft)
02.07.2019 10:33 19,2 °C 85 % 1016,4 hPa 0,0 mm 1,7 km/h (1 Bft) W-NW 288 ° 0 min 0,000 mm 3,2 UV-I 315 W/m² 16,6 °C 19,2 °C 3,2 km/h (1 Bft)
02.07.2019 10:34 19,2 °C 84 % 1016,5 hPa 0,0 mm 0,2 km/h (0 Bft) W-NW 288 ° 0 min 0,000 mm 3,4 UV-I 330 W/m² 16,4 °C 19,2 °C 1,6 km/h (1 Bft)
02.07.2019 10:35 19,3 °C 84 % 1016,5 hPa 0,0 mm 3,2 km/h (1 Bft) W-NW 288 ° 0 min 0,000 mm 3,2 UV-I 316 W/m² 16,5 °C 19,3 °C 3,2 km/h (1 Bft)
02.07.2019 10:36 19,2 °C 83 % 1016,5 hPa 0,0 mm 1,0 km/h (0 Bft) W-NW 288 ° 0 min 0,000 mm 3,2 UV-I 308 W/m² 16,2 °C 19,2 °C 3,2 km/h (1 Bft)
02.07.2019 10:37 19,2 °C 82 % 1016,5 hPa 0,0 mm 0,1 km/h (0 Bft) W-NW 288 ° 0 min 0,000 mm 3,1 UV-I 299 W/m² 16,0 °C 19,2 °C 1,6 km/h (1 Bft)
02.07.2019 10:38 19,2 °C 82 % 1016,5 hPa 0,0 mm 0,1 km/h (0 Bft) W-NW 288 ° 0 min 0,000 mm 3,2 UV-I 297 W/m² 16,0 °C 19,2 °C 1,6 km/h (1 Bft)
02.07.2019 10:39 19,1 °C 82 % 1016,5 hPa 0,0 mm 0,0 km/h (0 Bft) W-NW 288 ° 0 min 0,000 mm 3,1 UV-I 283 W/m² 16,0 °C 19,1 °C 0,0 km/h (0 Bft)
02.07.2019 10:40 19,1 °C 83 % 1016,5 hPa 0,0 mm 0,1 km/h (0 Bft) W-NW 288 ° 0 min 0,000 mm 3,2 UV-I 292 W/m² 16,1 °C 19,1 °C 1,6 km/h (1 Bft)
02.07.2019 10:41 19,2 °C 85 % 1016,5 hPa 0,0 mm 0,3 km/h (0 Bft) W-NW 288 ° 0 min 0,000 mm 3,4 UV-I 371 W/m² 16,6 °C 19,2 °C 4,8 km/h (1 Bft)
02.07.2019 10:42 19,3 °C 83 % 1016,5 hPa 0,0 mm 2,2 km/h (1 Bft) W-NW 288 ° 0 min 0,000 mm 3,7 UV-I 371 W/m² 16,3 °C 19,3 °C 4,8 km/h (1 Bft)
02.07.2019 10:43 19,3 °C 83 % 1016,5 hPa 0,0 mm 0,3 km/h (0 Bft) W-NW 288 ° 0 min 0,000 mm 3,2 UV-I 371 W/m² 16,3 °C 19,3 °C 1,6 km/h (1 Bft)
02.07.2019 10:44 19,3 °C 82 % 1016,5 hPa 0,0 mm 0,6 km/h (0 Bft) W-NW 288 ° 0 min 0,000 mm 3,1 UV-I 345 W/m² 16,1 °C 19,3 °C 3,2 km/h (1 Bft)
02.07.2019 10:45 19,3 °C 83 % 1016,5 hPa 0,0 mm 0,0 km/h (0 Bft) W-NW 288 ° 0 min 0,000 mm 3,3 UV-I 392 W/m² 16,3 °C 19,3 °C 0,0 km/h (0 Bft)
02.07.2019 10:46 19,4 °C 82 % 1016,5 hPa 0,0 mm 0,0 km/h (0 Bft) W-NW 288 ° 0 min 0,000 mm 3,1 UV-I 392 W/m² 16,2 °C 19,4 °C 0,0 km/h (0 Bft)
02.07.2019 10:47 19,4 °C 83 % 1016,5 hPa 0,0 mm 0,0 km/h (0 Bft) W-NW 288 ° 0 min 0,000 mm 2,9 UV-I 309 W/m² 16,4 °C 19,4 °C 0,0 km/h (0 Bft)
02.07.2019 10:48 19,4 °C 84 % 1016,5 hPa 0,0 mm 0,0 km/h (0 Bft) W-NW 288 ° 0 min 0,000 mm 2,8 UV-I 292 W/m² 16,6 °C 19,4 °C 0,0 km/h (0 Bft)
02.07.2019 10:49 19,5 °C 83 % 1016,5 hPa 0,0 mm 1,1 km/h (1 Bft) W-NW 288 ° 0 min 0,000 mm 2,6 UV-I 264 W/m² 16,5 °C 19,5 °C 3,2 km/h (1 Bft)
02.07.2019 10:50 19,4 °C 82 % 1016,5 hPa 0,0 mm 0,0 km/h (0 Bft) W-NW 288 ° 0 min 0,000 mm 2,6 UV-I 255 W/m² 16,2 °C 19,4 °C 0,0 km/h (0 Bft)
02.07.2019 10:51 19,5 °C 82 % 1016,6 hPa 0,0 mm 0,0 km/h (0 Bft) W-NW 288 ° 0 min 0,000 mm 3,4 UV-I 255 W/m² 16,3 °C 19,5 °C 0,0 km/h (0 Bft)
02.07.2019 10:52 19,5 °C 82 % 1016,6 hPa 0,0 mm 0,0 km/h (0 Bft) W-NW 288 ° 0 min 0,000 mm 3,4 UV-I 378 W/m² 16,3 °C 19,5 °C 0,0 km/h (0 Bft)
02.07.2019 10:53 19,5 °C 83 % 1016,6 hPa 0,0 mm 0,0 km/h (0 Bft) W-NW 288 ° 0 min 0,000 mm 3,4 UV-I 353 W/m² 16,5 °C 19,5 °C 0,0 km/h (0 Bft)
02.07.2019 10:54 19,6 °C 83 % 1016,6 hPa 0,0 mm 0,0 km/h (0 Bft) W-NW 288 ° 0 min 0,000 mm 4,1 UV-I 445 W/m² 16,6 °C 19,6 °C 0,0 km/h (0 Bft)
02.07.2019 10:55 19,6 °C 84 % 1016,6 hPa 0,0 mm 0,0 km/h (0 Bft) W-NW 288 ° 0 min 0,000 mm 3,7 UV-I 445 W/m² 16,8 °C 19,6 °C 0,0 km/h (0 Bft)
02.07.2019 10:56 19,7 °C 84 % 1016,5 hPa 0,0 mm 0,0 km/h (0 Bft) W-NW 288 ° 0 min 0,000 mm 3,8 UV-I 394 W/m² 16,9 °C 19,7 °C 0,0 km/h (0 Bft)
02.07.2019 10:57 19,8 °C 84 % 1016,6 hPa 0,0 mm 0,0 km/h (0 Bft) W-NW 288 ° 1 min 0,000 mm 3,6 UV-I 638 W/m² 17,0 °C 19,8 °C 0,0 km/h (0 Bft)
02.07.2019 10:58 19,9 °C 84 % 1016,6 hPa 0,0 mm 0,0 km/h (0 Bft) W-NW 288 ° 1 min 0,000 mm 3,6 UV-I 638 W/m² 17,1 °C 19,9 °C 0,0 km/h (0 Bft)
02.07.2019 10:59 19,9 °C 83 % 1016,6 hPa 0,0 mm 2,5 km/h (1 Bft) NW 305 ° 1 min 0,000 mm 3,6 UV-I 638 W/m² 16,9 °C 19,9 °C 8,0 km/h (2 Bft)
02.07.2019 11:00 20,0 °C 83 % 1016,6 hPa 0,0 mm 5,0 km/h (1 Bft) NW 309 ° 1 min 0,000 mm 2,8 UV-I 638 W/m² 17,0 °C 20,0 °C 11,3 km/h (2 Bft)
02.07.2019 11:01 20,1 °C 83 % 1016,6 hPa 0,0 mm 2,6 km/h (1 Bft) NW 313 ° 0 min 0,229 mm 2,9 UV-I 330 W/m² 17,1 °C 20,1 °C 4,8 km/h (1 Bft)
02.07.2019 11:02 20,1 °C 83 % 1016,6 hPa 0,0 mm 2,0 km/h (1 Bft) NW 313 ° 0 min 0,000 mm 3,2 UV-I 330 W/m² 17,1 °C 20,1 °C 4,8 km/h (1 Bft)
02.07.2019 11:03 20,2 °C 82 % 1016,6 hPa 0,0 mm 1,3 km/h (1 Bft) NW 313 ° 0 min 0,000 mm 3,0 UV-I 360 W/m² 17,0 °C 20,2 °C 6,4 km/h (2 Bft)
02.07.2019 11:04 20,2 °C 83 % 1016,6 hPa 0,0 mm 3,6 km/h (1 Bft) NW 309 ° 0 min 0,000 mm 3,0 UV-I 360 W/m² 17,2 °C 20,2 °C 6,4 km/h (2 Bft)
02.07.2019 11:05 20,2 °C 81 % 1016,6 hPa 0,0 mm 3,2 km/h (1 Bft) NW 308 ° 0 min 0,000 mm 2,7 UV-I 360 W/m² 16,8 °C 20,2 °C 6,4 km/h (2 Bft)
02.07.2019 11:06 20,1 °C 80 % 1016,6 hPa 0,0 mm 3,9 km/h (1 Bft) NW 309 ° 0 min 0,000 mm 2,8 UV-I 301 W/m² 16,5 °C 20,1 °C 4,8 km/h (1 Bft)
02.07.2019 11:07 20,1 °C 81 % 1016,7 hPa 0,0 mm 2,7 km/h (1 Bft) NW 309 ° 0 min 0,000 mm 2,9 UV-I 320 W/m² 16,7 °C 20,1 °C 4,8 km/h (1 Bft)
02.07.2019 11:08 20,0 °C 80 % 1016,6 hPa 0,0 mm 0,6 km/h (0 Bft) NW 309 ° 0 min 0,000 mm 3,0 UV-I 396 W/m² 16,4 °C 20,0 °C 1,6 km/h (1 Bft)
02.07.2019 11:09 19,9 °C 81 % 1016,6 hPa 0,0 mm 0,0 km/h (0 Bft) NW 309 ° 0 min 0,000 mm 5,2 UV-I 396 W/m² 16,5 °C 19,9 °C 0,0 km/h (0 Bft)
02.07.2019 11:10 19,9 °C 82 % 1016,6 hPa 0,0 mm 0,0 km/h (0 Bft) NW 309 ° 0 min 0,000 mm 5,7 UV-I 396 W/m² 16,7 °C 19,9 °C 0,0 km/h (0 Bft)
02.07.2019 11:11 20,0 °C 81 % 1016,6 hPa 0,0 mm 0,0 km/h (0 Bft) NW 309 ° 0 min 0,000 mm 3,4 UV-I 396 W/m² 16,6 °C 20,0 °C 0,0 km/h (0 Bft)
02.07.2019 11:12 19,9 °C 82 % 1016,6 hPa 0,0 mm 0,0 km/h (0 Bft) NW 309 ° 0 min 0,000 mm 3,1 UV-I 366 W/m² 16,7 °C 19,9 °C 0,0 km/h (0 Bft)
02.07.2019 11:13 19,9 °C 81 % 1016,6 hPa 0,0 mm 0,1 km/h (0 Bft) NW 309 ° 0 min 0,000 mm 3,2 UV-I 366 W/m² 16,5 °C 19,9 °C 1,6 km/h (1 Bft)
02.07.2019 11:14 19,9 °C 81 % 1016,6 hPa 0,0 mm 0,8 km/h (0 Bft) NW 309 ° 0 min 0,000 mm 3,4 UV-I 434 W/m² 16,5 °C 19,9 °C 1,6 km/h (1 Bft)
02.07.2019 11:15 19,9 °C 81 % 1016,6 hPa 0,0 mm 0,0 km/h (0 Bft) NW 309 ° 0 min 0,000 mm 3,6 UV-I 448 W/m² 16,5 °C 19,9 °C 0,0 km/h (0 Bft)
02.07.2019 11:16 19,9 °C 82 % 1016,6 hPa 0,0 mm 0,0 km/h (0 Bft) NW 309 ° 0 min 0,000 mm 3,5 UV-I 443 W/m² 16,7 °C 19,9 °C 0,0 km/h (0 Bft)
02.07.2019 11:17 20,0 °C 81 % 1016,6 hPa 0,0 mm 0,1 km/h (0 Bft) NW 309 ° 0 min 0,000 mm 3,3 UV-I 415 W/m² 16,6 °C 20,0 °C 1,6 km/h (1 Bft)
02.07.2019 11:18 20,1 °C 82 % 1016,6 hPa 0,0 mm 2,4 km/h (1 Bft) N-NO 30 ° 0 min 0,000 mm 3,8 UV-I 441 W/m² 16,9 °C 20,1 °C 4,8 km/h (1 Bft)
02.07.2019 11:19 20,1 °C 82 % 1016,6 hPa 0,0 mm 2,9 km/h (1 Bft) N-NO 30 ° 0 min 0,000 mm 3,0 UV-I 366 W/m² 16,9 °C 20,1 °C 4,8 km/h (1 Bft)
02.07.2019 11:20 20,2 °C 82 % 1016,7 hPa 0,0 mm 1,1 km/h (1 Bft) N-NW 327 ° 0 min 0,000 mm 3,2 UV-I 380 W/m² 17,0 °C 20,2 °C 6,4 km/h (2 Bft)
02.07.2019 11:21 20,4 °C 82 % 1016,6 hPa 0,0 mm 4,6 km/h (1 Bft) W-NW 285 ° 0 min 0,000 mm 3,2 UV-I 311 W/m² 17,2 °C 20,4 °C 6,4 km/h (2 Bft)
02.07.2019 11:22 20,4 °C 81 % 1016,6 hPa 0,0 mm 4,8 km/h (1 Bft) W-NW 287 ° 0 min 0,000 mm 3,6 UV-I 387 W/m² 17,0 °C 20,4 °C 6,4 km/h (2 Bft)
02.07.2019 11:23 20,3 °C 82 % 1016,6 hPa 0,0 mm 1,9 km/h (1 Bft) N-NW 336 ° 0 min 0,000 mm 3,9 UV-I 422 W/m² 17,1 °C 20,3 °C 3,2 km/h (1 Bft)
02.07.2019 11:24 20,4 °C 81 % 1016,6 hPa 0,0 mm 2,5 km/h (1 Bft) NO 56 ° 0 min 0,000 mm 4,0 UV-I 424 W/m² 17,0 °C 20,4 °C 6,4 km/h (2 Bft)
02.07.2019 11:25 20,4 °C 81 % 1016,6 hPa 0,0 mm 3,7 km/h (1 Bft) O-NO 72 ° 0 min 0,000 mm 4,4 UV-I 457 W/m² 17,0 °C 20,4 °C 8,0 km/h (2 Bft)
02.07.2019 11:26 20,4 °C 81 % 1016,6 hPa 0,0 mm 3,0 km/h (1 Bft) O 90 ° 0 min 0,000 mm 6,2 UV-I 457 W/m² 17,0 °C 20,4 °C 4,8 km/h (1 Bft)
02.07.2019 11:27 20,5 °C 80 % 1016,6 hPa 0,0 mm 0,1 km/h (0 Bft) O 90 ° 1 min 0,000 mm 6,8 UV-I 1000 W/m² 16,9 °C 20,5 °C 1,6 km/h (1 Bft)
02.07.2019 11:28 20,6 °C 81 % 1016,6 hPa 0,0 mm 3,3 km/h (1 Bft) NO 53 ° 1 min 0,000 mm 7,0 UV-I 1000 W/m² 17,2 °C 20,6 °C 8,0 km/h (2 Bft)
02.07.2019 11:29 20,7 °C 81 % 1016,6 hPa 0,0 mm 5,9 km/h (2 Bft) NO 46 ° 1 min 0,000 mm 7,1 UV-I 1000 W/m² 17,3 °C 20,7 °C 8,0 km/h (2 Bft)
02.07.2019 11:30 20,8 °C 80 % 1016,6 hPa 0,0 mm 4,2 km/h (1 Bft) NO 49 ° 1 min 0,000 mm 5,9 UV-I 1000 W/m² 17,2 °C 20,8 °C 6,4 km/h (2 Bft)
02.07.2019 11:31 20,8 °C 79 % 1016,6 hPa 0,0 mm 3,1 km/h (1 Bft) NO 49 ° 1 min 0,000 mm 5,0 UV-I 1000 W/m² 17,0 °C 20,8 °C 6,4 km/h (2 Bft)
02.07.2019 11:32 20,8 °C 78 % 1016,5 hPa 0,0 mm 3,8 km/h (1 Bft) NO 49 ° 0 min 0,000 mm 5,8 UV-I 490 W/m² 16,8 °C 20,8 °C 4,8 km/h (1 Bft)
02.07.2019 11:33 20,8 °C 80 % 1016,5 hPa 0,0 mm 4,2 km/h (1 Bft) O-NO 67 ° 0 min 0,000 mm 6,5 UV-I 490 W/m² 17,2 °C 20,8 °C 6,4 km/h (2 Bft)
02.07.2019 11:34 20,8 °C 78 % 1016,5 hPa 0,0 mm 2,1 km/h (1 Bft) S-SO 150 ° 0 min 0,000 mm 6,4 UV-I 490 W/m² 16,8 °C 20,8 °C 4,8 km/h (1 Bft)
02.07.2019 11:35 20,7 °C 78 % 1016,6 hPa 0,0 mm 4,0 km/h (1 Bft) S-SO 150 ° 0 min 0,000 mm 5,0 UV-I 490 W/m² 16,7 °C 20,7 °C 4,8 km/h (1 Bft)
02.07.2019 11:36 20,6 °C 78 % 1016,5 hPa 0,0 mm 3,9 km/h (1 Bft) SO 134 ° 0 min 0,000 mm 4,5 UV-I 464 W/m² 16,6 °C 20,6 °C 4,8 km/h (1 Bft)
02.07.2019 11:37 20,5 °C 79 % 1016,5 hPa 0,0 mm 5,2 km/h (1 Bft) SO 138 ° 0 min 0,000 mm 5,1 UV-I 541 W/m² 16,7 °C 20,5 °C 6,4 km/h (2 Bft)
02.07.2019 11:38 20,4 °C 80 % 1016,5 hPa 0,0 mm 3,2 km/h (1 Bft) SO 138 ° 0 min 0,000 mm 7,1 UV-I 541 W/m² 16,8 °C 20,4 °C 4,8 km/h (1 Bft)
02.07.2019 11:39 20,4 °C 79 % 1016,5 hPa 0,0 mm 2,3 km/h (1 Bft) SO 138 ° 0 min 0,000 mm 5,4 UV-I 541 W/m² 16,6 °C 20,4 °C 4,8 km/h (1 Bft)
02.07.2019 11:40 20,6 °C 80 % 1016,5 hPa 0,0 mm 5,1 km/h (1 Bft) O 94 ° 0 min 0,000 mm 4,4 UV-I 541 W/m² 17,0 °C 20,6 °C 6,4 km/h (2 Bft)
02.07.2019 11:41 20,6 °C 80 % 1016,5 hPa 0,0 mm 2,5 km/h (1 Bft) O 94 ° 0 min 0,000 mm 5,6 UV-I 541 W/m² 17,0 °C 20,6 °C 4,8 km/h (1 Bft)
02.07.2019 11:42 20,7 °C 82 % 1016,5 hPa 0,0 mm 1,1 km/h (1 Bft) O 94 ° 0 min 0,000 mm 4,3 UV-I 541 W/m² 17,5 °C 20,7 °C 6,4 km/h (2 Bft)
02.07.2019 11:43 20,7 °C 80 % 1016,5 hPa 0,0 mm 4,4 km/h (1 Bft) N-NO 24 ° 0 min 0,000 mm 4,3 UV-I 476 W/m² 17,1 °C 20,7 °C 9,7 km/h (2 Bft)
02.07.2019 11:44 20,7 °C 79 % 1016,5 hPa 0,0 mm 4,2 km/h (1 Bft) NW 313 ° 0 min 0,000 mm 4,3 UV-I 473 W/m² 16,9 °C 20,7 °C 6,4 km/h (2 Bft)
02.07.2019 11:45 20,7 °C 80 % 1016,5 hPa 0,0 mm 3,4 km/h (1 Bft) W-NW 291 ° 0 min 0,000 mm 5,2 UV-I 473 W/m² 17,1 °C 20,7 °C 4,8 km/h (1 Bft)
02.07.2019 11:46 20,8 °C 79 % 1016,5 hPa 0,0 mm 3,9 km/h (1 Bft) W-NW 292 ° 0 min 0,000 mm 4,4 UV-I 473 W/m² 17,0 °C 20,8 °C 6,4 km/h (2 Bft)
02.07.2019 11:47 20,8 °C 80 % 1016,5 hPa 0,0 mm 1,6 km/h (1 Bft) N 5 ° 0 min 0,000 mm 6,0 UV-I 473 W/m² 17,2 °C 20,8 °C 4,8 km/h (1 Bft)
02.07.2019 11:48 21,0 °C 79 % 1016,5 hPa 0,0 mm 2,7 km/h (1 Bft) N-NO 28 ° 0 min 0,000 mm 3,9 UV-I 473 W/m² 17,2 °C 21,0 °C 4,8 km/h (1 Bft)
02.07.2019 11:49 21,1 °C 79 % 1016,5 hPa 0,0 mm 3,1 km/h (1 Bft) N 9 ° 0 min 0,000 mm 3,6 UV-I 338 W/m² 17,3 °C 21,1 °C 6,4 km/h (2 Bft)
02.07.2019 11:50 21,1 °C 78 % 1016,5 hPa 0,0 mm 1,5 km/h (1 Bft) N 360 ° 0 min 0,000 mm 3,4 UV-I 327 W/m² 17,1 °C 21,1 °C 3,2 km/h (1 Bft)
02.07.2019 11:51 21,2 °C 80 % 1016,5 hPa 0,0 mm 4,2 km/h (1 Bft) N-NW 333 ° 0 min 0,000 mm 3,3 UV-I 301 W/m² 17,6 °C 21,2 °C 8,0 km/h (2 Bft)
02.07.2019 11:52 21,2 °C 80 % 1016,5 hPa 0,0 mm 5,1 km/h (1 Bft) N-NW 338 ° 0 min 0,000 mm 3,5 UV-I 316 W/m² 17,6 °C 21,2 °C 6,4 km/h (2 Bft)
02.07.2019 11:53 21,2 °C 81 % 1016,6 hPa 0,0 mm 2,6 km/h (1 Bft) N 9 ° 0 min 0,000 mm 3,9 UV-I 374 W/m² 17,8 °C 21,2 °C 4,8 km/h (1 Bft)
02.07.2019 11:54 21,1 °C 78 % 1016,5 hPa 0,0 mm 2,7 km/h (1 Bft) N-NO 12 ° 0 min 0,000 mm 4,5 UV-I 374 W/m² 17,1 °C 21,1 °C 4,8 km/h (1 Bft)
02.07.2019 11:55 20,9 °C 78 % 1016,5 hPa 0,0 mm 0,9 km/h (0 Bft) NO 47 ° 0 min 0,000 mm 4,1 UV-I 455 W/m² 16,9 °C 20,9 °C 3,2 km/h (1 Bft)
02.07.2019 11:56 21,0 °C 80 % 1016,5 hPa 0,0 mm 2,0 km/h (1 Bft) NO 36 ° 0 min 0,000 mm 6,3 UV-I 455 W/m² 17,4 °C 21,0 °C 4,8 km/h (1 Bft)
02.07.2019 11:57 21,0 °C 80 % 1016,5 hPa 0,0 mm 1,7 km/h (1 Bft) NO 37 ° 0 min 0,000 mm 4,2 UV-I 455 W/m² 17,4 °C 21,0 °C 3,2 km/h (1 Bft)
02.07.2019 11:58 21,0 °C 81 % 1016,5 hPa 0,0 mm 2,0 km/h (1 Bft) NO 36 ° 0 min 0,000 mm 6,6 UV-I 455 W/m² 17,6 °C 21,0 °C 3,2 km/h (1 Bft)
02.07.2019 11:59 21,2 °C 81 % 1016,5 hPa 0,0 mm 0,0 km/h (0 Bft) O 79 ° 0 min 0,000 mm 4,1 UV-I 455 W/m² 17,8 °C 21,2 °C 0,0 km/h (0 Bft)
02.07.2019 12:00 21,2 °C 78 % 1016,5 hPa 0,0 mm 1,9 km/h (1 Bft) NO 45 ° 0 min 0,000 mm 4,2 UV-I 436 W/m² 17,2 °C 21,2 °C 4,8 km/h (1 Bft)
02.07.2019 12:01 21,1 °C 79 % 1016,5 hPa 0,0 mm 0,4 km/h (0 Bft) NO 45 ° 0 min 0,330 mm 3,4 UV-I 373 W/m² 17,3 °C 21,1 °C 3,2 km/h (1 Bft)
02.07.2019 12:02 21,1 °C 79 % 1016,6 hPa 0,0 mm 2,3 km/h (1 Bft) NO 48 ° 0 min 0,000 mm 3,0 UV-I 336 W/m² 17,3 °C 21,1 °C 4,8 km/h (1 Bft)
02.07.2019 12:03 21,2 °C 79 % 1016,6 hPa 0,0 mm 2,0 km/h (1 Bft) NW 317 ° 0 min 0,000 mm 2,7 UV-I 301 W/m² 17,4 °C 21,2 °C 4,8 km/h (1 Bft)
02.07.2019 12:04 21,3 °C 79 % 1016,5 hPa 0,0 mm 3,0 km/h (1 Bft) N 5 ° 0 min 0,000 mm 2,7 UV-I 287 W/m² 17,5 °C 21,3 °C 4,8 km/h (1 Bft)
02.07.2019 12:05 21,3 °C 80 % 1016,6 hPa 0,0 mm 5,3 km/h (1 Bft) N-NO 29 ° 0 min 0,000 mm 2,8 UV-I 287 W/m² 17,7 °C 21,3 °C 6,4 km/h (2 Bft)
02.07.2019 12:06 21,3 °C 79 % 1016,6 hPa 0,0 mm 1,7 km/h (1 Bft) N-NO 29 ° 0 min 0,000 mm 3,1 UV-I 343 W/m² 17,5 °C 21,3 °C 4,8 km/h (1 Bft)
02.07.2019 12:07 21,3 °C 79 % 1016,6 hPa 0,0 mm 0,5 km/h (0 Bft) N-NO 29 ° 0 min 0,000 mm 3,8 UV-I 364 W/m² 17,5 °C 21,3 °C 3,2 km/h (1 Bft)
02.07.2019 12:08 21,3 °C 81 % 1016,6 hPa 0,0 mm 1,3 km/h (1 Bft) N-NO 29 ° 0 min 0,000 mm 4,1 UV-I 399 W/m² 17,9 °C 21,3 °C 1,6 km/h (1 Bft)
02.07.2019 12:09 21,3 °C 79 % 1016,6 hPa 0,0 mm 0,1 km/h (0 Bft) N-NO 29 ° 0 min 0,000 mm 4,5 UV-I 492 W/m² 17,5 °C 21,3 °C 1,6 km/h (1 Bft)
02.07.2019 12:10 21,3 °C 80 % 1016,6 hPa 0,0 mm 0,0 km/h (0 Bft) N-NO 29 ° 0 min 0,000 mm 6,9 UV-I 492 W/m² 17,7 °C 21,3 °C 0,0 km/h (0 Bft)
02.07.2019 12:11 21,3 °C 77 % 1016,6 hPa 0,0 mm 0,5 km/h (0 Bft) N 5 ° 0 min 0,000 mm 4,8 UV-I 492 W/m² 17,1 °C 21,3 °C 1,6 km/h (1 Bft)
02.07.2019 12:12 21,2 °C 77 % 1016,6 hPa 0,0 mm 2,3 km/h (1 Bft) W-SW 256 ° 0 min 0,000 mm 4,8 UV-I 527 W/m² 17,0 °C 21,2 °C 4,8 km/h (1 Bft)
02.07.2019 12:13 21,3 °C 80 % 1016,6 hPa 0,0 mm 2,8 km/h (1 Bft) W-SW 256 ° 0 min 0,000 mm 5,4 UV-I 568 W/m² 17,7 °C 21,3 °C 4,8 km/h (1 Bft)
02.07.2019 12:14 21,4 °C 80 % 1016,6 hPa 0,0 mm 2,7 km/h (1 Bft) NW 317 ° 0 min 0,000 mm 7,8 UV-I 568 W/m² 17,8 °C 21,4 °C 4,8 km/h (1 Bft)
02.07.2019 12:15 21,4 °C 79 % 1016,6 hPa 0,0 mm 3,7 km/h (1 Bft) W-NW 296 ° 1 min 0,000 mm 7,7 UV-I 1044 W/m² 17,6 °C 21,4 °C 6,4 km/h (2 Bft)
02.07.2019 12:16 21,5 °C 78 % 1016,6 hPa 0,0 mm 5,2 km/h (1 Bft) NW 318 ° 1 min 0,000 mm 6,3 UV-I 1044 W/m² 17,5 °C 21,5 °C 6,4 km/h (2 Bft)
02.07.2019 12:17 21,5 °C 78 % 1016,6 hPa 0,0 mm 4,0 km/h (1 Bft) N 9 ° 1 min 0,000 mm 6,2 UV-I 1044 W/m² 17,5 °C 21,5 °C 6,4 km/h (2 Bft)
02.07.2019 12:18 21,6 °C 77 % 1016,6 hPa 0,0 mm 1,4 km/h (1 Bft) N 11 ° 1 min 0,000 mm 7,7 UV-I 1044 W/m² 17,4 °C 21,6 °C 3,2 km/h (1 Bft)
02.07.2019 12:19 21,6 °C 77 % 1016,6 hPa 0,0 mm 1,5 km/h (1 Bft) N 11 ° 1 min 0,000 mm 8,2 UV-I 1116 W/m² 17,4 °C 21,6 °C 3,2 km/h (1 Bft)
02.07.2019 12:20 21,8 °C 79 % 1016,6 hPa 0,0 mm 0,2 km/h (0 Bft) W-SW 254 ° 1 min 0,000 mm 8,2 UV-I 1139 W/m² 18,0 °C 21,8 °C 1,6 km/h (1 Bft)
02.07.2019 12:21 22,1 °C 84 % 1016,6 hPa 0,0 mm 6,4 km/h (2 Bft) W-SW 251 ° 1 min 0,000 mm 8,2 UV-I 1143 W/m² 19,3 °C 22,1 °C 8,0 km/h (2 Bft)
02.07.2019 12:22 22,2 °C 79 % 1016,6 hPa 0,0 mm 1,4 km/h (1 Bft) W-SW 251 ° 1 min 0,000 mm 7,9 UV-I 1071 W/m² 18,4 °C 22,2 °C 3,2 km/h (1 Bft)
02.07.2019 12:23 22,2 °C 77 % 1016,5 hPa 0,0 mm 2,6 km/h (1 Bft) S-SW 209 ° 1 min 0,000 mm 7,6 UV-I 1136 W/m² 18,0 °C 22,2 °C 4,8 km/h (1 Bft)
02.07.2019 12:24 22,2 °C 76 % 1016,5 hPa 0,0 mm 1,3 km/h (1 Bft) W-SW 247 ° 0 min 0,000 mm 5,5 UV-I 445 W/m² 17,8 °C 22,2 °C 4,8 km/h (1 Bft)
02.07.2019 12:25 22,1 °C 77 % 1016,6 hPa 0,0 mm 4,4 km/h (1 Bft) W-NW 300 ° 0 min 0,000 mm 2,6 UV-I 445 W/m² 17,9 °C 22,1 °C 6,4 km/h (2 Bft)
02.07.2019 12:26 22,1 °C 78 % 1016,6 hPa 0,0 mm 4,3 km/h (1 Bft) N 11 ° 0 min 0,000 mm 2,2 UV-I 236 W/m² 18,1 °C 22,1 °C 8,0 km/h (2 Bft)
02.07.2019 12:27 22,1 °C 78 % 1016,6 hPa 0,0 mm 7,6 km/h (2 Bft) N 360 ° 0 min 0,000 mm 2,2 UV-I 220 W/m² 18,1 °C 22,1 °C 11,3 km/h (2 Bft)
02.07.2019 12:28 22,1 °C 76 % 1016,7 hPa 0,0 mm 5,2 km/h (1 Bft) N 5 ° 0 min 0,000 mm 2,2 UV-I 209 W/m² 17,7 °C 22,1 °C 8,0 km/h (2 Bft)
02.07.2019 12:29 21,8 °C 75 % 1016,6 hPa 0,0 mm 2,2 km/h (1 Bft) N 5 ° 0 min 0,000 mm 2,3 UV-I 206 W/m² 17,2 °C 21,8 °C 4,8 km/h (1 Bft)
02.07.2019 12:30 21,7 °C 76 % 1016,6 hPa 0,0 mm 1,7 km/h (1 Bft) N-NO 14 ° 0 min 0,000 mm 2,4 UV-I 204 W/m² 17,3 °C 21,7 °C 3,2 km/h (1 Bft)
02.07.2019 12:31 21,6 °C 78 % 1016,6 hPa 0,0 mm 4,0 km/h (1 Bft) NW 313 ° 0 min 0,000 mm 3,0 UV-I 239 W/m² 17,6 °C 21,6 °C 6,4 km/h (2 Bft)
02.07.2019 12:32 21,4 °C 78 % 1016,6 hPa 0,0 mm 1,4 km/h (1 Bft) NW 319 ° 0 min 0,000 mm 3,3 UV-I 279 W/m² 17,4 °C 21,4 °C 3,2 km/h (1 Bft)
02.07.2019 12:33 21,4 °C 80 % 1016,6 hPa 0,0 mm 2,4 km/h (1 Bft) W-NW 297 ° 0 min 0,000 mm 3,9 UV-I 332 W/m² 17,8 °C 21,4 °C 6,4 km/h (2 Bft)
02.07.2019 12:34 21,4 °C 78 % 1016,6 hPa 0,0 mm 3,8 km/h (1 Bft) NW 315 ° 0 min 0,000 mm 4,8 UV-I 332 W/m² 17,4 °C 21,4 °C 6,4 km/h (2 Bft)
02.07.2019 12:35 21,3 °C 79 % 1016,6 hPa 0,0 mm 3,0 km/h (1 Bft) N-NW 328 ° 0 min 0,000 mm 4,0 UV-I 332 W/m² 17,5 °C 21,3 °C 6,4 km/h (2 Bft)
02.07.2019 12:36 21,4 °C 80 % 1016,6 hPa 0,0 mm 3,2 km/h (1 Bft) N 5 ° 0 min 0,000 mm 5,5 UV-I 332 W/m² 17,8 °C 21,4 °C 6,4 km/h (2 Bft)
02.07.2019 12:37 21,7 °C 83 % 1016,7 hPa 0,0 mm 4,9 km/h (1 Bft) NW 305 ° 0 min 0,000 mm 3,8 UV-I 332 W/m² 18,7 °C 21,7 °C 8,0 km/h (2 Bft)
02.07.2019 12:38 21,8 °C 82 % 1016,7 hPa 0,0 mm 8,4 km/h (2 Bft) N-NW 327 ° 0 min 0,000 mm 3,5 UV-I 367 W/m² 18,6 °C 21,8 °C 12,9 km/h (3 Bft)
02.07.2019 12:39 21,8 °C 78 % 1016,7 hPa 0,0 mm 4,8 km/h (1 Bft) W-NW 294 ° 0 min 0,000 mm 3,6 UV-I 373 W/m² 17,8 °C 21,8 °C 8,0 km/h (2 Bft)
02.07.2019 12:40 21,7 °C 78 % 1016,7 hPa 0,0 mm 5,2 km/h (1 Bft) N-NW 346 ° 0 min 0,000 mm 3,2 UV-I 323 W/m² 17,7 °C 21,7 °C 8,0 km/h (2 Bft)
02.07.2019 12:41 21,6 °C 79 % 1016,8 hPa 0,0 mm 6,0 km/h (2 Bft) N 355 ° 0 min 0,000 mm 3,2 UV-I 322 W/m² 17,8 °C 21,6 °C 8,0 km/h (2 Bft)
02.07.2019 12:42 21,4 °C 79 % 1016,8 hPa 0,0 mm 6,4 km/h (2 Bft) NW 319 ° 0 min 0,000 mm 3,4 UV-I 322 W/m² 17,6 °C 21,4 °C 14,5 km/h (3 Bft)
02.07.2019 12:43 21,4 °C 81 % 1016,8 hPa 0,0 mm 6,8 km/h (2 Bft) NW 312 ° 0 min 0,000 mm 4,7 UV-I 415 W/m² 18,0 °C 21,4 °C 9,7 km/h (2 Bft)
02.07.2019 12:44 21,4 °C 80 % 1016,7 hPa 0,0 mm 7,3 km/h (2 Bft) N 355 ° 0 min 0,000 mm 3,7 UV-I 343 W/m² 17,8 °C 21,4 °C 8,0 km/h (2 Bft)
02.07.2019 12:45 21,4 °C 82 % 1016,7 hPa 0,0 mm 6,0 km/h (2 Bft) N-NW 329 ° 0 min 0,000 mm 3,7 UV-I 341 W/m² 18,2 °C 21,4 °C 9,7 km/h (2 Bft)
02.07.2019 12:46 21,3 °C 81 % 1016,8 hPa 0,0 mm 6,6 km/h (2 Bft) N 350 ° 0 min 0,000 mm 3,3 UV-I 315 W/m² 17,9 °C 21,3 °C 9,7 km/h (2 Bft)
02.07.2019 12:47 21,3 °C 81 % 1016,7 hPa 0,0 mm 5,1 km/h (1 Bft) NW 315 ° 0 min 0,000 mm 3,1 UV-I 285 W/m² 17,9 °C 21,3 °C 9,7 km/h (2 Bft)
02.07.2019 12:48 21,3 °C 81 % 1016,8 hPa 0,0 mm 2,8 km/h (1 Bft) N-NW 348 ° 0 min 0,000 mm 3,1 UV-I 352 W/m² 17,9 °C 21,3 °C 6,4 km/h (2 Bft)
02.07.2019 12:49 21,2 °C 81 % 1016,8 hPa 0,0 mm 7,2 km/h (2 Bft) N-NW 338 ° 0 min 0,000 mm 3,2 UV-I 308 W/m² 17,8 °C 21,2 °C 12,9 km/h (3 Bft)
02.07.2019 12:50 21,2 °C 81 % 1016,8 hPa 0,0 mm 7,3 km/h (2 Bft) N-NW 348 ° 0 min 0,000 mm 3,1 UV-I 302 W/m² 17,8 °C 21,2 °C 11,3 km/h (2 Bft)
02.07.2019 12:51 21,1 °C 81 % 1016,8 hPa 0,0 mm 4,0 km/h (1 Bft) N-NW 336 ° 0 min 0,000 mm 3,4 UV-I 353 W/m² 17,7 °C 21,1 °C 8,0 km/h (2 Bft)
02.07.2019 12:52 21,1 °C 81 % 1016,8 hPa 0,0 mm 5,0 km/h (1 Bft) NW 321 ° 0 min 0,000 mm 4,9 UV-I 353 W/m² 17,7 °C 21,1 °C 11,3 km/h (2 Bft)
02.07.2019 12:53 21,0 °C 81 % 1016,8 hPa 0,0 mm 6,0 km/h (2 Bft) N-NW 327 ° 0 min 0,000 mm 3,6 UV-I 362 W/m² 17,6 °C 21,0 °C 9,7 km/h (2 Bft)
02.07.2019 12:54 21,0 °C 81 % 1016,8 hPa 0,0 mm 5,3 km/h (1 Bft) NO 44 ° 0 min 0,000 mm 3,3 UV-I 343 W/m² 17,6 °C 21,0 °C 8,0 km/h (2 Bft)
02.07.2019 12:55 20,9 °C 81 % 1016,8 hPa 0,0 mm 6,9 km/h (2 Bft) N-NO 21 ° 0 min 0,000 mm 3,2 UV-I 323 W/m² 17,5 °C 20,9 °C 9,7 km/h (2 Bft)
02.07.2019 12:56 20,9 °C 81 % 1016,8 hPa 0,0 mm 3,2 km/h (1 Bft) N-NO 21 ° 0 min 0,000 mm 3,0 UV-I 274 W/m² 17,5 °C 20,9 °C 8,0 km/h (2 Bft)
02.07.2019 12:57 20,8 °C 80 % 1016,8 hPa 0,0 mm 6,8 km/h (2 Bft) N 9 ° 0 min 0,000 mm 3,2 UV-I 276 W/m² 17,2 °C 20,8 °C 11,3 km/h (2 Bft)
02.07.2019 12:58 20,8 °C 80 % 1016,7 hPa 0,0 mm 4,2 km/h (1 Bft) N 11 ° 0 min 0,000 mm 3,2 UV-I 299 W/m² 17,2 °C 20,8 °C 6,4 km/h (2 Bft)
02.07.2019 12:59 20,8 °C 81 % 1016,8 hPa 0,0 mm 4,8 km/h (1 Bft) NO 46 ° 0 min 0,000 mm 4,4 UV-I 432 W/m² 17,4 °C 20,8 °C 8,0 km/h (2 Bft)
02.07.2019 13:00 20,8 °C 82 % 1016,8 hPa 0,0 mm 7,0 km/h (2 Bft) NO 52 ° 0 min 0,000 mm 4,3 UV-I 461 W/m² 17,6 °C 20,8 °C 9,7 km/h (2 Bft)
02.07.2019 13:01 20,8 °C 80 % 1016,7 hPa 0,0 mm 3,2 km/h (1 Bft) N-NW 344 ° 0 min 0,305 mm 4,1 UV-I 399 W/m² 17,2 °C 20,8 °C 4,8 km/h (1 Bft)
02.07.2019 13:02 20,8 °C 82 % 1016,7 hPa 0,0 mm 2,7 km/h (1 Bft) N-NO 22 ° 0 min 0,000 mm 4,1 UV-I 415 W/m² 17,6 °C 20,8 °C 4,8 km/h (1 Bft)
02.07.2019 13:03 20,9 °C 83 % 1016,7 hPa 0,0 mm 3,6 km/h (1 Bft) N 11 ° 0 min 0,000 mm 4,3 UV-I 429 W/m² 17,9 °C 20,9 °C 4,8 km/h (1 Bft)
02.07.2019 13:04 20,9 °C 82 % 1016,7 hPa 0,0 mm 4,7 km/h (1 Bft) N 350 ° 0 min 0,000 mm 4,3 UV-I 464 W/m² 17,7 °C 20,9 °C 6,4 km/h (2 Bft)
02.07.2019 13:05 20,8 °C 80 % 1016,7 hPa 0,0 mm 2,8 km/h (1 Bft) N-NW 343 ° 0 min 0,000 mm 4,5 UV-I 464 W/m² 17,2 °C 20,8 °C 6,4 km/h (2 Bft)
02.07.2019 13:06 20,8 °C 80 % 1016,7 hPa 0,0 mm 3,2 km/h (1 Bft) NW 313 ° 0 min 0,000 mm 4,1 UV-I 422 W/m² 17,2 °C 20,8 °C 6,4 km/h (2 Bft)
02.07.2019 13:07 20,8 °C 80 % 1016,6 hPa 0,0 mm 4,6 km/h (1 Bft) W-NW 288 ° 0 min 0,000 mm 4,4 UV-I 489 W/m² 17,2 °C 20,8 °C 6,4 km/h (2 Bft)
02.07.2019 13:08 20,8 °C 81 % 1016,6 hPa 0,0 mm 3,4 km/h (1 Bft) NW 325 ° 0 min 0,000 mm 4,3 UV-I 434 W/m² 17,4 °C 20,8 °C 6,4 km/h (2 Bft)
02.07.2019 13:09 20,9 °C 80 % 1016,6 hPa 0,0 mm 3,9 km/h (1 Bft) NO 52 ° 0 min 0,000 mm 5,7 UV-I 434 W/m² 17,3 °C 20,9 °C 4,8 km/h (1 Bft)
02.07.2019 13:10 21,0 °C 81 % 1016,6 hPa 0,0 mm 4,6 km/h (1 Bft) N-NO 26 ° 0 min 0,000 mm 4,7 UV-I 434 W/m² 17,6 °C 21,0 °C 8,0 km/h (2 Bft)
02.07.2019 13:11 21,1 °C 81 % 1016,6 hPa 0,0 mm 5,6 km/h (1 Bft) N 360 ° 0 min 0,000 mm 5,9 UV-I 434 W/m² 17,7 °C 21,1 °C 8,0 km/h (2 Bft)
02.07.2019 13:12 21,2 °C 81 % 1016,6 hPa 0,0 mm 6,6 km/h (2 Bft) N 350 ° 1 min 0,000 mm 6,9 UV-I 1046 W/m² 17,8 °C 21,2 °C 8,0 km/h (2 Bft)
02.07.2019 13:13 21,3 °C 80 % 1016,6 hPa 0,0 mm 3,6 km/h (1 Bft) NO 56 ° 1 min 0,000 mm 4,4 UV-I 1046 W/m² 17,7 °C 21,3 °C 6,4 km/h (2 Bft)
02.07.2019 13:14 21,3 °C 79 % 1016,6 hPa 0,0 mm 2,8 km/h (1 Bft) NO 56 ° 0 min 0,000 mm 3,5 UV-I 408 W/m² 17,5 °C 21,3 °C 6,4 km/h (2 Bft)
02.07.2019 13:15 21,2 °C 78 % 1016,6 hPa 0,0 mm 0,1 km/h (0 Bft) NO 56 ° 0 min 0,000 mm 3,3 UV-I 376 W/m² 17,2 °C 21,2 °C 1,6 km/h (1 Bft)
02.07.2019 13:16 21,1 °C 80 % 1016,6 hPa 0,0 mm 0,0 km/h (0 Bft) NO 56 ° 0 min 0,000 mm 2,3 UV-I 376 W/m² 17,5 °C 21,1 °C 0,0 km/h (0 Bft)
02.07.2019 13:17 21,1 °C 81 % 1016,6 hPa 0,0 mm 1,9 km/h (1 Bft) NO 51 ° 0 min 0,000 mm 2,0 UV-I 139 W/m² 17,7 °C 21,1 °C 4,8 km/h (1 Bft)
02.07.2019 13:18 21,1 °C 80 % 1016,5 hPa 0,0 mm 6,0 km/h (2 Bft) N 355 ° 0 min 0,000 mm 1,4 UV-I 114 W/m² 17,5 °C 21,1 °C 12,9 km/h (3 Bft)
02.07.2019 13:19 21,1 °C 81 % 1016,5 hPa 0,0 mm 3,8 km/h (1 Bft) N-NW 337 ° 0 min 0,000 mm 1,5 UV-I 109 W/m² 17,7 °C 21,1 °C 6,4 km/h (2 Bft)
02.07.2019 13:20 21,1 °C 80 % 1016,6 hPa 0,0 mm 5,6 km/h (1 Bft) N-NW 328 ° 0 min 0,000 mm 1,7 UV-I 113 W/m² 17,5 °C 21,1 °C 8,0 km/h (2 Bft)
02.07.2019 13:21 21,1 °C 80 % 1016,6 hPa 0,0 mm 4,3 km/h (1 Bft) NW 313 ° 0 min 0,000 mm 1,9 UV-I 116 W/m² 17,5 °C 21,1 °C 8,0 km/h (2 Bft)
02.07.2019 13:22 20,9 °C 80 % 1016,6 hPa 0,0 mm 5,8 km/h (2 Bft) NW 322 ° 0 min 0,000 mm 2,0 UV-I 134 W/m² 17,3 °C 20,9 °C 8,0 km/h (2 Bft)
02.07.2019 13:23 20,8 °C 80 % 1016,6 hPa 0,0 mm 2,3 km/h (1 Bft) NW 323 ° 0 min 0,000 mm 2,5 UV-I 153 W/m² 17,2 °C 20,8 °C 4,8 km/h (1 Bft)
02.07.2019 13:24 20,7 °C 80 % 1016,6 hPa 0,0 mm 2,3 km/h (1 Bft) NW 321 ° 0 min 0,000 mm 2,8 UV-I 181 W/m² 17,1 °C 20,7 °C 4,8 km/h (1 Bft)
02.07.2019 13:25 20,7 °C 81 % 1016,6 hPa 0,0 mm 2,4 km/h (1 Bft) NW 323 ° 0 min 0,000 mm 3,1 UV-I 204 W/m² 17,3 °C 20,7 °C 4,8 km/h (1 Bft)
02.07.2019 13:26 20,6 °C 81 % 1016,6 hPa 0,0 mm 1,9 km/h (1 Bft) NW 320 ° 0 min 0,000 mm 3,6 UV-I 246 W/m² 17,2 °C 20,6 °C 4,8 km/h (1 Bft)
02.07.2019 13:27 20,6 °C 82 % 1016,5 hPa 0,0 mm 2,3 km/h (1 Bft) NW 319 ° 0 min 0,000 mm 4,8 UV-I 306 W/m² 17,4 °C 20,6 °C 3,2 km/h (1 Bft)
02.07.2019 13:28 20,7 °C 83 % 1016,5 hPa 0,0 mm 3,2 km/h (1 Bft) NW 326 ° 1 min 0,000 mm 7,4 UV-I 951 W/m² 17,7 °C 20,7 °C 4,8 km/h (1 Bft)
02.07.2019 13:29 20,9 °C 83 % 1016,5 hPa 0,0 mm 3,6 km/h (1 Bft) N-NW 337 ° 1 min 0,000 mm 4,7 UV-I 951 W/m² 17,9 °C 20,9 °C 4,8 km/h (1 Bft)
02.07.2019 13:30 21,0 °C 81 % 1016,5 hPa 0,0 mm 3,4 km/h (1 Bft) N-NW 336 ° 1 min 0,000 mm 7,4 UV-I 951 W/m² 17,6 °C 21,0 °C 4,8 km/h (1 Bft)
02.07.2019 13:31 21,1 °C 79 % 1016,5 hPa 0,0 mm 0,2 km/h (0 Bft) N-NW 336 ° 1 min 0,000 mm 7,5 UV-I 977 W/m² 17,3 °C 21,1 °C 1,6 km/h (1 Bft)
02.07.2019 13:32 21,2 °C 81 % 1016,5 hPa 0,0 mm 0,7 km/h (0 Bft) N-NW 337 ° 1 min 0,000 mm 7,4 UV-I 967 W/m² 17,8 °C 21,2 °C 4,8 km/h (1 Bft)
02.07.2019 13:33 21,3 °C 80 % 1016,5 hPa 0,0 mm 1,8 km/h (1 Bft) N-NW 337 ° 1 min 0,000 mm 7,4 UV-I 954 W/m² 17,7 °C 21,3 °C 4,8 km/h (1 Bft)
02.07.2019 13:34 21,3 °C 79 % 1016,4 hPa 0,0 mm 0,0 km/h (0 Bft) N-NW 337 ° 1 min 0,000 mm 7,5 UV-I 995 W/m² 17,5 °C 21,3 °C 0,0 km/h (0 Bft)
02.07.2019 13:35 21,4 °C 80 % 1016,4 hPa 0,0 mm 2,3 km/h (1 Bft) O-NO 67 ° 1 min 0,000 mm 7,7 UV-I 1002 W/m² 17,8 °C 21,4 °C 4,8 km/h (1 Bft)
02.07.2019 13:36 21,6 °C 82 % 1016,4 hPa 0,0 mm 6,1 km/h (2 Bft) O-NO 76 ° 1 min 0,000 mm 7,8 UV-I 1035 W/m² 18,4 °C 21,6 °C 11,3 km/h (2 Bft)
02.07.2019 13:37 21,7 °C 79 % 1016,4 hPa 0,0 mm 3,9 km/h (1 Bft) O-NO 58 ° 1 min 0,000 mm 7,8 UV-I 1069 W/m² 17,9 °C 21,7 °C 6,4 km/h (2 Bft)
02.07.2019 13:38 21,7 °C 80 % 1016,4 hPa 0,0 mm 0,2 km/h (0 Bft) O 89 ° 1 min 0,000 mm 7,4 UV-I 1069 W/m² 18,1 °C 21,7 °C 3,2 km/h (1 Bft)
02.07.2019 13:39 21,8 °C 80 % 1016,4 hPa 0,0 mm 3,2 km/h (1 Bft) O-SO 107 ° 1 min 0,000 mm 5,1 UV-I 1069 W/m² 18,2 °C 21,8 °C 6,4 km/h (2 Bft)
02.07.2019 13:40 21,8 °C 79 % 1016,3 hPa 0,0 mm 5,5 km/h (1 Bft) O-NO 58 ° 1 min 0,000 mm 6,4 UV-I 1069 W/m² 18,0 °C 21,8 °C 8,0 km/h (2 Bft)
02.07.2019 13:41 21,8 °C 79 % 1016,4 hPa 0,0 mm 2,7 km/h (1 Bft) O-NO 58 ° 0 min 0,000 mm 3,5 UV-I 373 W/m² 18,0 °C 21,8 °C 4,8 km/h (1 Bft)
02.07.2019 13:42 21,7 °C 77 % 1016,3 hPa 0,0 mm 2,9 km/h (1 Bft) O-NO 70 ° 0 min 0,000 mm 3,4 UV-I 362 W/m² 17,5 °C 21,7 °C 6,4 km/h (2 Bft)
02.07.2019 13:43 21,7 °C 78 % 1016,3 hPa 0,0 mm 7,3 km/h (2 Bft) N 355 ° 0 min 0,000 mm 3,5 UV-I 381 W/m² 17,7 °C 21,7 °C 9,7 km/h (2 Bft)
02.07.2019 13:44 21,6 °C 77 % 1016,3 hPa 0,0 mm 4,2 km/h (1 Bft) N-NW 347 ° 0 min 0,000 mm 5,8 UV-I 381 W/m² 17,4 °C 21,6 °C 8,0 km/h (2 Bft)
02.07.2019 13:45 21,7 °C 79 % 1016,3 hPa 0,0 mm 2,0 km/h (1 Bft) N 355 ° 0 min 0,000 mm 3,9 UV-I 381 W/m² 17,9 °C 21,7 °C 4,8 km/h (1 Bft)
02.07.2019 13:46 21,9 °C 77 % 1016,3 hPa 0,0 mm 2,7 km/h (1 Bft) N-NO 20 ° 0 min 0,000 mm 3,1 UV-I 381 W/m² 17,7 °C 21,9 °C 4,8 km/h (1 Bft)
02.07.2019 13:47 21,9 °C 77 % 1016,3 hPa 0,0 mm 3,9 km/h (1 Bft) NO 56 ° 0 min 0,000 mm 2,2 UV-I 253 W/m² 17,7 °C 21,9 °C 6,4 km/h (2 Bft)
02.07.2019 13:48 21,8 °C 77 % 1016,3 hPa 0,0 mm 2,5 km/h (1 Bft) NO 49 ° 0 min 0,000 mm 1,9 UV-I 213 W/m² 17,6 °C 21,8 °C 6,4 km/h (2 Bft)
02.07.2019 13:49 21,7 °C 76 % 1016,3 hPa 0,0 mm 1,3 km/h (1 Bft) NO 49 ° 0 min 0,000 mm 1,7 UV-I 185 W/m² 17,3 °C 21,7 °C 3,2 km/h (1 Bft)
02.07.2019 13:50 21,6 °C 77 % 1016,2 hPa 0,0 mm 0,3 km/h (0 Bft) NO 49 ° 0 min 0,000 mm 1,5 UV-I 167 W/m² 17,4 °C 21,6 °C 1,6 km/h (1 Bft)
02.07.2019 13:51 21,4 °C 78 % 1016,3 hPa 0,0 mm 0,4 km/h (0 Bft) NO 49 ° 0 min 0,000 mm 1,4 UV-I 155 W/m² 17,4 °C 21,4 °C 1,6 km/h (1 Bft)
02.07.2019 13:52 21,4 °C 79 % 1016,3 hPa 0,0 mm 5,3 km/h (1 Bft) O 88 ° 0 min 0,000 mm 1,3 UV-I 135 W/m² 17,6 °C 21,4 °C 11,3 km/h (2 Bft)
02.07.2019 13:53 21,3 °C 79 % 1016,3 hPa 0,0 mm 7,0 km/h (2 Bft) NO 46 ° 0 min 0,000 mm 1,3 UV-I 144 W/m² 17,5 °C 21,3 °C 11,3 km/h (2 Bft)
02.07.2019 13:54 21,2 °C 79 % 1016,2 hPa 0,0 mm 6,2 km/h (2 Bft) O-NO 63 ° 0 min 0,000 mm 1,5 UV-I 158 W/m² 17,4 °C 21,2 °C 8,0 km/h (2 Bft)
02.07.2019 13:55 21,2 °C 79 % 1016,2 hPa 0,0 mm 6,9 km/h (2 Bft) O-NO 78 ° 0 min 0,000 mm 1,6 UV-I 165 W/m² 17,4 °C 21,2 °C 11,3 km/h (2 Bft)
02.07.2019 13:56 21,1 °C 79 % 1016,2 hPa 0,0 mm 4,5 km/h (1 Bft) O-NO 73 ° 0 min 0,000 mm 1,7 UV-I 167 W/m² 17,3 °C 21,1 °C 8,0 km/h (2 Bft)
02.07.2019 13:57 21,0 °C 79 % 1016,2 hPa 0,0 mm 1,1 km/h (1 Bft) O-NO 71 ° 0 min 0,000 mm 1,7 UV-I 160 W/m² 17,2 °C 21,0 °C 3,2 km/h (1 Bft)
02.07.2019 13:58 20,9 °C 80 % 1016,2 hPa 0,0 mm 0,1 km/h (0 Bft) O-NO 71 ° 0 min 0,000 mm 1,4 UV-I 146 W/m² 17,3 °C 20,9 °C 1,6 km/h (1 Bft)
02.07.2019 13:59 20,9 °C 80 % 1016,2 hPa 0,0 mm 0,1 km/h (0 Bft) O-NO 71 ° 0 min 0,000 mm 1,3 UV-I 135 W/m² 17,3 °C 20,9 °C 1,6 km/h (1 Bft)
02.07.2019 14:00 20,9 °C 82 % 1016,2 hPa 0,0 mm 2,6 km/h (1 Bft) N-NW 348 ° 0 min 0,000 mm 1,3 UV-I 130 W/m² 17,7 °C 20,9 °C 4,8 km/h (1 Bft)
02.07.2019 14:01 20,9 °C 81 % 1016,2 hPa 0,0 mm 4,1 km/h (1 Bft) N-NW 342 ° 0 min 0,279 mm 1,3 UV-I 130 W/m² 17,5 °C 20,9 °C 8,0 km/h (2 Bft)
02.07.2019 14:02 20,9 °C 81 % 1016,2 hPa 0,0 mm 4,8 km/h (1 Bft) N 5 ° 0 min 0,000 mm 1,3 UV-I 137 W/m² 17,5 °C 20,9 °C 8,0 km/h (2 Bft)
02.07.2019 14:03 21,0 °C 81 % 1016,2 hPa 0,0 mm 3,4 km/h (1 Bft) N-NW 331 ° 0 min 0,000 mm 1,5 UV-I 163 W/m² 17,6 °C 21,0 °C 6,4 km/h (2 Bft)
02.07.2019 14:04 21,1 °C 81 % 1016,2 hPa 0,0 mm 3,4 km/h (1 Bft) NW 322 ° 0 min 0,000 mm 1,9 UV-I 185 W/m² 17,7 °C 21,1 °C 6,4 km/h (2 Bft)
02.07.2019 14:05 21,1 °C 80 % 1016,1 hPa 0,0 mm 1,8 km/h (1 Bft) NW 322 ° 0 min 0,000 mm 2,2 UV-I 213 W/m² 17,5 °C 21,1 °C 3,2 km/h (1 Bft)
02.07.2019 14:06 21,1 °C 80 % 1016,1 hPa 0,0 mm 2,3 km/h (1 Bft) N-NO 24 ° 0 min 0,000 mm 2,5 UV-I 251 W/m² 17,5 °C 21,1 °C 6,4 km/h (2 Bft)
02.07.2019 14:07 21,2 °C 80 % 1016,1 hPa 0,0 mm 3,0 km/h (1 Bft) N-NO 33 ° 0 min 0,000 mm 2,9 UV-I 306 W/m² 17,6 °C 21,2 °C 4,8 km/h (1 Bft)
02.07.2019 14:08 21,2 °C 79 % 1016,1 hPa 0,0 mm 1,3 km/h (1 Bft) NO 49 ° 0 min 0,000 mm 3,2 UV-I 348 W/m² 17,4 °C 21,2 °C 3,2 km/h (1 Bft)
02.07.2019 14:09 21,2 °C 79 % 1016,1 hPa 0,0 mm 4,0 km/h (1 Bft) NO 55 ° 0 min 0,000 mm 3,2 UV-I 353 W/m² 17,4 °C 21,2 °C 4,8 km/h (1 Bft)
02.07.2019 14:10 21,2 °C 79 % 1016,1 hPa 0,0 mm 2,7 km/h (1 Bft) NO 55 ° 0 min 0,000 mm 4,3 UV-I 434 W/m² 17,4 °C 21,2 °C 4,8 km/h (1 Bft)
02.07.2019 14:11 21,4 °C 80 % 1016,1 hPa 0,0 mm 4,1 km/h (1 Bft) O-NO 63 ° 0 min 0,000 mm 3,7 UV-I 434 W/m² 17,8 °C 21,4 °C 6,4 km/h (2 Bft)
02.07.2019 14:12 21,5 °C 79 % 1016,0 hPa 0,0 mm 4,8 km/h (1 Bft) O-NO 61 ° 0 min 0,000 mm 3,4 UV-I 394 W/m² 17,7 °C 21,5 °C 6,4 km/h (2 Bft)
02.07.2019 14:13 21,6 °C 79 % 1016,1 hPa 0,0 mm 4,8 km/h (1 Bft) O-NO 63 ° 0 min 0,000 mm 3,2 UV-I 345 W/m² 17,8 °C 21,6 °C 8,0 km/h (2 Bft)
02.07.2019 14:14 21,5 °C 78 % 1016,1 hPa 0,0 mm 1,3 km/h (1 Bft) NO 47 ° 0 min 0,000 mm 3,4 UV-I 387 W/m² 17,5 °C 21,5 °C 3,2 km/h (1 Bft)
02.07.2019 14:15 21,3 °C 81 % 1016,1 hPa 0,0 mm 4,2 km/h (1 Bft) O-SO 105 ° 0 min 0,000 mm 3,2 UV-I 318 W/m² 17,9 °C 21,3 °C 8,0 km/h (2 Bft)
02.07.2019 14:16 21,2 °C 80 % 1016,1 hPa 0,0 mm 4,6 km/h (1 Bft) O 96 ° 0 min 0,000 mm 2,4 UV-I 271 W/m² 17,6 °C 21,2 °C 14,5 km/h (3 Bft)
02.07.2019 14:17 21,1 °C 80 % 1016,1 hPa 0,0 mm 6,7 km/h (2 Bft) O-NO 65 ° 0 min 0,000 mm 2,0 UV-I 229 W/m² 17,5 °C 21,1 °C 16,1 km/h (3 Bft)
02.07.2019 14:18 20,9 °C 80 % 1016,1 hPa 0,0 mm 3,5 km/h (1 Bft) SO 127 ° 0 min 0,000 mm 1,8 UV-I 200 W/m² 17,3 °C 20,9 °C 8,0 km/h (2 Bft)
02.07.2019 14:19 20,9 °C 81 % 1016,1 hPa 0,0 mm 2,2 km/h (1 Bft) O 95 ° 0 min 0,000 mm 1,5 UV-I 178 W/m² 17,5 °C 20,9 °C 4,8 km/h (1 Bft)
02.07.2019 14:20 20,9 °C 81 % 1016,1 hPa 0,0 mm 2,3 km/h (1 Bft) O 93 ° 0 min 0,000 mm 1,4 UV-I 160 W/m² 17,5 °C 20,9 °C 4,8 km/h (1 Bft)
02.07.2019 14:21 20,8 °C 81 % 1016,1 hPa 0,0 mm 1,4 km/h (1 Bft) O 82 ° 0 min 0,000 mm 1,3 UV-I 144 W/m² 17,4 °C 20,8 °C 3,2 km/h (1 Bft)
02.07.2019 14:22 20,8 °C 82 % 1016,1 hPa 0,0 mm 3,5 km/h (1 Bft) O-NO 61 ° 0 min 0,000 mm 1,1 UV-I 137 W/m² 17,6 °C 20,8 °C 4,8 km/h (1 Bft)
02.07.2019 14:23 20,8 °C 81 % 1016,1 hPa 0,0 mm 5,4 km/h (1 Bft) O-NO 63 ° 0 min 0,000 mm 1,0 UV-I 127 W/m² 17,4 °C 20,8 °C 6,4 km/h (2 Bft)
02.07.2019 14:24 20,8 °C 81 % 1016,1 hPa 0,0 mm 3,1 km/h (1 Bft) O-NO 71 ° 0 min 0,000 mm 1,0 UV-I 120 W/m² 17,4 °C 20,8 °C 6,4 km/h (2 Bft)
02.07.2019 14:25 20,7 °C 82 % 1016,1 hPa 0,0 mm 4,1 km/h (1 Bft) O-NO 78 ° 0 min 0,000 mm 1,0 UV-I 114 W/m² 17,5 °C 20,7 °C 6,4 km/h (2 Bft)
02.07.2019 14:26 20,7 °C 81 % 1016,1 hPa 0,0 mm 5,1 km/h (1 Bft) O 96 ° 0 min 0,000 mm 0,9 UV-I 105 W/m² 17,3 °C 20,7 °C 6,4 km/h (2 Bft)
02.07.2019 14:27 20,7 °C 82 % 1016,1 hPa 0,0 mm 2,6 km/h (1 Bft) O 94 ° 0 min 0,000 mm 0,9 UV-I 88 W/m² 17,5 °C 20,7 °C 6,4 km/h (2 Bft)
02.07.2019 14:28 20,7 °C 81 % 1016,1 hPa 0,0 mm 0,1 km/h (0 Bft) O 94 ° 0 min 0,000 mm 0,8 UV-I 83 W/m² 17,3 °C 20,7 °C 1,6 km/h (1 Bft)
02.07.2019 14:29 20,6 °C 82 % 1016,1 hPa 0,0 mm 3,4 km/h (1 Bft) O 90 ° 0 min 0,000 mm 0,9 UV-I 83 W/m² 17,4 °C 20,6 °C 6,4 km/h (2 Bft)
02.07.2019 14:30 20,6 °C 83 % 1016,1 hPa 0,0 mm 0,8 km/h (0 Bft) O 90 ° 0 min 0,000 mm 0,9 UV-I 83 W/m² 17,6 °C 20,6 °C 3,2 km/h (1 Bft)
02.07.2019 14:31 20,5 °C 82 % 1016,1 hPa 0,0 mm 2,2 km/h (1 Bft) NO 53 ° 0 min 0,000 mm 0,9 UV-I 83 W/m² 17,3 °C 20,5 °C 6,4 km/h (2 Bft)
02.07.2019 14:32 20,5 °C 83 % 1016,1 hPa 0,0 mm 4,5 km/h (1 Bft) O 80 ° 0 min 0,000 mm 0,8 UV-I 83 W/m² 17,5 °C 20,5 °C 6,4 km/h (2 Bft)
02.07.2019 14:33 20,5 °C 83 % 1016,1 hPa 0,0 mm 6,0 km/h (2 Bft) O-SO 103 ° 0 min 0,000 mm 0,8 UV-I 84 W/m² 17,5 °C 20,5 °C 8,0 km/h (2 Bft)
02.07.2019 14:34 20,5 °C 83 % 1016,1 hPa 0,0 mm 5,5 km/h (1 Bft) O-NO 76 ° 0 min 0,000 mm 0,9 UV-I 86 W/m² 17,5 °C 20,5 °C 8,0 km/h (2 Bft)
02.07.2019 14:35 20,5 °C 83 % 1016,1 hPa 0,0 mm 2,2 km/h (1 Bft) NO 34 ° 0 min 0,000 mm 0,9 UV-I 90 W/m² 17,5 °C 20,5 °C 6,4 km/h (2 Bft)
02.07.2019 14:36 20,4 °C 83 % 1016,0 hPa 0,0 mm 5,4 km/h (1 Bft) O-NO 65 ° 0 min 0,000 mm 0,9 UV-I 91 W/m² 17,4 °C 20,4 °C 9,7 km/h (2 Bft)
02.07.2019 14:37 20,4 °C 83 % 1016,0 hPa 0,0 mm 6,5 km/h (2 Bft) O-NO 77 ° 0 min 0,000 mm 1,0 UV-I 97 W/m² 17,4 °C 20,4 °C 11,3 km/h (2 Bft)
02.07.2019 14:38 20,3 °C 83 % 1016,0 hPa 0,0 mm 6,8 km/h (2 Bft) O-NO 73 ° 0 min 0,000 mm 1,0 UV-I 95 W/m² 17,3 °C 20,3 °C 11,3 km/h (2 Bft)
02.07.2019 14:39 20,3 °C 83 % 1016,0 hPa 0,0 mm 6,2 km/h (2 Bft) O-NO 67 ° 0 min 0,000 mm 0,9 UV-I 86 W/m² 17,3 °C 20,3 °C 11,3 km/h (2 Bft)
02.07.2019 14:40 20,3 °C 83 % 1015,9 hPa 0,0 mm 7,4 km/h (2 Bft) NO 51 ° 0 min 0,000 mm 0,8 UV-I 76 W/m² 17,3 °C 20,3 °C 9,7 km/h (2 Bft)
02.07.2019 14:41 20,3 °C 83 % 1016,0 hPa 0,0 mm 2,7 km/h (1 Bft) NO 48 ° 0 min 0,000 mm 0,7 UV-I 76 W/m² 17,3 °C 20,3 °C 6,4 km/h (2 Bft)
02.07.2019 14:42 20,3 °C 84 % 1016,0 hPa 0,0 mm 3,5 km/h (1 Bft) NO 48 ° 0 min 0,000 mm 0,7 UV-I 65 W/m² 17,5 °C 20,3 °C 4,8 km/h (1 Bft)
02.07.2019 14:43 20,3 °C 83 % 1016,1 hPa 0,0 mm 1,1 km/h (1 Bft) NO 48 ° 0 min 0,000 mm 0,6 UV-I 62 W/m² 17,3 °C 20,3 °C 3,2 km/h (1 Bft)
02.07.2019 14:44 20,3 °C 83 % 1016,1 hPa 0,0 mm 0,7 km/h (0 Bft) NO 48 ° 0 min 0,000 mm 0,6 UV-I 58 W/m² 17,3 °C 20,3 °C 3,2 km/h (1 Bft)
02.07.2019 14:45 20,2 °C 83 % 1016,1 hPa 0,0 mm 0,0 km/h (0 Bft) NO 48 ° 0 min 0,000 mm 0,5 UV-I 58 W/m² 17,2 °C 20,2 °C 0,0 km/h (0 Bft)
02.07.2019 14:46 20,2 °C 84 % 1016,1 hPa 0,0 mm 2,1 km/h (1 Bft) O-NO 63 ° 0 min 0,000 mm 0,5 UV-I 58 W/m² 17,4 °C 20,2 °C 8,0 km/h (2 Bft)
02.07.2019 14:47 20,2 °C 84 % 1016,1 hPa 0,0 mm 4,7 km/h (1 Bft) SO 138 ° 0 min 0,000 mm 0,5 UV-I 60 W/m² 17,4 °C 20,2 °C 6,4 km/h (2 Bft)
02.07.2019 14:48 20,1 °C 84 % 1016,1 hPa 0,0 mm 2,5 km/h (1 Bft) O-NO 71 ° 0 min 0,000 mm 0,6 UV-I 62 W/m² 17,3 °C 20,1 °C 6,4 km/h (2 Bft)
02.07.2019 14:49 20,1 °C 84 % 1016,0 hPa 0,0 mm 4,4 km/h (1 Bft) O-NO 68 ° 0 min 0,000 mm 0,6 UV-I 67 W/m² 17,3 °C 20,1 °C 6,4 km/h (2 Bft)
02.07.2019 14:50 20,1 °C 84 % 1016,0 hPa 0,0 mm 3,9 km/h (1 Bft) NO 54 ° 0 min 0,000 mm 0,6 UV-I 72 W/m² 17,3 °C 20,1 °C 4,8 km/h (1 Bft)
02.07.2019 14:51 20,1 °C 84 % 1016,0 hPa 0,0 mm 2,2 km/h (1 Bft) NO 48 ° 0 min 0,000 mm 0,7 UV-I 72 W/m² 17,3 °C 20,1 °C 6,4 km/h (2 Bft)
02.07.2019 14:52 20,2 °C 83 % 1016,0 hPa 0,0 mm 2,1 km/h (1 Bft) NO 49 ° 0 min 0,000 mm 0,7 UV-I 74 W/m² 17,2 °C 20,2 °C 4,8 km/h (1 Bft)
02.07.2019 14:53 20,2 °C 83 % 1016,0 hPa 0,0 mm 0,5 km/h (0 Bft) NO 49 ° 0 min 0,000 mm 0,7 UV-I 76 W/m² 17,2 °C 20,2 °C 1,6 km/h (1 Bft)
02.07.2019 14:54 20,2 °C 84 % 1016,0 hPa 0,0 mm 0,0 km/h (0 Bft) O 94 ° 0 min 0,000 mm 0,7 UV-I 79 W/m² 17,4 °C 20,2 °C 0,0 km/h (0 Bft)
02.07.2019 14:55 20,2 °C 84 % 1016,0 hPa 0,0 mm 3,2 km/h (1 Bft) SO 125 ° 0 min 0,000 mm 0,8 UV-I 90 W/m² 17,4 °C 20,2 °C 6,4 km/h (2 Bft)
02.07.2019 14:56 20,2 °C 83 % 1016,0 hPa 0,0 mm 0,9 km/h (0 Bft) SO 126 ° 0 min 0,000 mm 0,9 UV-I 118 W/m² 17,2 °C 20,2 °C 3,2 km/h (1 Bft)
02.07.2019 14:57 20,2 °C 83 % 1015,9 hPa 0,0 mm 0,0 km/h (0 Bft) SO 126 ° 0 min 0,000 mm 1,2 UV-I 135 W/m² 17,2 °C 20,2 °C 0,0 km/h (0 Bft)
02.07.2019 14:58 20,2 °C 83 % 1016,0 hPa 0,0 mm 0,1 km/h (0 Bft) SO 126 ° 0 min 0,000 mm 1,4 UV-I 151 W/m² 17,2 °C 20,2 °C 1,6 km/h (1 Bft)
02.07.2019 14:59 20,2 °C 83 % 1016,0 hPa 0,0 mm 1,9 km/h (1 Bft) O-SO 119 ° 0 min 0,000 mm 1,5 UV-I 163 W/m² 17,2 °C 20,2 °C 4,8 km/h (1 Bft)
02.07.2019 15:00 20,1 °C 83 % 1016,0 hPa 0,0 mm 0,1 km/h (0 Bft) O-SO 119 ° 0 min 0,000 mm 1,5 UV-I 172 W/m² 17,1 °C 20,1 °C 1,6 km/h (1 Bft)
02.07.2019 15:01 20,2 °C 84 % 1015,9 hPa 0,0 mm 1,5 km/h (1 Bft) NO 51 ° 0 min 0,102 mm 1,6 UV-I 176 W/m² 17,4 °C 20,2 °C 8,0 km/h (2 Bft)
02.07.2019 15:02 20,2 °C 84 % 1015,9 hPa 0,0 mm 3,5 km/h (1 Bft) NO 51 ° 0 min 0,000 mm 1,6 UV-I 174 W/m² 17,4 °C 20,2 °C 6,4 km/h (2 Bft)
02.07.2019 15:03 20,3 °C 85 % 1015,9 hPa 0,0 mm 0,9 km/h (0 Bft) NO 51 ° 0 min 0,000 mm 1,5 UV-I 171 W/m² 17,7 °C 20,3 °C 1,6 km/h (1 Bft)
02.07.2019 15:04 20,3 °C 84 % 1015,9 hPa 0,0 mm 1,2 km/h (1 Bft) O-SO 122 ° 0 min 0,000 mm 1,4 UV-I 160 W/m² 17,5 °C 20,3 °C 4,8 km/h (1 Bft)
02.07.2019 15:05 20,3 °C 85 % 1015,9 hPa 0,0 mm 3,5 km/h (1 Bft) O 98 ° 0 min 0,000 mm 1,3 UV-I 148 W/m² 17,7 °C 20,3 °C 9,7 km/h (2 Bft)
02.07.2019 15:06 20,3 °C 85 % 1015,9 hPa 0,0 mm 1,7 km/h (1 Bft) O 99 ° 0 min 0,000 mm 1,3 UV-I 141 W/m² 17,7 °C 20,3 °C 3,2 km/h (1 Bft)
02.07.2019 15:07 20,3 °C 84 % 1015,9 hPa 0,0 mm 1,0 km/h (0 Bft) O 100 ° 0 min 0,000 mm 1,2 UV-I 141 W/m² 17,5 °C 20,3 °C 3,2 km/h (1 Bft)
02.07.2019 15:08 20,3 °C 84 % 1015,9 hPa 0,0 mm 2,5 km/h (1 Bft) O-NO 73 ° 0 min 0,000 mm 1,2 UV-I 141 W/m² 17,5 °C 20,3 °C 4,8 km/h (1 Bft)
02.07.2019 15:09 20,3 °C 83 % 1015,9 hPa 0,0 mm 4,2 km/h (1 Bft) O-NO 73 ° 0 min 0,000 mm 1,2 UV-I 141 W/m² 17,3 °C 20,3 °C 4,8 km/h (1 Bft)
02.07.2019 15:10 20,3 °C 84 % 1015,9 hPa 0,0 mm 2,7 km/h (1 Bft) O-NO 73 ° 0 min 0,000 mm 1,3 UV-I 149 W/m² 17,5 °C 20,3 °C 4,8 km/h (1 Bft)
02.07.2019 15:11 20,4 °C 85 % 1015,9 hPa 0,0 mm 4,1 km/h (1 Bft) SO 134 ° 0 min 0,000 mm 1,4 UV-I 158 W/m² 17,8 °C 20,4 °C 6,4 km/h (2 Bft)
02.07.2019 15:12 20,4 °C 83 % 1015,9 hPa 0,0 mm 1,7 km/h (1 Bft) O-NO 63 ° 0 min 0,000 mm 1,4 UV-I 167 W/m² 17,4 °C 20,4 °C 4,8 km/h (1 Bft)
02.07.2019 15:13 20,4 °C 82 % 1015,9 hPa 0,0 mm 3,0 km/h (1 Bft) O-NO 69 ° 0 min 0,000 mm 1,5 UV-I 172 W/m² 17,2 °C 20,4 °C 4,8 km/h (1 Bft)
02.07.2019 15:14 20,4 °C 81 % 1015,9 hPa 0,0 mm 0,4 km/h (0 Bft) O-NO 69 ° 0 min 0,000 mm 1,6 UV-I 192 W/m² 17,0 °C 20,4 °C 1,6 km/h (1 Bft)
02.07.2019 15:15 20,4 °C 81 % 1015,9 hPa 0,0 mm 0,1 km/h (0 Bft) O-NO 69 ° 0 min 0,000 mm 1,7 UV-I 204 W/m² 17,0 °C 20,4 °C 1,6 km/h (1 Bft)
02.07.2019 15:16 20,4 °C 82 % 1015,9 hPa 0,0 mm 0,6 km/h (0 Bft) O-NO 69 ° 0 min 0,000 mm 1,8 UV-I 209 W/m² 17,2 °C 20,4 °C 4,8 km/h (1 Bft)
02.07.2019 15:17 20,5 °C 82 % 1015,9 hPa 0,0 mm 2,8 km/h (1 Bft) O-NO 69 ° 0 min 0,000 mm 1,7 UV-I 209 W/m² 17,3 °C 20,5 °C 4,8 km/h (1 Bft)
02.07.2019 15:18 20,6 °C 81 % 1015,9 hPa 0,0 mm 0,4 km/h (0 Bft) O-NO 69 ° 0 min 0,000 mm 1,7 UV-I 211 W/m² 17,2 °C 20,6 °C 1,6 km/h (1 Bft)
02.07.2019 15:19 20,6 °C 81 % 1016,0 hPa 0,0 mm 0,0 km/h (0 Bft) O-NO 69 ° 0 min 0,000 mm 1,7 UV-I 207 W/m² 17,2 °C 20,6 °C 0,0 km/h (0 Bft)
02.07.2019 15:20 20,6 °C 81 % 1015,9 hPa 0,0 mm 0,0 km/h (0 Bft) O-NO 69 ° 0 min 0,000 mm 1,6 UV-I 183 W/m² 17,2 °C 20,6 °C 0,0 km/h (0 Bft)
02.07.2019 15:21 20,6 °C 82 % 1015,9 hPa 0,0 mm 3,7 km/h (1 Bft) O 94 ° 0 min 0,000 mm 1,4 UV-I 171 W/m² 17,4 °C 20,6 °C 6,4 km/h (2 Bft)
02.07.2019 15:22 20,6 °C 82 % 1016,0 hPa 0,0 mm 0,4 km/h (0 Bft) O 94 ° 0 min 0,000 mm 1,4 UV-I 163 W/m² 17,4 °C 20,6 °C 3,2 km/h (1 Bft)
02.07.2019 15:23 20,6 °C 82 % 1016,0 hPa 0,0 mm 1,4 km/h (1 Bft) O 80 ° 0 min 0,000 mm 1,5 UV-I 165 W/m² 17,4 °C 20,6 °C 6,4 km/h (2 Bft)
02.07.2019 15:24 20,6 °C 82 % 1016,0 hPa 0,0 mm 3,9 km/h (1 Bft) O-NO 61 ° 0 min 0,000 mm 1,6 UV-I 185 W/m² 17,4 °C 20,6 °C 6,4 km/h (2 Bft)
02.07.2019 15:25 20,6 °C 81 % 1015,9 hPa 0,0 mm 3,8 km/h (1 Bft) O 83 ° 0 min 0,000 mm 1,8 UV-I 207 W/m² 17,2 °C 20,6 °C 6,4 km/h (2 Bft)
02.07.2019 15:26 20,6 °C 81 % 1015,9 hPa 0,0 mm 6,0 km/h (2 Bft) O-NO 65 ° 0 min 0,000 mm 1,9 UV-I 243 W/m² 17,2 °C 20,6 °C 9,7 km/h (2 Bft)
02.07.2019 15:27 20,7 °C 81 % 1015,9 hPa 0,0 mm 4,0 km/h (1 Bft) O-NO 78 ° 0 min 0,000 mm 2,3 UV-I 243 W/m² 17,3 °C 20,7 °C 6,4 km/h (2 Bft)
02.07.2019 15:28 20,7 °C 81 % 1015,9 hPa 0,0 mm 4,4 km/h (1 Bft) NO 42 ° 0 min 0,000 mm 2,6 UV-I 265 W/m² 17,3 °C 20,7 °C 9,7 km/h (2 Bft)
02.07.2019 15:29 20,7 °C 80 % 1015,9 hPa 0,0 mm 6,0 km/h (2 Bft) O-SO 102 ° 0 min 0,000 mm 3,1 UV-I 320 W/m² 17,1 °C 20,7 °C 9,7 km/h (2 Bft)
02.07.2019 15:30 20,8 °C 80 % 1015,9 hPa 0,0 mm 2,5 km/h (1 Bft) O 85 ° 0 min 0,000 mm 3,3 UV-I 367 W/m² 17,2 °C 20,8 °C 3,2 km/h (1 Bft)
02.07.2019 15:31 20,8 °C 80 % 1015,9 hPa 0,0 mm 3,1 km/h (1 Bft) O-NO 59 ° 0 min 0,000 mm 3,3 UV-I 353 W/m² 17,2 °C 20,8 °C 6,4 km/h (2 Bft)
02.07.2019 15:32 20,8 °C 80 % 1015,9 hPa 0,0 mm 5,3 km/h (1 Bft) O-NO 68 ° 0 min 0,000 mm 3,2 UV-I 353 W/m² 17,2 °C 20,8 °C 8,0 km/h (2 Bft)
02.07.2019 15:33 20,9 °C 80 % 1015,9 hPa 0,0 mm 5,1 km/h (1 Bft) NO 53 ° 0 min 0,000 mm 3,5 UV-I 392 W/m² 17,3 °C 20,9 °C 8,0 km/h (2 Bft)
02.07.2019 15:34 21,0 °C 80 % 1015,9 hPa 0,0 mm 3,4 km/h (1 Bft) N-NO 31 ° 0 min 0,000 mm 3,8 UV-I 441 W/m² 17,4 °C 21,0 °C 4,8 km/h (1 Bft)
02.07.2019 15:35 21,1 °C 80 % 1015,9 hPa 0,0 mm 1,5 km/h (1 Bft) NO 42 ° 0 min 0,000 mm 3,6 UV-I 439 W/m² 17,5 °C 21,1 °C 3,2 km/h (1 Bft)
02.07.2019 15:36 21,2 °C 80 % 1015,9 hPa 0,0 mm 0,1 km/h (0 Bft) NO 42 ° 0 min 0,000 mm 3,6 UV-I 357 W/m² 17,6 °C 21,2 °C 1,6 km/h (1 Bft)
02.07.2019 15:37 21,3 °C 80 % 1015,9 hPa 0,0 mm 0,0 km/h (0 Bft) NO 42 ° 0 min 0,000 mm 2,9 UV-I 299 W/m² 17,7 °C 21,3 °C 0,0 km/h (0 Bft)
02.07.2019 15:38 21,4 °C 78 % 1016,0 hPa 0,0 mm 2,6 km/h (1 Bft) N-NO 25 ° 0 min 0,000 mm 2,6 UV-I 299 W/m² 17,4 °C 21,4 °C 6,4 km/h (2 Bft)
02.07.2019 15:39 21,4 °C 79 % 1015,9 hPa 0,0 mm 3,0 km/h (1 Bft) O 84 ° 0 min 0,000 mm 2,7 UV-I 313 W/m² 17,6 °C 21,4 °C 4,8 km/h (1 Bft)
02.07.2019 15:40 21,4 °C 78 % 1016,0 hPa 0,0 mm 3,8 km/h (1 Bft) N 355 ° 0 min 0,000 mm 2,7 UV-I 322 W/m² 17,4 °C 21,4 °C 8,0 km/h (2 Bft)
02.07.2019 15:41 21,4 °C 77 % 1015,9 hPa 0,0 mm 5,2 km/h (1 Bft) N 355 ° 0 min 0,000 mm 2,8 UV-I 330 W/m² 17,2 °C 21,4 °C 6,4 km/h (2 Bft)
02.07.2019 15:42 21,4 °C 77 % 1016,0 hPa 0,0 mm 3,2 km/h (1 Bft) N 355 ° 0 min 0,000 mm 3,3 UV-I 399 W/m² 17,2 °C 21,4 °C 4,8 km/h (1 Bft)
02.07.2019 15:43 21,4 °C 78 % 1015,9 hPa 0,0 mm 3,8 km/h (1 Bft) NO 40 ° 0 min 0,000 mm 4,0 UV-I 399 W/m² 17,4 °C 21,4 °C 8,0 km/h (2 Bft)
02.07.2019 15:44 21,6 °C 79 % 1016,0 hPa 0,0 mm 6,2 km/h (2 Bft) NO 53 ° 0 min 0,000 mm 3,2 UV-I 399 W/m² 17,8 °C 21,6 °C 9,7 km/h (2 Bft)
02.07.2019 15:45 21,5 °C 77 % 1016,0 hPa 0,0 mm 4,5 km/h (1 Bft) NO 46 ° 0 min 0,000 mm 2,9 UV-I 341 W/m² 17,3 °C 21,5 °C 6,4 km/h (2 Bft)
02.07.2019 15:46 21,4 °C 77 % 1016,0 hPa 0,0 mm 3,2 km/h (1 Bft) O-NO 59 ° 0 min 0,000 mm 2,6 UV-I 292 W/m² 17,2 °C 21,4 °C 6,4 km/h (2 Bft)
02.07.2019 15:47 21,4 °C 77 % 1016,1 hPa 0,0 mm 6,7 km/h (2 Bft) O-NO 74 ° 0 min 0,000 mm 2,2 UV-I 255 W/m² 17,2 °C 21,4 °C 9,7 km/h (2 Bft)
02.07.2019 15:48 21,3 °C 77 % 1016,0 hPa 0,0 mm 6,4 km/h (2 Bft) O 95 ° 0 min 0,000 mm 2,2 UV-I 220 W/m² 17,1 °C 21,3 °C 9,7 km/h (2 Bft)
02.07.2019 15:49 21,2 °C 78 % 1016,0 hPa 0,0 mm 4,3 km/h (1 Bft) O 96 ° 0 min 0,000 mm 1,7 UV-I 195 W/m² 17,2 °C 21,2 °C 9,7 km/h (2 Bft)
02.07.2019 15:50 21,1 °C 77 % 1016,0 hPa 0,0 mm 1,1 km/h (1 Bft) O 97 ° 0 min 0,000 mm 1,4 UV-I 167 W/m² 16,9 °C 21,1 °C 3,2 km/h (1 Bft)
02.07.2019 15:51 21,1 °C 78 % 1016,0 hPa 0,0 mm 3,6 km/h (1 Bft) O-NO 70 ° 0 min 0,000 mm 1,4 UV-I 158 W/m² 17,1 °C 21,1 °C 6,4 km/h (2 Bft)
02.07.2019 15:52 21,0 °C 78 % 1016,0 hPa 0,0 mm 3,0 km/h (1 Bft) NO 51 ° 0 min 0,000 mm 1,4 UV-I 153 W/m² 17,0 °C 21,0 °C 4,8 km/h (1 Bft)
02.07.2019 15:53 21,0 °C 79 % 1016,0 hPa 0,0 mm 1,5 km/h (1 Bft) NO 51 ° 0 min 0,000 mm 1,4 UV-I 158 W/m² 17,2 °C 21,0 °C 3,2 km/h (1 Bft)
02.07.2019 15:54 21,0 °C 79 % 1015,9 hPa 0,0 mm 6,5 km/h (2 Bft) NO 55 ° 0 min 0,000 mm 1,5 UV-I 167 W/m² 17,2 °C 21,0 °C 9,7 km/h (2 Bft)
02.07.2019 15:55 21,0 °C 78 % 1015,9 hPa 0,0 mm 4,0 km/h (1 Bft) NO 47 ° 0 min 0,000 mm 1,5 UV-I 167 W/m² 17,0 °C 21,0 °C 6,4 km/h (2 Bft)
02.07.2019 15:56 21,0 °C 78 % 1016,0 hPa 0,0 mm 4,2 km/h (1 Bft) O-NO 59 ° 0 min 0,000 mm 1,4 UV-I 156 W/m² 17,0 °C 21,0 °C 6,4 km/h (2 Bft)
02.07.2019 15:57 21,0 °C 78 % 1016,0 hPa 0,0 mm 3,1 km/h (1 Bft) O-NO 74 ° 0 min 0,000 mm 1,4 UV-I 148 W/m² 17,0 °C 21,0 °C 4,8 km/h (1 Bft)
02.07.2019 15:58 20,9 °C 78 % 1016,0 hPa 0,0 mm 0,6 km/h (0 Bft) O 85 ° 0 min 0,000 mm 1,5 UV-I 148 W/m² 16,9 °C 20,9 °C 1,6 km/h (1 Bft)
02.07.2019 15:59 20,9 °C 78 % 1016,0 hPa 0,0 mm 1,0 km/h (0 Bft) O 84 ° 0 min 0,000 mm 1,6 UV-I 155 W/m² 16,9 °C 20,9 °C 3,2 km/h (1 Bft)
02.07.2019 16:00 20,9 °C 79 % 1016,0 hPa 0,0 mm 4,5 km/h (1 Bft) O-NO 74 ° 0 min 0,000 mm 1,6 UV-I 165 W/m² 17,1 °C 20,9 °C 6,4 km/h (2 Bft)
02.07.2019 16:01 20,8 °C 79 % 1015,9 hPa 0,0 mm 3,8 km/h (1 Bft) O-NO 57 ° 0 min 0,152 mm 1,6 UV-I 169 W/m² 17,0 °C 20,8 °C 4,8 km/h (1 Bft)
02.07.2019 16:02 20,8 °C 79 % 1016,0 hPa 0,0 mm 4,6 km/h (1 Bft) NO 55 ° 0 min 0,000 mm 1,5 UV-I 169 W/m² 17,0 °C 20,8 °C 6,4 km/h (2 Bft)
02.07.2019 16:03 20,8 °C 79 % 1016,0 hPa 0,0 mm 1,1 km/h (1 Bft) NO 55 ° 0 min 0,000 mm 1,6 UV-I 171 W/m² 17,0 °C 20,8 °C 3,2 km/h (1 Bft)
02.07.2019 16:04 20,8 °C 78 % 1016,0 hPa 0,0 mm 1,1 km/h (1 Bft) O-NO 57 ° 0 min 0,000 mm 1,7 UV-I 178 W/m² 16,8 °C 20,8 °C 4,8 km/h (1 Bft)
02.07.2019 16:05 20,8 °C 78 % 1015,9 hPa 0,0 mm 1,8 km/h (1 Bft) O-NO 57 ° 0 min 0,000 mm 2,0 UV-I 257 W/m² 16,8 °C 20,8 °C 3,2 km/h (1 Bft)
02.07.2019 16:06 20,8 °C 79 % 1015,9 hPa 0,0 mm 4,7 km/h (1 Bft) NO 49 ° 0 min 0,000 mm 2,0 UV-I 218 W/m² 17,0 °C 20,8 °C 8,0 km/h (2 Bft)
02.07.2019 16:07 20,8 °C 78 % 1016,0 hPa 0,0 mm 3,5 km/h (1 Bft) NO 51 ° 0 min 0,000 mm 2,0 UV-I 234 W/m² 16,8 °C 20,8 °C 4,8 km/h (1 Bft)
02.07.2019 16:08 20,9 °C 80 % 1016,0 hPa 0,0 mm 3,8 km/h (1 Bft) O 80 ° 0 min 0,000 mm 1,7 UV-I 193 W/m² 17,3 °C 20,9 °C 4,8 km/h (1 Bft)
02.07.2019 16:09 20,9 °C 80 % 1015,9 hPa 0,0 mm 3,2 km/h (1 Bft) O 85 ° 0 min 0,000 mm 1,6 UV-I 183 W/m² 17,3 °C 20,9 °C 4,8 km/h (1 Bft)
02.07.2019 16:10 20,9 °C 79 % 1016,0 hPa 0,0 mm 3,1 km/h (1 Bft) O-NO 69 ° 0 min 0,000 mm 1,6 UV-I 192 W/m² 17,1 °C 20,9 °C 4,8 km/h (1 Bft)
02.07.2019 16:11 20,8 °C 79 % 1015,9 hPa 0,0 mm 7,0 km/h (2 Bft) S-SO 156 ° 0 min 0,000 mm 1,7 UV-I 204 W/m² 17,0 °C 20,8 °C 11,3 km/h (2 Bft)
02.07.2019 16:12 20,8 °C 79 % 1015,9 hPa 0,0 mm 3,4 km/h (1 Bft) N-NO 28 ° 0 min 0,000 mm 1,8 UV-I 197 W/m² 17,0 °C 20,8 °C 9,7 km/h (2 Bft)
02.07.2019 16:13 20,8 °C 79 % 1015,9 hPa 0,0 mm 3,6 km/h (1 Bft) O-NO 60 ° 0 min 0,000 mm 1,8 UV-I 199 W/m² 17,0 °C 20,8 °C 6,4 km/h (2 Bft)
02.07.2019 16:14 20,8 °C 79 % 1015,9 hPa 0,0 mm 4,5 km/h (1 Bft) NO 53 ° 0 min 0,000 mm 2,0 UV-I 211 W/m² 17,0 °C 20,8 °C 6,4 km/h (2 Bft)
02.07.2019 16:15 20,8 °C 79 % 1015,9 hPa 0,0 mm 6,8 km/h (2 Bft) O-NO 59 ° 0 min 0,000 mm 2,1 UV-I 229 W/m² 17,0 °C 20,8 °C 11,3 km/h (2 Bft)
02.07.2019 16:16 20,9 °C 79 % 1015,9 hPa 0,0 mm 5,4 km/h (1 Bft) O-NO 78 ° 0 min 0,000 mm 2,2 UV-I 244 W/m² 17,1 °C 20,9 °C 9,7 km/h (2 Bft)
02.07.2019 16:17 20,9 °C 78 % 1015,9 hPa 0,0 mm 1,8 km/h (1 Bft) O-NO 78 ° 0 min 0,000 mm 2,4 UV-I 258 W/m² 16,9 °C 20,9 °C 6,4 km/h (2 Bft)
02.07.2019 16:18 20,8 °C 79 % 1015,9 hPa 0,0 mm 1,1 km/h (1 Bft) O-NO 78 ° 0 min 0,000 mm 2,4 UV-I 274 W/m² 17,0 °C 20,8 °C 3,2 km/h (1 Bft)
02.07.2019 16:19 20,9 °C 79 % 1015,9 hPa 0,0 mm 0,7 km/h (0 Bft) O 81 ° 0 min 0,000 mm 2,4 UV-I 265 W/m² 17,1 °C 20,9 °C 4,8 km/h (1 Bft)
02.07.2019 16:20 20,9 °C 79 % 1015,8 hPa 0,0 mm 6,0 km/h (2 Bft) NO 44 ° 0 min 0,000 mm 2,5 UV-I 292 W/m² 17,1 °C 20,9 °C 8,0 km/h (2 Bft)
02.07.2019 16:21 20,9 °C 79 % 1015,8 hPa 0,0 mm 2,7 km/h (1 Bft) NO 40 ° 0 min 0,000 mm 2,4 UV-I 297 W/m² 17,1 °C 20,9 °C 6,4 km/h (2 Bft)
02.07.2019 16:22 21,0 °C 78 % 1015,9 hPa 0,0 mm 3,1 km/h (1 Bft) N-NO 32 ° 0 min 0,000 mm 2,3 UV-I 265 W/m² 17,0 °C 21,0 °C 4,8 km/h (1 Bft)
02.07.2019 16:23 21,1 °C 78 % 1015,8 hPa 0,0 mm 1,2 km/h (1 Bft) O 94 ° 0 min 0,000 mm 2,2 UV-I 243 W/m² 17,1 °C 21,1 °C 3,2 km/h (1 Bft)
02.07.2019 16:24 21,1 °C 78 % 1015,8 hPa 0,0 mm 4,3 km/h (1 Bft) N-NW 348 ° 0 min 0,000 mm 2,1 UV-I 220 W/m² 17,1 °C 21,1 °C 9,7 km/h (2 Bft)
02.07.2019 16:25 21,1 °C 78 % 1015,9 hPa 0,0 mm 1,7 km/h (1 Bft) N 5 ° 0 min 0,000 mm 1,8 UV-I 204 W/m² 17,1 °C 21,1 °C 4,8 km/h (1 Bft)
02.07.2019 16:26 21,1 °C 78 % 1015,9 hPa 0,0 mm 1,2 km/h (1 Bft) N 5 ° 0 min 0,000 mm 1,7 UV-I 185 W/m² 17,1 °C 21,1 °C 3,2 km/h (1 Bft)
02.07.2019 16:27 21,1 °C 77 % 1015,9 hPa 0,0 mm 0,4 km/h (0 Bft) N 5 ° 0 min 0,000 mm 1,5 UV-I 169 W/m² 16,9 °C 21,1 °C 1,6 km/h (1 Bft)
02.07.2019 16:28 21,1 °C 78 % 1015,9 hPa 0,0 mm 0,2 km/h (0 Bft) O-NO 73 ° 0 min 0,000 mm 1,4 UV-I 160 W/m² 17,1 °C 21,1 °C 1,6 km/h (1 Bft)
02.07.2019 16:29 21,0 °C 78 % 1015,9 hPa 0,0 mm 2,9 km/h (1 Bft) O 95 ° 0 min 0,000 mm 1,4 UV-I 158 W/m² 17,0 °C 21,0 °C 4,8 km/h (1 Bft)
02.07.2019 16:30 20,9 °C 78 % 1015,9 hPa 0,0 mm 2,2 km/h (1 Bft) O 95 ° 0 min 0,000 mm 1,3 UV-I 163 W/m² 16,9 °C 20,9 °C 4,8 km/h (1 Bft)
02.07.2019 16:31 20,9 °C 77 % 1015,9 hPa 0,0 mm 3,0 km/h (1 Bft) O 95 ° 0 min 0,000 mm 1,4 UV-I 165 W/m² 16,7 °C 20,9 °C 4,8 km/h (1 Bft)
02.07.2019 16:32 20,8 °C 77 % 1015,9 hPa 0,0 mm 3,2 km/h (1 Bft) O 80 ° 0 min 0,000 mm 1,5 UV-I 169 W/m² 16,6 °C 20,8 °C 6,4 km/h (2 Bft)
02.07.2019 16:33 20,8 °C 77 % 1015,9 hPa 0,0 mm 3,6 km/h (1 Bft) O 80 ° 0 min 0,000 mm 1,5 UV-I 172 W/m² 16,6 °C 20,8 °C 6,4 km/h (2 Bft)
02.07.2019 16:34 20,8 °C 78 % 1015,9 hPa 0,0 mm 0,9 km/h (0 Bft) O 80 ° 0 min 0,000 mm 1,5 UV-I 174 W/m² 16,8 °C 20,8 °C 1,6 km/h (1 Bft)
02.07.2019 16:35 20,8 °C 78 % 1015,9 hPa 0,0 mm 0,0 km/h (0 Bft) O 80 ° 0 min 0,000 mm 1,5 UV-I 178 W/m² 16,8 °C 20,8 °C 0,0 km/h (0 Bft)
02.07.2019 16:36 20,8 °C 79 % 1015,9 hPa 0,0 mm 0,5 km/h (0 Bft) O 80 ° 0 min 0,000 mm 1,6 UV-I 186 W/m² 17,0 °C 20,8 °C 1,6 km/h (1 Bft)
02.07.2019 16:37 20,8 °C 79 % 1015,9 hPa 0,0 mm 1,5 km/h (1 Bft) O 80 ° 0 min 0,000 mm 1,7 UV-I 195 W/m² 17,0 °C 20,8 °C 3,2 km/h (1 Bft)
02.07.2019 16:38 20,8 °C 80 % 1015,8 hPa 0,0 mm 0,2 km/h (0 Bft) O 80 ° 0 min 0,000 mm 1,8 UV-I 202 W/m² 17,2 °C 20,8 °C 3,2 km/h (1 Bft)
02.07.2019 16:39 20,8 °C 78 % 1015,9 hPa 0,0 mm 0,0 km/h (0 Bft) O 80 ° 0 min 0,000 mm 1,9 UV-I 209 W/m² 16,8 °C 20,8 °C 0,0 km/h (0 Bft)
02.07.2019 16:40 20,8 °C 78 % 1015,9 hPa 0,0 mm 0,0 km/h (0 Bft) O 80 ° 0 min 0,000 mm 2,0 UV-I 218 W/m² 16,8 °C 20,8 °C 0,0 km/h (0 Bft)
02.07.2019 16:41 20,8 °C 78 % 1015,8 hPa 0,0 mm 0,0 km/h (0 Bft) O 80 ° 0 min 0,000 mm 2,0 UV-I 225 W/m² 16,8 °C 20,8 °C 0,0 km/h (0 Bft)
02.07.2019 16:42 20,8 °C 79 % 1015,9 hPa 0,0 mm 0,0 km/h (0 Bft) O 80 ° 0 min 0,000 mm 2,1 UV-I 225 W/m² 17,0 °C 20,8 °C 0,0 km/h (0 Bft)
02.07.2019 16:43 20,8 °C 78 % 1015,8 hPa 0,0 mm 0,0 km/h (0 Bft) O 80 ° 0 min 0,000 mm 2,1 UV-I 223 W/m² 16,8 °C 20,8 °C 0,0 km/h (0 Bft)
02.07.2019 16:44 20,8 °C 79 % 1015,9 hPa 0,0 mm 0,0 km/h (0 Bft) O 80 ° 0 min 0,000 mm 2,0 UV-I 216 W/m² 17,0 °C 20,8 °C 0,0 km/h (0 Bft)
02.07.2019 16:45 20,8 °C 78 % 1015,9 hPa 0,0 mm 0,0 km/h (0 Bft) O 80 ° 0 min 0,000 mm 2,0 UV-I 214 W/m² 16,8 °C 20,8 °C 0,0 km/h (0 Bft)
02.07.2019 16:46 20,9 °C 78 % 1015,9 hPa 0,0 mm 0,0 km/h (0 Bft) O 80 ° 0 min 0,000 mm 2,0 UV-I 218 W/m² 16,9 °C 20,9 °C 0,0 km/h (0 Bft)
02.07.2019 16:47 20,9 °C 78 % 1015,9 hPa 0,0 mm 0,0 km/h (0 Bft) O 80 ° 0 min 0,000 mm 2,0 UV-I 221 W/m² 16,9 °C 20,9 °C 0,0 km/h (0 Bft)
02.07.2019 16:48 21,0 °C 79 % 1015,9 hPa 0,0 mm 0,0 km/h (0 Bft) O 80 ° 0 min 0,000 mm 1,9 UV-I 216 W/m² 17,2 °C 21,0 °C 0,0 km/h (0 Bft)
02.07.2019 16:49 21,0 °C 78 % 1015,9 hPa 0,0 mm 0,0 km/h (0 Bft) O 80 ° 0 min 0,000 mm 1,9 UV-I 211 W/m² 17,0 °C 21,0 °C 0,0 km/h (0 Bft)
02.07.2019 16:50 21,0 °C 78 % 1015,8 hPa 0,0 mm 0,0 km/h (0 Bft) O 80 ° 0 min 0,000 mm 1,9 UV-I 209 W/m² 17,0 °C 21,0 °C 0,0 km/h (0 Bft)
02.07.2019 16:51 21,0 °C 78 % 1015,8 hPa 0,0 mm 0,0 km/h (0 Bft) O 80 ° 0 min 0,000 mm 2,0 UV-I 220 W/m² 17,0 °C 21,0 °C 0,0 km/h (0 Bft)
02.07.2019 16:52 21,1 °C 78 % 1015,8 hPa 0,0 mm 0,0 km/h (0 Bft) O 80 ° 0 min 0,000 mm 2,1 UV-I 236 W/m² 17,1 °C 21,1 °C 0,0 km/h (0 Bft)
02.07.2019 16:53 21,1 °C 77 % 1015,7 hPa 0,0 mm 0,0 km/h (0 Bft) NO 43 ° 0 min 0,000 mm 2,1 UV-I 230 W/m² 16,9 °C 21,1 °C 0,0 km/h (0 Bft)
02.07.2019 16:54 21,2 °C 77 % 1015,7 hPa 0,0 mm 0,0 km/h (0 Bft) NO 43 ° 0 min 0,000 mm 2,0 UV-I 236 W/m² 17,0 °C 21,2 °C 0,0 km/h (0 Bft)
02.07.2019 16:55 21,1 °C 76 % 1015,8 hPa 0,0 mm 0,0 km/h (0 Bft) NO 53 ° 0 min 0,000 mm 2,0 UV-I 244 W/m² 16,7 °C 21,1 °C 0,0 km/h (0 Bft)
02.07.2019 16:56 21,2 °C 77 % 1015,8 hPa 0,0 mm 0,0 km/h (0 Bft) NO 53 ° 0 min 0,000 mm 2,0 UV-I 241 W/m² 17,0 °C 21,2 °C 0,0 km/h (0 Bft)
02.07.2019 16:57 21,1 °C 77 % 1015,8 hPa 0,0 mm 1,7 km/h (1 Bft) O 97 ° 0 min 0,000 mm 2,0 UV-I 237 W/m² 16,9 °C 21,1 °C 4,8 km/h (1 Bft)
02.07.2019 16:58 21,1 °C 77 % 1015,7 hPa 0,0 mm 1,3 km/h (1 Bft) O 97 ° 0 min 0,000 mm 1,9 UV-I 227 W/m² 16,9 °C 21,1 °C 4,8 km/h (1 Bft)
02.07.2019 16:59 21,1 °C 77 % 1015,7 hPa 0,0 mm 1,5 km/h (1 Bft) O 91 ° 0 min 0,000 mm 1,7 UV-I 192 W/m² 16,9 °C 21,1 °C 6,4 km/h (2 Bft)
02.07.2019 17:00 21,1 °C 77 % 1015,7 hPa 0,0 mm 2,1 km/h (1 Bft) O 101 ° 0 min 0,127 mm 1,3 UV-I 171 W/m² 16,9 °C 21,1 °C 4,8 km/h (1 Bft)
02.07.2019 17:01 21,1 °C 77 % 1015,8 hPa 0,0 mm 3,0 km/h (1 Bft) O 101 ° 0 min 0,000 mm 1,2 UV-I 156 W/m² 16,9 °C 21,1 °C 4,8 km/h (1 Bft)
02.07.2019 17:02 21,1 °C 77 % 1015,7 hPa 0,0 mm 1,6 km/h (1 Bft) O 101 ° 0 min 0,000 mm 1,1 UV-I 146 W/m² 16,9 °C 21,1 °C 3,2 km/h (1 Bft)
02.07.2019 17:03 21,1 °C 78 % 1015,8 hPa 0,0 mm 1,9 km/h (1 Bft) NO 47 ° 0 min 0,000 mm 1,0 UV-I 139 W/m² 17,1 °C 21,1 °C 4,8 km/h (1 Bft)
02.07.2019 17:04 21,1 °C 77 % 1015,8 hPa 0,0 mm 3,8 km/h (1 Bft) N-NO 19 ° 0 min 0,000 mm 1,0 UV-I 134 W/m² 16,9 °C 21,1 °C 8,0 km/h (2 Bft)
02.07.2019 17:05 21,1 °C 76 % 1015,8 hPa 0,0 mm 4,8 km/h (1 Bft) N 350 ° 0 min 0,000 mm 0,9 UV-I 130 W/m² 16,7 °C 21,1 °C 6,4 km/h (2 Bft)
02.07.2019 17:06 21,1 °C 75 % 1015,8 hPa 0,0 mm 3,4 km/h (1 Bft) N 355 ° 0 min 0,000 mm 1,0 UV-I 137 W/m² 16,5 °C 21,1 °C 8,0 km/h (2 Bft)
02.07.2019 17:07 21,1 °C 75 % 1015,8 hPa 0,0 mm 3,6 km/h (1 Bft) NO 35 ° 0 min 0,000 mm 1,0 UV-I 142 W/m² 16,5 °C 21,1 °C 6,4 km/h (2 Bft)
02.07.2019 17:08 21,0 °C 75 % 1015,7 hPa 0,0 mm 1,9 km/h (1 Bft) NO 35 ° 0 min 0,000 mm 1,0 UV-I 142 W/m² 16,4 °C 21,0 °C 4,8 km/h (1 Bft)
02.07.2019 17:09 21,0 °C 75 % 1015,7 hPa 0,0 mm 2,8 km/h (1 Bft) N 360 ° 0 min 0,000 mm 1,0 UV-I 144 W/m² 16,4 °C 21,0 °C 6,4 km/h (2 Bft)
02.07.2019 17:10 21,0 °C 75 % 1015,7 hPa 0,0 mm 0,3 km/h (0 Bft) N 360 ° 0 min 0,000 mm 1,0 UV-I 144 W/m² 16,4 °C 21,0 °C 1,6 km/h (1 Bft)
02.07.2019 17:11 21,0 °C 76 % 1015,7 hPa 0,0 mm 3,4 km/h (1 Bft) N-NO 25 ° 0 min 0,000 mm 1,0 UV-I 134 W/m² 16,6 °C 21,0 °C 4,8 km/h (1 Bft)
02.07.2019 17:12 20,9 °C 76 % 1015,7 hPa 0,0 mm 1,5 km/h (1 Bft) N-NO 24 ° 0 min 0,000 mm 1,0 UV-I 132 W/m² 16,5 °C 20,9 °C 3,2 km/h (1 Bft)
02.07.2019 17:13 20,9 °C 75 % 1015,8 hPa 0,0 mm 0,0 km/h (0 Bft) N-NO 24 ° 0 min 0,000 mm 1,0 UV-I 132 W/m² 16,3 °C 20,9 °C 0,0 km/h (0 Bft)
02.07.2019 17:14 20,9 °C 76 % 1015,8 hPa 0,0 mm 1,1 km/h (1 Bft) N-NO 24 ° 0 min 0,000 mm 1,0 UV-I 137 W/m² 16,5 °C 20,9 °C 4,8 km/h (1 Bft)
02.07.2019 17:15 20,9 °C 75 % 1015,8 hPa 0,0 mm 2,3 km/h (1 Bft) N-NO 23 ° 0 min 0,000 mm 1,1 UV-I 144 W/m² 16,3 °C 20,9 °C 3,2 km/h (1 Bft)
02.07.2019 17:16 20,9 °C 76 % 1015,7 hPa 0,0 mm 1,3 km/h (1 Bft) N-NO 23 ° 0 min 0,000 mm 1,1 UV-I 153 W/m² 16,5 °C 20,9 °C 4,8 km/h (1 Bft)
02.07.2019 17:17 21,0 °C 76 % 1015,8 hPa 0,0 mm 0,0 km/h (0 Bft) N-NO 23 ° 0 min 0,000 mm 1,2 UV-I 167 W/m² 16,6 °C 21,0 °C 0,0 km/h (0 Bft)
02.07.2019 17:18 20,9 °C 76 % 1015,8 hPa 0,0 mm 1,1 km/h (1 Bft) N 360 ° 0 min 0,000 mm 1,3 UV-I 172 W/m² 16,5 °C 20,9 °C 6,4 km/h (2 Bft)
02.07.2019 17:19 20,9 °C 77 % 1015,8 hPa 0,0 mm 2,5 km/h (1 Bft) N-NO 13 ° 0 min 0,000 mm 1,3 UV-I 176 W/m² 16,7 °C 20,9 °C 4,8 km/h (1 Bft)
02.07.2019 17:20 20,9 °C 76 % 1015,7 hPa 0,0 mm 3,0 km/h (1 Bft) N-NO 32 ° 0 min 0,000 mm 1,3 UV-I 181 W/m² 16,5 °C 20,9 °C 3,2 km/h (1 Bft)
02.07.2019 17:21 20,9 °C 77 % 1015,8 hPa 0,0 mm 2,1 km/h (1 Bft) N-NO 32 ° 0 min 0,000 mm 1,4 UV-I 197 W/m² 16,7 °C 20,9 °C 3,2 km/h (1 Bft)
02.07.2019 17:22 21,0 °C 80 % 1015,8 hPa 0,0 mm 1,7 km/h (1 Bft) NO 34 ° 0 min 0,000 mm 1,5 UV-I 204 W/m² 17,4 °C 21,0 °C 3,2 km/h (1 Bft)
02.07.2019 17:23 20,9 °C 78 % 1015,8 hPa 0,0 mm 4,8 km/h (1 Bft) O-NO 64 ° 0 min 0,000 mm 1,5 UV-I 202 W/m² 16,9 °C 20,9 °C 6,4 km/h (2 Bft)
02.07.2019 17:24 20,9 °C 78 % 1015,8 hPa 0,0 mm 2,1 km/h (1 Bft) O-NO 69 ° 0 min 0,000 mm 1,5 UV-I 206 W/m² 16,9 °C 20,9 °C 4,8 km/h (1 Bft)
02.07.2019 17:25 20,9 °C 75 % 1015,8 hPa 0,0 mm 0,0 km/h (0 Bft) O-NO 69 ° 0 min 0,000 mm 1,5 UV-I 209 W/m² 16,3 °C 20,9 °C 0,0 km/h (0 Bft)
02.07.2019 17:26 20,9 °C 76 % 1015,7 hPa 0,0 mm 3,0 km/h (1 Bft) NO 53 ° 0 min 0,000 mm 1,5 UV-I 207 W/m² 16,5 °C 20,9 °C 6,4 km/h (2 Bft)
02.07.2019 17:27 20,9 °C 75 % 1015,8 hPa 0,0 mm 5,2 km/h (1 Bft) NO 49 ° 0 min 0,000 mm 1,5 UV-I 202 W/m² 16,3 °C 20,9 °C 8,0 km/h (2 Bft)
02.07.2019 17:28 20,9 °C 75 % 1015,7 hPa 0,0 mm 5,3 km/h (1 Bft) NO 38 ° 0 min 0,000 mm 1,5 UV-I 186 W/m² 16,3 °C 20,9 °C 8,0 km/h (2 Bft)
02.07.2019 17:29 20,9 °C 76 % 1015,7 hPa 0,0 mm 1,1 km/h (1 Bft) NO 38 ° 0 min 0,000 mm 1,5 UV-I 185 W/m² 16,5 °C 20,9 °C 3,2 km/h (1 Bft)
02.07.2019 17:30 20,9 °C 76 % 1015,7 hPa 0,0 mm 1,5 km/h (1 Bft) NO 40 ° 0 min 0,000 mm 1,5 UV-I 183 W/m² 16,5 °C 20,9 °C 3,2 km/h (1 Bft)
02.07.2019 17:31 20,9 °C 77 % 1015,7 hPa 0,0 mm 3,7 km/h (1 Bft) NO 40 ° 0 min 0,000 mm 1,4 UV-I 179 W/m² 16,7 °C 20,9 °C 6,4 km/h (2 Bft)
02.07.2019 17:32 21,0 °C 75 % 1015,6 hPa 0,0 mm 3,8 km/h (1 Bft) O-NO 77 ° 0 min 0,000 mm 1,4 UV-I 172 W/m² 16,4 °C 21,0 °C 8,0 km/h (2 Bft)
02.07.2019 17:33 21,0 °C 75 % 1015,7 hPa 0,0 mm 5,6 km/h (1 Bft) NO 46 ° 0 min 0,000 mm 1,4 UV-I 165 W/m² 16,4 °C 21,0 °C 9,7 km/h (2 Bft)
02.07.2019 17:34 21,0 °C 74 % 1015,7 hPa 0,0 mm 5,4 km/h (1 Bft) O-NO 59 ° 0 min 0,000 mm 1,3 UV-I 171 W/m² 16,2 °C 21,0 °C 8,0 km/h (2 Bft)
02.07.2019 17:35 20,9 °C 74 % 1015,7 hPa 0,0 mm 1,0 km/h (0 Bft) O-NO 59 ° 0 min 0,000 mm 1,3 UV-I 178 W/m² 16,1 °C 20,9 °C 3,2 km/h (1 Bft)
02.07.2019 17:36 21,0 °C 74 % 1015,7 hPa 0,0 mm 0,1 km/h (0 Bft) O-NO 59 ° 0 min 0,000 mm 1,4 UV-I 188 W/m² 16,2 °C 21,0 °C 1,6 km/h (1 Bft)
02.07.2019 17:37 21,0 °C 75 % 1015,7 hPa 0,0 mm 1,1 km/h (1 Bft) O-NO 59 ° 0 min 0,000 mm 1,5 UV-I 204 W/m² 16,4 °C 21,0 °C 3,2 km/h (1 Bft)
02.07.2019 17:38 21,1 °C 78 % 1015,7 hPa 0,0 mm 0,7 km/h (0 Bft) O-NO 59 ° 0 min 0,000 mm 1,6 UV-I 204 W/m² 17,1 °C 21,1 °C 3,2 km/h (1 Bft)
02.07.2019 17:39 21,1 °C 77 % 1015,6 hPa 0,0 mm 3,8 km/h (1 Bft) NO 47 ° 0 min 0,000 mm 1,6 UV-I 229 W/m² 16,9 °C 21,1 °C 6,4 km/h (2 Bft)
02.07.2019 17:40 21,1 °C 74 % 1015,6 hPa 0,0 mm 2,0 km/h (1 Bft) NO 47 ° 0 min 0,000 mm 1,6 UV-I 213 W/m² 16,3 °C 21,1 °C 4,8 km/h (1 Bft)
02.07.2019 17:41 21,1 °C 74 % 1015,7 hPa 0,0 mm 1,1 km/h (1 Bft) NO 47 ° 0 min 0,000 mm 1,6 UV-I 206 W/m² 16,3 °C 21,1 °C 3,2 km/h (1 Bft)
02.07.2019 17:42 21,1 °C 74 % 1015,6 hPa 0,0 mm 3,4 km/h (1 Bft) NO 36 ° 0 min 0,000 mm 1,6 UV-I 207 W/m² 16,3 °C 21,1 °C 6,4 km/h (2 Bft)
02.07.2019 17:43 21,1 °C 74 % 1015,6 hPa 0,0 mm 3,2 km/h (1 Bft) O-NO 65 ° 0 min 0,000 mm 1,7 UV-I 211 W/m² 16,3 °C 21,1 °C 4,8 km/h (1 Bft)
02.07.2019 17:44 21,2 °C 74 % 1015,6 hPa 0,0 mm 2,9 km/h (1 Bft) NO 36 ° 0 min 0,000 mm 1,7 UV-I 213 W/m² 16,4 °C 21,2 °C 8,0 km/h (2 Bft)
02.07.2019 17:45 21,2 °C 74 % 1015,6 hPa 0,0 mm 5,4 km/h (1 Bft) NO 42 ° 0 min 0,000 mm 1,7 UV-I 216 W/m² 16,4 °C 21,2 °C 8,0 km/h (2 Bft)
02.07.2019 17:46 21,2 °C 75 % 1015,6 hPa 0,0 mm 2,3 km/h (1 Bft) O-NO 76 ° 0 min 0,000 mm 1,7 UV-I 199 W/m² 16,6 °C 21,2 °C 4,8 km/h (1 Bft)
02.07.2019 17:47 21,2 °C 75 % 1015,6 hPa 0,0 mm 1,3 km/h (1 Bft) O-NO 76 ° 0 min 0,000 mm 1,7 UV-I 193 W/m² 16,6 °C 21,2 °C 4,8 km/h (1 Bft)
02.07.2019 17:48 21,3 °C 75 % 1015,6 hPa 0,0 mm 1,7 km/h (1 Bft) O-NO 76 ° 0 min 0,000 mm 1,7 UV-I 195 W/m² 16,7 °C 21,3 °C 3,2 km/h (1 Bft)
02.07.2019 17:49 21,3 °C 74 % 1015,6 hPa 0,0 mm 0,7 km/h (0 Bft) O-NO 75 ° 0 min 0,000 mm 1,7 UV-I 195 W/m² 16,5 °C 21,3 °C 1,6 km/h (1 Bft)
02.07.2019 17:50 21,3 °C 75 % 1015,6 hPa 0,0 mm 0,0 km/h (0 Bft) O-NO 75 ° 0 min 0,000 mm 1,6 UV-I 195 W/m² 16,7 °C 21,3 °C 0,0 km/h (0 Bft)
02.07.2019 17:51 21,3 °C 76 % 1015,6 hPa 0,0 mm 3,3 km/h (1 Bft) O-NO 62 ° 0 min 0,000 mm 1,6 UV-I 195 W/m² 16,9 °C 21,3 °C 9,7 km/h (2 Bft)
02.07.2019 17:52 21,2 °C 75 % 1015,6 hPa 0,0 mm 5,1 km/h (1 Bft) O-NO 61 ° 0 min 0,000 mm 1,6 UV-I 221 W/m² 16,6 °C 21,2 °C 8,0 km/h (2 Bft)
02.07.2019 17:53 21,2 °C 73 % 1015,6 hPa 0,0 mm 6,4 km/h (2 Bft) O-NO 60 ° 0 min 0,000 mm 1,7 UV-I 237 W/m² 16,2 °C 21,2 °C 9,7 km/h (2 Bft)
02.07.2019 17:54 21,2 °C 74 % 1015,6 hPa 0,0 mm 5,0 km/h (1 Bft) O-NO 75 ° 0 min 0,000 mm 1,7 UV-I 244 W/m² 16,4 °C 21,2 °C 8,0 km/h (2 Bft)
02.07.2019 17:55 21,2 °C 72 % 1015,6 hPa 0,0 mm 7,5 km/h (2 Bft) N-NO 15 ° 0 min 0,000 mm 1,7 UV-I 239 W/m² 15,9 °C 21,2 °C 12,9 km/h (3 Bft)
02.07.2019 17:56 21,2 °C 73 % 1015,6 hPa 0,0 mm 6,8 km/h (2 Bft) O-NO 59 ° 0 min 0,000 mm 1,8 UV-I 257 W/m² 16,2 °C 21,2 °C 9,7 km/h (2 Bft)
02.07.2019 17:57 21,3 °C 74 % 1015,6 hPa 0,0 mm 4,0 km/h (1 Bft) O-NO 65 ° 0 min 0,000 mm 1,7 UV-I 255 W/m² 16,5 °C 21,3 °C 6,4 km/h (2 Bft)
02.07.2019 17:58 21,3 °C 73 % 1015,5 hPa 0,0 mm 1,9 km/h (1 Bft) O-NO 68 ° 0 min 0,000 mm 1,7 UV-I 271 W/m² 16,3 °C 21,3 °C 4,8 km/h (1 Bft)
02.07.2019 17:59 21,4 °C 73 % 1015,6 hPa 0,0 mm 5,5 km/h (1 Bft) O 89 ° 0 min 0,000 mm 1,7 UV-I 274 W/m² 16,4 °C 21,4 °C 11,3 km/h (2 Bft)
02.07.2019 18:00 21,4 °C 72 % 1015,6 hPa 0,0 mm 4,9 km/h (1 Bft) SO 126 ° 0 min 0,000 mm 1,7 UV-I 265 W/m² 16,1 °C 21,4 °C 6,4 km/h (2 Bft)
02.07.2019 18:01 21,4 °C 73 % 1015,6 hPa 0,0 mm 2,1 km/h (1 Bft) SO 127 ° 0 min 0,127 mm 1,7 UV-I 260 W/m² 16,4 °C 21,4 °C 4,8 km/h (1 Bft)
02.07.2019 18:02 21,4 °C 72 % 1015,6 hPa 0,0 mm 2,7 km/h (1 Bft) O 94 ° 0 min 0,000 mm 1,7 UV-I 265 W/m² 16,1 °C 21,4 °C 6,4 km/h (2 Bft)
02.07.2019 18:03 21,4 °C 72 % 1015,5 hPa 0,0 mm 5,8 km/h (2 Bft) O 90 ° 0 min 0,000 mm 1,6 UV-I 271 W/m² 16,1 °C 21,4 °C 9,7 km/h (2 Bft)
02.07.2019 18:04 21,6 °C 73 % 1015,5 hPa 0,0 mm 4,8 km/h (1 Bft) O 80 ° 0 min 0,000 mm 1,5 UV-I 241 W/m² 16,5 °C 21,6 °C 6,4 km/h (2 Bft)
02.07.2019 18:05 21,6 °C 73 % 1015,6 hPa 0,0 mm 4,6 km/h (1 Bft) O-NO 77 ° 0 min 0,000 mm 1,3 UV-I 237 W/m² 16,5 °C 21,6 °C 9,7 km/h (2 Bft)
02.07.2019 18:06 21,6 °C 72 % 1015,5 hPa 0,0 mm 2,8 km/h (1 Bft) O-SO 103 ° 0 min 0,000 mm 1,3 UV-I 214 W/m² 16,3 °C 21,6 °C 6,4 km/h (2 Bft)
02.07.2019 18:07 21,5 °C 71 % 1015,6 hPa 0,0 mm 3,1 km/h (1 Bft) O 81 ° 0 min 0,000 mm 1,2 UV-I 207 W/m² 16,0 °C 21,5 °C 4,8 km/h (1 Bft)
02.07.2019 18:08 21,5 °C 72 % 1015,5 hPa 0,0 mm 3,4 km/h (1 Bft) O 82 ° 0 min 0,000 mm 1,2 UV-I 190 W/m² 16,2 °C 21,5 °C 4,8 km/h (1 Bft)
02.07.2019 18:09 21,4 °C 71 % 1015,5 hPa 0,0 mm 4,7 km/h (1 Bft) O-NO 67 ° 0 min 0,000 mm 1,1 UV-I 172 W/m² 15,9 °C 21,4 °C 12,9 km/h (3 Bft)
02.07.2019 18:10 21,4 °C 71 % 1015,5 hPa 0,0 mm 5,1 km/h (1 Bft) O-NO 62 ° 0 min 0,000 mm 0,9 UV-I 137 W/m² 15,9 °C 21,4 °C 9,7 km/h (2 Bft)
02.07.2019 18:11 21,4 °C 71 % 1015,5 hPa 0,0 mm 4,7 km/h (1 Bft) O-NO 57 ° 0 min 0,000 mm 0,8 UV-I 123 W/m² 15,9 °C 21,4 °C 6,4 km/h (2 Bft)
02.07.2019 18:12 21,4 °C 71 % 1015,5 hPa 0,0 mm 6,2 km/h (2 Bft) O-NO 62 ° 0 min 0,000 mm 0,7 UV-I 113 W/m² 15,9 °C 21,4 °C 8,0 km/h (2 Bft)
02.07.2019 18:13 21,3 °C 71 % 1015,5 hPa 0,0 mm 4,8 km/h (1 Bft) NO 46 ° 0 min 0,000 mm 0,7 UV-I 105 W/m² 15,8 °C 21,3 °C 6,4 km/h (2 Bft)
02.07.2019 18:14 21,3 °C 72 % 1015,5 hPa 0,0 mm 3,1 km/h (1 Bft) NO 46 ° 0 min 0,000 mm 0,6 UV-I 100 W/m² 16,0 °C 21,3 °C 6,4 km/h (2 Bft)
02.07.2019 18:15 21,3 °C 72 % 1015,5 hPa 0,0 mm 5,6 km/h (1 Bft) NO 40 ° 0 min 0,000 mm 0,6 UV-I 88 W/m² 16,0 °C 21,3 °C 8,0 km/h (2 Bft)
02.07.2019 18:16 21,2 °C 73 % 1015,5 hPa 0,0 mm 2,7 km/h (1 Bft) NO 55 ° 0 min 0,000 mm 0,5 UV-I 83 W/m² 16,2 °C 21,2 °C 6,4 km/h (2 Bft)
02.07.2019 18:17 21,1 °C 72 % 1015,5 hPa 0,0 mm 1,1 km/h (1 Bft) NO 55 ° 0 min 0,000 mm 0,5 UV-I 77 W/m² 15,8 °C 21,1 °C 3,2 km/h (1 Bft)
02.07.2019 18:18 21,1 °C 75 % 1015,5 hPa 0,0 mm 5,5 km/h (1 Bft) NO 53 ° 0 min 0,000 mm 0,5 UV-I 74 W/m² 16,5 °C 21,1 °C 9,7 km/h (2 Bft)
02.07.2019 18:19 21,0 °C 74 % 1015,5 hPa 0,0 mm 2,4 km/h (1 Bft) NO 52 ° 0 min 0,000 mm 0,5 UV-I 70 W/m² 16,2 °C 21,0 °C 6,4 km/h (2 Bft)
02.07.2019 18:20 20,9 °C 75 % 1015,6 hPa 0,0 mm 0,1 km/h (0 Bft) N-NO 30 ° 0 min 0,000 mm 0,0 UV-I 69 W/m² 16,3 °C 20,9 °C 3,2 km/h (1 Bft)
02.07.2019 18:21 20,8 °C 74 % 1015,6 hPa 0,0 mm 4,7 km/h (1 Bft) O 96 ° 0 min 0,000 mm 0,0 UV-I 67 W/m² 16,0 °C 20,8 °C 8,0 km/h (2 Bft)
02.07.2019 18:22 20,8 °C 75 % 1015,6 hPa 0,0 mm 1,4 km/h (1 Bft) O 84 ° 0 min 0,000 mm 0,5 UV-I 69 W/m² 16,2 °C 20,8 °C 6,4 km/h (2 Bft)
02.07.2019 18:23 20,7 °C 76 % 1015,6 hPa 0,0 mm 0,6 km/h (0 Bft) O 84 ° 0 min 0,000 mm 0,5 UV-I 72 W/m² 16,3 °C 20,7 °C 1,6 km/h (1 Bft)
02.07.2019 18:24 20,7 °C 75 % 1015,6 hPa 0,0 mm 0,1 km/h (0 Bft) O 84 ° 0 min 0,000 mm 0,5 UV-I 74 W/m² 16,1 °C 20,7 °C 1,6 km/h (1 Bft)
02.07.2019 18:25 20,6 °C 77 % 1015,6 hPa 0,0 mm 0,2 km/h (0 Bft) O 84 ° 0 min 0,000 mm 0,5 UV-I 74 W/m² 16,4 °C 20,6 °C 1,6 km/h (1 Bft)
02.07.2019 18:26 20,6 °C 76 % 1015,6 hPa 0,0 mm 0,0 km/h (0 Bft) O 84 ° 0 min 0,000 mm 0,5 UV-I 72 W/m² 16,2 °C 20,6 °C 0,0 km/h (0 Bft)
02.07.2019 18:27 20,4 °C 77 % 1015,6 hPa 0,0 mm 0,0 km/h (0 Bft) O 84 ° 0 min 0,000 mm 0,5 UV-I 77 W/m² 16,2 °C 20,4 °C 0,0 km/h (0 Bft)
02.07.2019 18:28 20,4 °C 75 % 1015,6 hPa 0,0 mm 0,0 km/h (0 Bft) O 84 ° 0 min 0,000 mm 0,5 UV-I 81 W/m² 15,8 °C 20,4 °C 0,0 km/h (0 Bft)
02.07.2019 18:29 20,4 °C 75 % 1015,6 hPa 0,0 mm 0,0 km/h (0 Bft) O 84 ° 0 min 0,000 mm 0,6 UV-I 83 W/m² 15,8 °C 20,4 °C 0,0 km/h (0 Bft)
02.07.2019 18:30 20,3 °C 80 % 1015,5 hPa 0,0 mm 0,0 km/h (0 Bft) O 84 ° 0 min 0,000 mm 0,6 UV-I 84 W/m² 16,7 °C 20,3 °C 0,0 km/h (0 Bft)
02.07.2019 18:31 20,2 °C 78 % 1015,5 hPa 0,0 mm 0,7 km/h (0 Bft) O-SO 113 ° 0 min 0,000 mm 0,6 UV-I 86 W/m² 16,2 °C 20,2 °C 3,2 km/h (1 Bft)
02.07.2019 18:32 20,2 °C 80 % 1015,6 hPa 0,0 mm 1,9 km/h (1 Bft) O-SO 113 ° 0 min 0,000 mm 0,6 UV-I 88 W/m² 16,6 °C 20,2 °C 4,8 km/h (1 Bft)
02.07.2019 18:33 20,2 °C 79 % 1015,6 hPa 0,0 mm 0,3 km/h (0 Bft) O-SO 113 ° 0 min 0,000 mm 0,6 UV-I 97 W/m² 16,4 °C 20,2 °C 3,2 km/h (1 Bft)
02.07.2019 18:34 20,2 °C 79 % 1015,5 hPa 0,0 mm 0,3 km/h (0 Bft) O-SO 113 ° 0 min 0,000 mm 0,7 UV-I 102 W/m² 16,4 °C 20,2 °C 1,6 km/h (1 Bft)
02.07.2019 18:35 20,2 °C 78 % 1015,5 hPa 0,0 mm 1,1 km/h (1 Bft) O-SO 113 ° 0 min 0,000 mm 0,7 UV-I 107 W/m² 16,2 °C 20,2 °C 1,6 km/h (1 Bft)
02.07.2019 18:36 20,2 °C 78 % 1015,5 hPa 0,0 mm 0,0 km/h (0 Bft) O-SO 113 ° 0 min 0,000 mm 0,8 UV-I 113 W/m² 16,2 °C 20,2 °C 0,0 km/h (0 Bft)
02.07.2019 18:37 20,2 °C 78 % 1015,5 hPa 0,0 mm 0,0 km/h (0 Bft) O-SO 113 ° 0 min 0,000 mm 0,8 UV-I 120 W/m² 16,2 °C 20,2 °C 0,0 km/h (0 Bft)
02.07.2019 18:38 20,3 °C 78 % 1015,5 hPa 0,0 mm 0,0 km/h (0 Bft) O-SO 113 ° 0 min 0,000 mm 0,9 UV-I 123 W/m² 16,3 °C 20,3 °C 0,0 km/h (0 Bft)
02.07.2019 18:39 20,3 °C 78 % 1015,5 hPa 0,0 mm 0,2 km/h (0 Bft) O-SO 113 ° 0 min 0,000 mm 0,9 UV-I 116 W/m² 16,3 °C 20,3 °C 1,6 km/h (1 Bft)
02.07.2019 18:40 20,3 °C 80 % 1015,5 hPa 0,0 mm 0,9 km/h (0 Bft) O-SO 111 ° 0 min 0,000 mm 0,9 UV-I 114 W/m² 16,7 °C 20,3 °C 3,2 km/h (1 Bft)
02.07.2019 18:41 20,3 °C 78 % 1015,5 hPa 0,0 mm 0,0 km/h (0 Bft) O-SO 111 ° 0 min 0,000 mm 0,9 UV-I 116 W/m² 16,3 °C 20,3 °C 0,0 km/h (0 Bft)
02.07.2019 18:42 20,3 °C 78 % 1015,5 hPa 0,0 mm 0,0 km/h (0 Bft) O-SO 111 ° 0 min 0,000 mm 0,9 UV-I 120 W/m² 16,3 °C 20,3 °C 0,0 km/h (0 Bft)
02.07.2019 18:43 20,4 °C 77 % 1015,5 hPa 0,0 mm 1,5 km/h (1 Bft) O-SO 111 ° 0 min 0,000 mm 0,9 UV-I 128 W/m² 16,2 °C 20,4 °C 3,2 km/h (1 Bft)
02.07.2019 18:44 20,4 °C 78 % 1015,5 hPa 0,0 mm 2,0 km/h (1 Bft) O-SO 109 ° 0 min 0,000 mm 0,9 UV-I 142 W/m² 16,4 °C 20,4 °C 4,8 km/h (1 Bft)
02.07.2019 18:45 20,5 °C 76 % 1015,5 hPa 0,0 mm 1,2 km/h (1 Bft) O-NO 64 ° 0 min 0,000 mm 1,0 UV-I 248 W/m² 16,1 °C 20,5 °C 4,8 km/h (1 Bft)
02.07.2019 18:46 20,6 °C 77 % 1015,5 hPa 0,0 mm 5,0 km/h (1 Bft) NO 47 ° 0 min 0,000 mm 1,2 UV-I 330 W/m² 16,4 °C 20,6 °C 6,4 km/h (2 Bft)
02.07.2019 18:47 20,7 °C 75 % 1015,5 hPa 0,0 mm 2,4 km/h (1 Bft) NO 44 ° 0 min 0,000 mm 1,2 UV-I 360 W/m² 16,1 °C 20,7 °C 4,8 km/h (1 Bft)
02.07.2019 18:48 20,8 °C 78 % 1015,5 hPa 0,0 mm 0,0 km/h (0 Bft) NO 44 ° 0 min 0,000 mm 1,2 UV-I 355 W/m² 16,8 °C 20,8 °C 0,0 km/h (0 Bft)
02.07.2019 18:49 20,9 °C 77 % 1015,4 hPa 0,0 mm 1,1 km/h (1 Bft) N-NO 12 ° 0 min 0,000 mm 1,2 UV-I 350 W/m² 16,7 °C 20,9 °C 4,8 km/h (1 Bft)
02.07.2019 18:50 20,9 °C 75 % 1015,4 hPa 0,0 mm 4,1 km/h (1 Bft) N-NO 31 ° 0 min 0,000 mm 1,2 UV-I 341 W/m² 16,3 °C 20,9 °C 4,8 km/h (1 Bft)
02.07.2019 18:51 21,1 °C 74 % 1015,4 hPa 0,0 mm 3,4 km/h (1 Bft) NO 36 ° 0 min 0,000 mm 1,2 UV-I 353 W/m² 16,3 °C 21,1 °C 4,8 km/h (1 Bft)
02.07.2019 18:52 21,1 °C 74 % 1015,4 hPa 0,0 mm 4,7 km/h (1 Bft) NO 55 ° 0 min 0,000 mm 1,2 UV-I 348 W/m² 16,3 °C 21,1 °C 6,4 km/h (2 Bft)
02.07.2019 18:53 21,2 °C 73 % 1015,4 hPa 0,0 mm 3,0 km/h (1 Bft) N 5 ° 0 min 0,000 mm 1,2 UV-I 350 W/m² 16,2 °C 21,2 °C 6,4 km/h (2 Bft)
02.07.2019 18:54 21,3 °C 72 % 1015,4 hPa 0,0 mm 3,0 km/h (1 Bft) NO 40 ° 0 min 0,000 mm 1,2 UV-I 346 W/m² 16,0 °C 21,3 °C 6,4 km/h (2 Bft)
02.07.2019 18:55 21,3 °C 71 % 1015,4 hPa 0,0 mm 4,7 km/h (1 Bft) NO 42 ° 0 min 0,000 mm 1,1 UV-I 323 W/m² 15,8 °C 21,3 °C 9,7 km/h (2 Bft)
02.07.2019 18:56 21,3 °C 72 % 1015,4 hPa 0,0 mm 2,8 km/h (1 Bft) N-NO 31 ° 0 min 0,000 mm 1,0 UV-I 190 W/m² 16,0 °C 21,3 °C 6,4 km/h (2 Bft)
02.07.2019 18:57 21,3 °C 72 % 1015,3 hPa 0,0 mm 4,7 km/h (1 Bft) NO 46 ° 0 min 0,000 mm 0,9 UV-I 151 W/m² 16,0 °C 21,3 °C 6,4 km/h (2 Bft)
02.07.2019 18:58 21,3 °C 71 % 1015,4 hPa 0,0 mm 3,8 km/h (1 Bft) NO 51 ° 0 min 0,000 mm 0,9 UV-I 144 W/m² 15,8 °C 21,3 °C 4,8 km/h (1 Bft)
02.07.2019 18:59 21,2 °C 71 % 1015,4 hPa 0,0 mm 0,4 km/h (0 Bft) NO 51 ° 0 min 0,000 mm 0,9 UV-I 144 W/m² 15,7 °C 21,2 °C 1,6 km/h (1 Bft)
02.07.2019 19:00 21,2 °C 72 % 1015,3 hPa 0,0 mm 1,4 km/h (1 Bft) O-NO 70 ° 0 min 0,000 mm 0,9 UV-I 146 W/m² 15,9 °C 21,2 °C 3,2 km/h (1 Bft)
02.07.2019 19:01 21,2 °C 72 % 1015,3 hPa 0,0 mm 2,3 km/h (1 Bft) NO 34 ° 0 min 0,102 mm 0,9 UV-I 146 W/m² 15,9 °C 21,2 °C 8,0 km/h (2 Bft)
02.07.2019 19:02 21,2 °C 72 % 1015,4 hPa 0,0 mm 3,8 km/h (1 Bft) NO 34 ° 0 min 0,000 mm 0,8 UV-I 190 W/m² 15,9 °C 21,2 °C 6,4 km/h (2 Bft)
02.07.2019 19:03 21,1 °C 71 % 1015,4 hPa 0,0 mm 2,6 km/h (1 Bft) NO 51 ° 0 min 0,000 mm 0,8 UV-I 174 W/m² 15,6 °C 21,1 °C 6,4 km/h (2 Bft)
02.07.2019 19:04 21,1 °C 71 % 1015,4 hPa 0,0 mm 2,9 km/h (1 Bft) NO 51 ° 0 min 0,000 mm 0,8 UV-I 163 W/m² 15,6 °C 21,1 °C 4,8 km/h (1 Bft)
02.07.2019 19:05 21,1 °C 72 % 1015,4 hPa 0,0 mm 2,8 km/h (1 Bft) O-NO 57 ° 0 min 0,000 mm 0,7 UV-I 132 W/m² 15,8 °C 21,1 °C 4,8 km/h (1 Bft)
02.07.2019 19:06 21,1 °C 72 % 1015,4 hPa 0,0 mm 1,9 km/h (1 Bft) O-NO 57 ° 0 min 0,000 mm 0,6 UV-I 118 W/m² 15,8 °C 21,1 °C 4,8 km/h (1 Bft)
02.07.2019 19:07 21,1 °C 72 % 1015,4 hPa 0,0 mm 3,2 km/h (1 Bft) O 92 ° 0 min 0,000 mm 0,5 UV-I 100 W/m² 15,8 °C 21,1 °C 6,4 km/h (2 Bft)
02.07.2019 19:08 21,0 °C 73 % 1015,4 hPa 0,0 mm 3,9 km/h (1 Bft) O 94 ° 0 min 0,000 mm 0,5 UV-I 72 W/m² 16,0 °C 21,0 °C 9,7 km/h (2 Bft)
02.07.2019 19:09 20,9 °C 73 % 1015,4 hPa 0,0 mm 3,4 km/h (1 Bft) NO 56 ° 0 min 0,000 mm 0,0 UV-I 63 W/m² 15,9 °C 20,9 °C 6,4 km/h (2 Bft)
02.07.2019 19:10 20,9 °C 72 % 1015,4 hPa 0,0 mm 0,8 km/h (0 Bft) NO 56 ° 0 min 0,000 mm 0,0 UV-I 56 W/m² 15,7 °C 20,9 °C 3,2 km/h (1 Bft)
02.07.2019 19:11 20,8 °C 74 % 1015,4 hPa 0,0 mm 2,8 km/h (1 Bft) O-NO 57 ° 0 min 0,000 mm 0,0 UV-I 51 W/m² 16,0 °C 20,8 °C 4,8 km/h (1 Bft)
02.07.2019 19:12 20,8 °C 73 % 1015,4 hPa 0,0 mm 3,0 km/h (1 Bft) N-NO 26 ° 0 min 0,000 mm 0,0 UV-I 47 W/m² 15,8 °C 20,8 °C 4,8 km/h (1 Bft)
02.07.2019 19:13 20,8 °C 72 % 1015,4 hPa 0,0 mm 0,4 km/h (0 Bft) N-NO 26 ° 0 min 0,000 mm 0,0 UV-I 47 W/m² 15,6 °C 20,8 °C 3,2 km/h (1 Bft)
02.07.2019 19:14 20,8 °C 72 % 1015,5 hPa 0,0 mm 0,0 km/h (0 Bft) N-NO 26 ° 0 min 0,000 mm 0,0 UV-I 47 W/m² 15,6 °C 20,8 °C 0,0 km/h (0 Bft)
02.07.2019 19:15 20,8 °C 73 % 1015,4 hPa 0,0 mm 0,0 km/h (0 Bft) N-NO 26 ° 0 min 0,000 mm 0,0 UV-I 49 W/m² 15,8 °C 20,8 °C 0,0 km/h (0 Bft)
02.07.2019 19:16 20,7 °C 74 % 1015,4 hPa 0,0 mm 0,0 km/h (0 Bft) N-NO 26 ° 0 min 0,000 mm 0,0 UV-I 51 W/m² 15,9 °C 20,7 °C 0,0 km/h (0 Bft)
02.07.2019 19:17 20,7 °C 73 % 1015,4 hPa 0,0 mm 0,5 km/h (0 Bft) N-NO 26 ° 0 min 0,000 mm 0,0 UV-I 54 W/m² 15,7 °C 20,7 °C 1,6 km/h (1 Bft)
02.07.2019 19:18 20,7 °C 75 % 1015,4 hPa 0,0 mm 1,8 km/h (1 Bft) NO 42 ° 0 min 0,000 mm 0,0 UV-I 58 W/m² 16,1 °C 20,7 °C 4,8 km/h (1 Bft)
02.07.2019 19:19 20,6 °C 76 % 1015,3 hPa 0,0 mm 1,9 km/h (1 Bft) NO 42 ° 0 min 0,000 mm 0,0 UV-I 62 W/m² 16,2 °C 20,6 °C 3,2 km/h (1 Bft)
02.07.2019 19:20 20,6 °C 76 % 1015,4 hPa 0,0 mm 0,0 km/h (0 Bft) NO 42 ° 0 min 0,000 mm 0,0 UV-I 69 W/m² 16,2 °C 20,6 °C 0,0 km/h (0 Bft)
02.07.2019 19:21 20,4 °C 77 % 1015,4 hPa 0,0 mm 0,0 km/h (0 Bft) NO 42 ° 0 min 0,000 mm 0,0 UV-I 72 W/m² 16,2 °C 20,4 °C 0,0 km/h (0 Bft)
02.07.2019 19:22 20,4 °C 75 % 1015,3 hPa 0,0 mm 0,0 km/h (0 Bft) NO 42 ° 0 min 0,000 mm 0,0 UV-I 76 W/m² 15,8 °C 20,4 °C 0,0 km/h (0 Bft)
02.07.2019 19:23 20,3 °C 76 % 1015,3 hPa 0,0 mm 0,0 km/h (0 Bft) NO 42 ° 0 min 0,000 mm 0,0 UV-I 77 W/m² 15,9 °C 20,3 °C 0,0 km/h (0 Bft)
02.07.2019 19:24 20,3 °C 75 % 1015,3 hPa 0,0 mm 0,0 km/h (0 Bft) NO 42 ° 0 min 0,000 mm 0,0 UV-I 79 W/m² 15,7 °C 20,3 °C 0,0 km/h (0 Bft)
02.07.2019 19:25 20,3 °C 75 % 1015,3 hPa 0,0 mm 0,0 km/h (0 Bft) NO 42 ° 0 min 0,000 mm 0,0 UV-I 72 W/m² 15,7 °C 20,3 °C 0,0 km/h (0 Bft)
02.07.2019 19:26 20,3 °C 76 % 1015,3 hPa 0,0 mm 0,0 km/h (0 Bft) NO 42 ° 0 min 0,000 mm 0,0 UV-I 70 W/m² 15,9 °C 20,3 °C 0,0 km/h (0 Bft)
02.07.2019 19:27 20,3 °C 77 % 1015,3 hPa 0,0 mm 0,0 km/h (0 Bft) NO 42 ° 0 min 0,000 mm 0,0 UV-I 69 W/m² 16,1 °C 20,3 °C 0,0 km/h (0 Bft)
02.07.2019 19:28 20,2 °C 78 % 1015,3 hPa 0,0 mm 0,0 km/h (0 Bft) NO 42 ° 0 min 0,000 mm 0,0 UV-I 69 W/m² 16,2 °C 20,2 °C 0,0 km/h (0 Bft)
02.07.2019 19:29 20,2 °C 77 % 1015,3 hPa 0,0 mm 0,0 km/h (0 Bft) NO 42 ° 0 min 0,000 mm 0,0 UV-I 70 W/m² 16,0 °C 20,2 °C 0,0 km/h (0 Bft)
02.07.2019 19:30 20,2 °C 76 % 1015,3 hPa 0,0 mm 0,0 km/h (0 Bft) NO 42 ° 0 min 0,000 mm 0,0 UV-I 74 W/m² 15,8 °C 20,2 °C 0,0 km/h (0 Bft)
02.07.2019 19:31 20,2 °C 76 % 1015,3 hPa 0,0 mm 0,0 km/h (0 Bft) NO 42 ° 0 min 0,000 mm 0,0 UV-I 74 W/m² 15,8 °C 20,2 °C 0,0 km/h (0 Bft)
02.07.2019 19:32 20,2 °C 76 % 1015,3 hPa 0,0 mm 0,0 km/h (0 Bft) NO 42 ° 0 min 0,000 mm 0,0 UV-I 76 W/m² 15,8 °C 20,2 °C 0,0 km/h (0 Bft)
02.07.2019 19:33 20,2 °C 76 % 1015,3 hPa 0,0 mm 0,0 km/h (0 Bft) NO 42 ° 0 min 0,000 mm 0,0 UV-I 76 W/m² 15,8 °C 20,2 °C 0,0 km/h (0 Bft)
02.07.2019 19:34 20,2 °C 78 % 1015,2 hPa 0,0 mm 0,0 km/h (0 Bft) NO 42 ° 0 min 0,000 mm 0,0 UV-I 77 W/m² 16,2 °C 20,2 °C 0,0 km/h (0 Bft)
02.07.2019 19:35 20,2 °C 78 % 1015,2 hPa 0,0 mm 0,0 km/h (0 Bft) NO 42 ° 0 min 0,000 mm 0,0 UV-I 77 W/m² 16,2 °C 20,2 °C 0,0 km/h (0 Bft)
02.07.2019 19:36 20,1 °C 76 % 1015,2 hPa 0,0 mm 0,0 km/h (0 Bft) NO 42 ° 0 min 0,000 mm 0,0 UV-I 79 W/m² 15,7 °C 20,1 °C 0,0 km/h (0 Bft)
02.07.2019 19:37 20,2 °C 76 % 1015,2 hPa 0,0 mm 0,0 km/h (0 Bft) NO 42 ° 0 min 0,000 mm 0,0 UV-I 79 W/m² 15,8 °C 20,2 °C 0,0 km/h (0 Bft)
02.07.2019 19:38 20,2 °C 76 % 1015,2 hPa 0,0 mm 0,7 km/h (0 Bft) O-NO 65 ° 0 min 0,000 mm 0,0 UV-I 79 W/m² 15,8 °C 20,2 °C 3,2 km/h (1 Bft)
02.07.2019 19:39 20,2 °C 76 % 1015,2 hPa 0,0 mm 0,7 km/h (0 Bft) O-NO 65 ° 0 min 0,000 mm 0,0 UV-I 81 W/m² 15,8 °C 20,2 °C 3,2 km/h (1 Bft)
02.07.2019 19:40 20,2 °C 76 % 1015,2 hPa 0,0 mm 0,1 km/h (0 Bft) O-NO 65 ° 0 min 0,000 mm 0,0 UV-I 84 W/m² 15,8 °C 20,2 °C 1,6 km/h (1 Bft)
02.07.2019 19:41 20,3 °C 75 % 1015,2 hPa 0,0 mm 0,0 km/h (0 Bft) O-NO 65 ° 0 min 0,000 mm 0,0 UV-I 81 W/m² 15,7 °C 20,3 °C 0,0 km/h (0 Bft)
02.07.2019 19:42 20,3 °C 76 % 1015,2 hPa 0,0 mm 0,0 km/h (0 Bft) O-NO 65 ° 0 min 0,000 mm 0,0 UV-I 79 W/m² 15,9 °C 20,3 °C 0,0 km/h (0 Bft)
02.07.2019 19:43 20,3 °C 76 % 1015,2 hPa 0,0 mm 0,0 km/h (0 Bft) O-NO 65 ° 0 min 0,000 mm 0,0 UV-I 83 W/m² 15,9 °C 20,3 °C 0,0 km/h (0 Bft)
02.07.2019 19:44 20,3 °C 78 % 1015,2 hPa 0,0 mm 0,0 km/h (0 Bft) O-NO 65 ° 0 min 0,000 mm 0,0 UV-I 88 W/m² 16,3 °C 20,3 °C 0,0 km/h (0 Bft)
02.07.2019 19:45 20,3 °C 76 % 1015,2 hPa 0,0 mm 0,0 km/h (0 Bft) O-NO 65 ° 0 min 0,000 mm 0,0 UV-I 88 W/m² 15,9 °C 20,3 °C 0,0 km/h (0 Bft)
02.07.2019 19:46 20,3 °C 76 % 1015,2 hPa 0,0 mm 0,0 km/h (0 Bft) O-NO 65 ° 0 min 0,000 mm 0,0 UV-I 95 W/m² 15,9 °C 20,3 °C 0,0 km/h (0 Bft)
02.07.2019 19:47 20,3 °C 78 % 1015,2 hPa 0,0 mm 0,0 km/h (0 Bft) O-NO 65 ° 0 min 0,000 mm 0,5 UV-I 90 W/m² 16,3 °C 20,3 °C 0,0 km/h (0 Bft)
02.07.2019 19:48 20,2 °C 78 % 1015,2 hPa 0,0 mm 0,0 km/h (0 Bft) O-NO 65 ° 0 min 0,000 mm 0,5 UV-I 88 W/m² 16,2 °C 20,2 °C 0,0 km/h (0 Bft)
02.07.2019 19:49 20,2 °C 79 % 1015,3 hPa 0,0 mm 0,0 km/h (0 Bft) O-NO 65 ° 0 min 0,000 mm 0,5 UV-I 72 W/m² 16,4 °C 20,2 °C 0,0 km/h (0 Bft)
02.07.2019 19:50 20,2 °C 79 % 1015,2 hPa 0,0 mm 0,0 km/h (0 Bft) O-NO 65 ° 0 min 0,000 mm 0,0 UV-I 67 W/m² 16,4 °C 20,2 °C 0,0 km/h (0 Bft)
02.07.2019 19:51 20,2 °C 79 % 1015,3 hPa 0,0 mm 0,0 km/h (0 Bft) O-NO 65 ° 0 min 0,000 mm 0,0 UV-I 63 W/m² 16,4 °C 20,2 °C 0,0 km/h (0 Bft)
02.07.2019 19:52 20,2 °C 78 % 1015,3 hPa 0,0 mm 0,0 km/h (0 Bft) O-NO 65 ° 0 min 0,000 mm 0,0 UV-I 60 W/m² 16,2 °C 20,2 °C 0,0 km/h (0 Bft)
02.07.2019 19:53 20,1 °C 78 % 1015,3 hPa 0,0 mm 0,0 km/h (0 Bft) O-NO 65 ° 0 min 0,000 mm 0,0 UV-I 56 W/m² 16,1 °C 20,1 °C 0,0 km/h (0 Bft)
02.07.2019 19:54 20,1 °C 78 % 1015,3 hPa 0,0 mm 0,0 km/h (0 Bft) O-NO 65 ° 0 min 0,000 mm 0,0 UV-I 56 W/m² 16,1 °C 20,1 °C 0,0 km/h (0 Bft)
02.07.2019 19:55 20,1 °C 79 % 1015,3 hPa 0,0 mm 0,0 km/h (0 Bft) O-NO 65 ° 0 min 0,000 mm 0,0 UV-I 54 W/m² 16,3 °C 20,1 °C 0,0 km/h (0 Bft)
02.07.2019 19:56 20,1 °C 79 % 1015,4 hPa 0,0 mm 0,0 km/h (0 Bft) O-NO 65 ° 0 min 0,000 mm 0,0 UV-I 53 W/m² 16,3 °C 20,1 °C 0,0 km/h (0 Bft)
02.07.2019 19:57 20,0 °C 77 % 1015,4 hPa 0,0 mm 0,0 km/h (0 Bft) O-NO 65 ° 0 min 0,000 mm 0,0 UV-I 53 W/m² 15,8 °C 20,0 °C 0,0 km/h (0 Bft)
02.07.2019 19:58 20,1 °C 78 % 1015,4 hPa 0,0 mm 0,0 km/h (0 Bft) O-NO 65 ° 0 min 0,000 mm 0,0 UV-I 49 W/m² 16,1 °C 20,1 °C 0,0 km/h (0 Bft)
02.07.2019 19:59 20,1 °C 77 % 1015,4 hPa 0,0 mm 0,0 km/h (0 Bft) O-NO 65 ° 0 min 0,000 mm 0,0 UV-I 49 W/m² 15,9 °C 20,1 °C 0,0 km/h (0 Bft)
02.07.2019 20:00 20,1 °C 77 % 1015,4 hPa 0,0 mm 0,0 km/h (0 Bft) O-NO 65 ° 0 min 0,000 mm 0,0 UV-I 47 W/m² 15,9 °C 20,1 °C 0,0 km/h (0 Bft)
02.07.2019 20:01 20,1 °C 77 % 1015,4 hPa 0,0 mm 0,0 km/h (0 Bft) O-NO 65 ° 0 min 0,051 mm 0,0 UV-I 46 W/m² 15,9 °C 20,1 °C 0,0 km/h (0 Bft)
02.07.2019 20:02 20,1 °C 77 % 1015,4 hPa 0,0 mm 0,0 km/h (0 Bft) O-NO 65 ° 0 min 0,000 mm 0,0 UV-I 44 W/m² 15,9 °C 20,1 °C 0,0 km/h (0 Bft)
02.07.2019 20:03 20,0 °C 77 % 1015,4 hPa 0,0 mm 0,0 km/h (0 Bft) O-NO 65 ° 0 min 0,000 mm 0,0 UV-I 42 W/m² 15,8 °C 20,0 °C 0,0 km/h (0 Bft)
02.07.2019 20:04 20,1 °C 78 % 1015,4 hPa 0,0 mm 0,0 km/h (0 Bft) O-NO 65 ° 0 min 0,000 mm 0,0 UV-I 40 W/m² 16,1 °C 20,1 °C 0,0 km/h (0 Bft)
02.07.2019 20:05 20,0 °C 79 % 1015,3 hPa 0,0 mm 0,0 km/h (0 Bft) O-NO 65 ° 0 min 0,000 mm 0,0 UV-I 39 W/m² 16,2 °C 20,0 °C 0,0 km/h (0 Bft)
02.07.2019 20:06 19,9 °C 80 % 1015,3 hPa 0,0 mm 0,0 km/h (0 Bft) O-NO 65 ° 0 min 0,000 mm 0,0 UV-I 39 W/m² 16,3 °C 19,9 °C 0,0 km/h (0 Bft)
02.07.2019 20:07 19,8 °C 79 % 1015,4 hPa 0,0 mm 0,0 km/h (0 Bft) O-NO 65 ° 0 min 0,000 mm 0,0 UV-I 37 W/m² 16,0 °C 19,8 °C 0,0 km/h (0 Bft)
02.07.2019 20:08 19,8 °C 78 % 1015,4 hPa 0,0 mm 0,0 km/h (0 Bft) O-NO 65 ° 0 min 0,000 mm 0,0 UV-I 35 W/m² 15,8 °C 19,8 °C 0,0 km/h (0 Bft)
02.07.2019 20:09 19,8 °C 78 % 1015,4 hPa 0,0 mm 0,0 km/h (0 Bft) O-NO 65 ° 0 min 0,000 mm 0,0 UV-I 33 W/m² 15,8 °C 19,8 °C 0,0 km/h (0 Bft)
02.07.2019 20:10 19,8 °C 79 % 1015,4 hPa 0,0 mm 0,0 km/h (0 Bft) O-NO 65 ° 0 min 0,000 mm 0,0 UV-I 30 W/m² 16,0 °C 19,8 °C 0,0 km/h (0 Bft)
02.07.2019 20:11 19,8 °C 78 % 1015,4 hPa 0,0 mm 0,0 km/h (0 Bft) O-NO 65 ° 0 min 0,000 mm 0,0 UV-I 25 W/m² 15,8 °C 19,8 °C 0,0 km/h (0 Bft)
02.07.2019 20:12 19,8 °C 78 % 1015,4 hPa 0,0 mm 0,0 km/h (0 Bft) O-NO 65 ° 0 min 0,000 mm 0,0 UV-I 19 W/m² 15,8 °C 19,8 °C 0,0 km/h (0 Bft)
02.07.2019 20:13 19,8 °C 78 % 1015,4 hPa 0,0 mm 0,0 km/h (0 Bft) O-NO 65 ° 0 min 0,000 mm 0,0 UV-I 19 W/m² 15,8 °C 19,8 °C 0,0 km/h (0 Bft)
02.07.2019 20:14 19,8 °C 78 % 1015,4 hPa 0,0 mm 0,0 km/h (0 Bft) O-NO 65 ° 0 min 0,000 mm 0,0 UV-I 19 W/m² 15,8 °C 19,8 °C 0,0 km/h (0 Bft)
02.07.2019 20:15 19,8 °C 79 % 1015,5 hPa 0,0 mm 1,5 km/h (1 Bft) O-NO 65 ° 0 min 0,000 mm 0,0 UV-I 19 W/m² 16,0 °C 19,8 °C 3,2 km/h (1 Bft)
02.07.2019 20:16 19,8 °C 79 % 1015,5 hPa 0,0 mm 0,8 km/h (0 Bft) O-NO 65 ° 0 min 0,000 mm 0,0 UV-I 19 W/m² 16,0 °C 19,8 °C 3,2 km/h (1 Bft)
02.07.2019 20:17 19,7 °C 79 % 1015,5 hPa 0,0 mm 0,0 km/h (0 Bft) O-NO 65 ° 0 min 0,000 mm 0,0 UV-I 19 W/m² 16,0 °C 19,7 °C 0,0 km/h (0 Bft)
02.07.2019 20:18 19,7 °C 79 % 1015,5 hPa 0,0 mm 0,0 km/h (0 Bft) O-NO 65 ° 0 min 0,000 mm 0,0 UV-I 18 W/m² 16,0 °C 19,7 °C 0,0 km/h (0 Bft)
02.07.2019 20:19 19,7 °C 78 % 1015,5 hPa 0,0 mm 0,0 km/h (0 Bft) O-NO 65 ° 0 min 0,000 mm 0,0 UV-I 16 W/m² 15,8 °C 19,7 °C 0,0 km/h (0 Bft)
02.07.2019 20:20 19,7 °C 80 % 1015,5 hPa 0,0 mm 0,0 km/h (0 Bft) O-NO 65 ° 0 min 0,000 mm 0,0 UV-I 16 W/m² 16,1 °C 19,7 °C 0,0 km/h (0 Bft)
02.07.2019 20:21 19,7 °C 79 % 1015,5 hPa 0,0 mm 0,0 km/h (0 Bft) O-NO 65 ° 0 min 0,000 mm 0,0 UV-I 16 W/m² 16,0 °C 19,7 °C 0,0 km/h (0 Bft)
02.07.2019 20:22 19,7 °C 78 % 1015,5 hPa 0,0 mm 0,0 km/h (0 Bft) O-NO 65 ° 0 min 0,000 mm 0,0 UV-I 16 W/m² 15,8 °C 19,7 °C 0,0 km/h (0 Bft)
02.07.2019 20:23 19,7 °C 79 % 1015,5 hPa 0,0 mm 0,0 km/h (0 Bft) O-NO 65 ° 0 min 0,000 mm 0,0 UV-I 16 W/m² 16,0 °C 19,7 °C 0,0 km/h (0 Bft)
02.07.2019 20:24 19,7 °C 78 % 1015,5 hPa 0,0 mm 0,0 km/h (0 Bft) O-NO 65 ° 0 min 0,000 mm 0,0 UV-I 18 W/m² 15,8 °C 19,7 °C 0,0 km/h (0 Bft)
02.07.2019 20:25 19,7 °C 78 % 1015,5 hPa 0,0 mm 0,0 km/h (0 Bft) O-NO 65 ° 0 min 0,000 mm 0,0 UV-I 18 W/m² 15,8 °C 19,7 °C 0,0 km/h (0 Bft)
02.07.2019 20:26 19,7 °C 79 % 1015,5 hPa 0,0 mm 0,0 km/h (0 Bft) O-NO 65 ° 0 min 0,000 mm 0,0 UV-I 18 W/m² 16,0 °C 19,7 °C 0,0 km/h (0 Bft)
02.07.2019 20:27 19,7 °C 79 % 1015,5 hPa 0,0 mm 0,0 km/h (0 Bft) O-NO 65 ° 0 min 0,000 mm 0,0 UV-I 18 W/m² 16,0 °C 19,7 °C 0,0 km/h (0 Bft)
02.07.2019 20:28 19,6 °C 79 % 1015,5 hPa 0,0 mm 0,0 km/h (0 Bft) O-NO 65 ° 0 min 0,000 mm 0,0 UV-I 19 W/m² 15,9 °C 19,6 °C 0,0 km/h (0 Bft)
02.07.2019 20:29 19,6 °C 79 % 1015,5 hPa 0,0 mm 0,0 km/h (0 Bft) O-NO 65 ° 0 min 0,000 mm 0,0 UV-I 18 W/m² 15,9 °C 19,6 °C 0,0 km/h (0 Bft)
02.07.2019 20:30 19,6 °C 80 % 1015,5 hPa 0,0 mm 0,0 km/h (0 Bft) O-NO 65 ° 0 min 0,000 mm 0,0 UV-I 18 W/m² 16,1 °C 19,6 °C 0,0 km/h (0 Bft)
02.07.2019 20:31 19,6 °C 80 % 1015,5 hPa 0,0 mm 0,0 km/h (0 Bft) O-NO 65 ° 0 min 0,000 mm 0,0 UV-I 18 W/m² 16,1 °C 19,6 °C 0,0 km/h (0 Bft)
02.07.2019 20:32 19,5 °C 80 % 1015,5 hPa 0,0 mm 0,0 km/h (0 Bft) O-NO 65 ° 0 min 0,000 mm 0,0 UV-I 18 W/m² 16,0 °C 19,5 °C 0,0 km/h (0 Bft)
02.07.2019 20:33 19,5 °C 81 % 1015,5 hPa 0,0 mm 0,0 km/h (0 Bft) O-NO 65 ° 0 min 0,000 mm 0,0 UV-I 16 W/m² 16,1 °C 19,5 °C 0,0 km/h (0 Bft)
02.07.2019 20:34 19,4 °C 80 % 1015,6 hPa 0,0 mm 0,0 km/h (0 Bft) O-NO 65 ° 0 min 0,000 mm 0,0 UV-I 16 W/m² 15,9 °C 19,4 °C 0,0 km/h (0 Bft)
02.07.2019 20:35 19,4 °C 80 % 1015,6 hPa 0,0 mm 0,0 km/h (0 Bft) O-NO 65 ° 0 min 0,000 mm 0,0 UV-I 14 W/m² 15,9 °C 19,4 °C 0,0 km/h (0 Bft)
02.07.2019 20:36 19,4 °C 80 % 1015,5 hPa 0,0 mm 0,0 km/h (0 Bft) O-NO 65 ° 0 min 0,000 mm 0,0 UV-I 12 W/m² 15,9 °C 19,4 °C 0,0 km/h (0 Bft)
02.07.2019 20:37 19,4 °C 81 % 1015,5 hPa 0,0 mm 0,0 km/h (0 Bft) O-NO 65 ° 0 min 0,000 mm 0,0 UV-I 12 W/m² 16,1 °C 19,4 °C 0,0 km/h (0 Bft)
02.07.2019 20:38 19,4 °C 81 % 1015,6 hPa 0,0 mm 0,0 km/h (0 Bft) O-NO 65 ° 0 min 0,000 mm 0,0 UV-I 11 W/m² 16,1 °C 19,4 °C 0,0 km/h (0 Bft)
02.07.2019 20:39 19,4 °C 80 % 1015,6 hPa 0,0 mm 0,0 km/h (0 Bft) O-NO 65 ° 0 min 0,000 mm 0,0 UV-I 11 W/m² 15,9 °C 19,4 °C 0,0 km/h (0 Bft)
02.07.2019 20:40 19,4 °C 81 % 1015,6 hPa 0,0 mm 0,0 km/h (0 Bft) O-NO 65 ° 0 min 0,000 mm 0,0 UV-I 11 W/m² 16,1 °C 19,4 °C 0,0 km/h (0 Bft)
02.07.2019 20:41 19,4 °C 81 % 1015,6 hPa 0,0 mm 0,0 km/h (0 Bft) O-NO 65 ° 0 min 0,000 mm 0,0 UV-I 9 W/m² 16,1 °C 19,4 °C 0,0 km/h (0 Bft)
02.07.2019 20:42 19,3 °C 81 % 1015,6 hPa 0,0 mm 0,0 km/h (0 Bft) O-NO 65 ° 0 min 0,000 mm 0,0 UV-I 9 W/m² 16,0 °C 19,3 °C 0,0 km/h (0 Bft)
02.07.2019 20:43 19,3 °C 80 % 1015,6 hPa 0,0 mm 0,0 km/h (0 Bft) O-NO 65 ° 0 min 0,000 mm 0,0 UV-I 9 W/m² 15,8 °C 19,3 °C 0,0 km/h (0 Bft)
02.07.2019 20:44 19,3 °C 81 % 1015,6 hPa 0,0 mm 0,0 km/h (0 Bft) O-NO 65 ° 0 min 0,000 mm 0,0 UV-I 9 W/m² 16,0 °C 19,3 °C 0,0 km/h (0 Bft)
02.07.2019 20:45 19,3 °C 82 % 1015,6 hPa 0,0 mm 0,0 km/h (0 Bft) O-NO 65 ° 0 min 0,000 mm 0,0 UV-I 11 W/m² 16,1 °C 19,3 °C 0,0 km/h (0 Bft)
02.07.2019 20:46 19,3 °C 83 % 1015,5 hPa 0,0 mm 0,0 km/h (0 Bft) O-NO 65 ° 0 min 0,000 mm 0,0 UV-I 11 W/m² 16,3 °C 19,3 °C 0,0 km/h (0 Bft)
02.07.2019 20:47 19,3 °C 82 % 1015,6 hPa 0,0 mm 0,0 km/h (0 Bft) O-NO 65 ° 0 min 0,000 mm 0,0 UV-I 11 W/m² 16,1 °C 19,3 °C 0,0 km/h (0 Bft)
02.07.2019 20:48 19,3 °C 81 % 1015,6 hPa 0,0 mm 0,0 km/h (0 Bft) O-NO 65 ° 0 min 0,000 mm 0,0 UV-I 9 W/m² 16,0 °C 19,3 °C 0,0 km/h (0 Bft)
02.07.2019 20:49 19,3 °C 81 % 1015,5 hPa 0,0 mm 0,0 km/h (0 Bft) O-NO 65 ° 0 min 0,000 mm 0,0 UV-I 9 W/m² 16,0 °C 19,3 °C 0,0 km/h (0 Bft)
02.07.2019 20:50 19,3 °C 82 % 1015,5 hPa 0,0 mm 0,0 km/h (0 Bft) O-NO 65 ° 0 min 0,000 mm 0,0 UV-I 9 W/m² 16,1 °C 19,3 °C 0,0 km/h (0 Bft)
02.07.2019 20:51 19,2 °C 81 % 1015,5 hPa 0,0 mm 0,0 km/h (0 Bft) O-NO 65 ° 0 min 0,000 mm 0,0 UV-I 9 W/m² 15,9 °C 19,2 °C 0,0 km/h (0 Bft)
02.07.2019 20:52 19,2 °C 81 % 1015,5 hPa 0,0 mm 0,0 km/h (0 Bft) O-NO 65 ° 0 min 0,000 mm 0,0 UV-I 9 W/m² 15,9 °C 19,2 °C 0,0 km/h (0 Bft)
02.07.2019 20:53 19,2 °C 81 % 1015,5 hPa 0,0 mm 0,0 km/h (0 Bft) O-NO 65 ° 0 min 0,000 mm 0,0 UV-I 11 W/m² 15,9 °C 19,2 °C 0,0 km/h (0 Bft)
02.07.2019 20:54 19,2 °C 81 % 1015,5 hPa 0,0 mm 0,0 km/h (0 Bft) O-NO 65 ° 0 min 0,000 mm 0,0 UV-I 12 W/m² 15,9 °C 19,2 °C 0,0 km/h (0 Bft)
02.07.2019 20:55 19,2 °C 81 % 1015,5 hPa 0,0 mm 0,0 km/h (0 Bft) O-NO 65 ° 0 min 0,000 mm 0,0 UV-I 14 W/m² 15,9 °C 19,2 °C 0,0 km/h (0 Bft)
02.07.2019 20:56 19,2 °C 81 % 1015,5 hPa 0,0 mm 0,0 km/h (0 Bft) O-NO 65 ° 0 min 0,000 mm 0,0 UV-I 14 W/m² 15,9 °C 19,2 °C 0,0 km/h (0 Bft)
02.07.2019 20:57 19,2 °C 81 % 1015,4 hPa 0,0 mm 0,0 km/h (0 Bft) O-NO 65 ° 0 min 0,000 mm 0,0 UV-I 16 W/m² 15,9 °C 19,2 °C 0,0 km/h (0 Bft)
02.07.2019 20:58 19,2 °C 81 % 1015,5 hPa 0,0 mm 0,0 km/h (0 Bft) O-NO 65 ° 0 min 0,000 mm 0,0 UV-I 16 W/m² 15,9 °C 19,2 °C 0,0 km/h (0 Bft)
02.07.2019 20:59 19,1 °C 81 % 1015,5 hPa 0,0 mm 0,0 km/h (0 Bft) O-NO 65 ° 0 min 0,000 mm 0,0 UV-I 18 W/m² 15,8 °C 19,1 °C 0,0 km/h (0 Bft)
02.07.2019 21:00 19,1 °C 82 % 1015,4 hPa 0,0 mm 0,1 km/h (0 Bft) O-NO 65 ° 0 min 0,000 mm 0,0 UV-I 18 W/m² 16,0 °C 19,1 °C 1,6 km/h (1 Bft)
02.07.2019 21:01 19,1 °C 82 % 1015,4 hPa 0,0 mm 0,8 km/h (0 Bft) O-NO 65 ° 0 min 0,025 mm 0,0 UV-I 18 W/m² 16,0 °C 19,1 °C 1,6 km/h (1 Bft)
02.07.2019 21:02 19,1 °C 82 % 1015,4 hPa 0,0 mm 0,2 km/h (0 Bft) O-NO 65 ° 0 min 0,000 mm 0,0 UV-I 16 W/m² 16,0 °C 19,1 °C 1,6 km/h (1 Bft)
02.07.2019 21:03 19,1 °C 83 % 1015,3 hPa 0,0 mm 0,3 km/h (0 Bft) O-NO 65 ° 0 min 0,000 mm 0,0 UV-I 12 W/m² 16,1 °C 19,1 °C 1,6 km/h (1 Bft)
02.07.2019 21:04 18,9 °C 83 % 1015,3 hPa 0,0 mm 0,0 km/h (0 Bft) O-NO 65 ° 0 min 0,000 mm 0,0 UV-I 11 W/m² 15,9 °C 18,9 °C 0,0 km/h (0 Bft)
02.07.2019 21:05 18,9 °C 83 % 1015,3 hPa 0,0 mm 0,0 km/h (0 Bft) O-NO 65 ° 0 min 0,000 mm 0,0 UV-I 9 W/m² 15,9 °C 18,9 °C 0,0 km/h (0 Bft)
02.07.2019 21:06 18,9 °C 83 % 1015,3 hPa 0,0 mm 0,0 km/h (0 Bft) O-NO 65 ° 0 min 0,000 mm 0,0 UV-I 7 W/m² 15,9 °C 18,9 °C 0,0 km/h (0 Bft)
02.07.2019 21:07 18,9 °C 83 % 1015,3 hPa 0,0 mm 0,3 km/h (0 Bft) O-NO 65 ° 0 min 0,000 mm 0,0 UV-I 7 W/m² 15,9 °C 18,9 °C 1,6 km/h (1 Bft)
02.07.2019 21:08 18,8 °C 82 % 1015,3 hPa 0,0 mm 0,7 km/h (0 Bft) O-NO 65 ° 0 min 0,000 mm 0,0 UV-I 7 W/m² 15,7 °C 18,8 °C 3,2 km/h (1 Bft)
02.07.2019 21:09 18,8 °C 83 % 1015,4 hPa 0,0 mm 0,6 km/h (0 Bft) O-NO 65 ° 0 min 0,000 mm 0,0 UV-I 5 W/m² 15,8 °C 18,8 °C 3,2 km/h (1 Bft)
02.07.2019 21:10 18,8 °C 84 % 1015,3 hPa 0,0 mm 0,9 km/h (0 Bft) O-NO 65 ° 0 min 0,000 mm 0,0 UV-I 5 W/m² 16,0 °C 18,8 °C 1,6 km/h (1 Bft)
02.07.2019 21:11 18,7 °C 84 % 1015,4 hPa 0,0 mm 0,3 km/h (0 Bft) O-NO 65 ° 0 min 0,000 mm 0,0 UV-I 5 W/m² 15,9 °C 18,7 °C 1,6 km/h (1 Bft)
02.07.2019 21:12 18,6 °C 84 % 1015,4 hPa 0,0 mm 1,9 km/h (1 Bft) O-NO 65 ° 0 min 0,000 mm 0,0 UV-I 5 W/m² 15,8 °C 18,6 °C 3,2 km/h (1 Bft)
02.07.2019 21:13 18,6 °C 84 % 1015,3 hPa 0,0 mm 2,5 km/h (1 Bft) O-NO 65 ° 0 min 0,000 mm 0,0 UV-I 0 W/m² 15,8 °C 18,6 °C 4,8 km/h (1 Bft)
02.07.2019 21:14 18,6 °C 84 % 1015,4 hPa 0,0 mm 2,7 km/h (1 Bft) O-NO 65 ° 0 min 0,000 mm 0,0 UV-I 0 W/m² 15,8 °C 18,6 °C 3,2 km/h (1 Bft)
02.07.2019 21:15 18,5 °C 84 % 1015,4 hPa 0,0 mm 2,4 km/h (1 Bft) O-NO 65 ° 0 min 0,000 mm 0,0 UV-I 0 W/m² 15,7 °C 18,5 °C 3,2 km/h (1 Bft)
02.07.2019 21:16 18,4 °C 84 % 1015,4 hPa 0,0 mm 2,2 km/h (1 Bft) O-NO 65 ° 0 min 0,000 mm 0,0 UV-I 0 W/m² 15,6 °C 18,4 °C 3,2 km/h (1 Bft)
02.07.2019 21:17 18,4 °C 84 % 1015,4 hPa 0,0 mm 0,1 km/h (0 Bft) O-NO 65 ° 0 min 0,000 mm 0,0 UV-I 0 W/m² 15,6 °C 18,4 °C 1,6 km/h (1 Bft)
02.07.2019 21:18 18,3 °C 84 % 1015,4 hPa 0,0 mm 0,0 km/h (0 Bft) O-NO 65 ° 0 min 0,000 mm 0,0 UV-I 0 W/m² 15,5 °C 18,3 °C 0,0 km/h (0 Bft)
02.07.2019 21:19 18,3 °C 85 % 1015,4 hPa 0,0 mm 0,0 km/h (0 Bft) O-NO 65 ° 0 min 0,000 mm 0,0 UV-I 0 W/m² 15,7 °C 18,3 °C 0,0 km/h (0 Bft)
02.07.2019 21:20 18,3 °C 85 % 1015,5 hPa 0,0 mm 0,0 km/h (0 Bft) O-NO 65 ° 0 min 0,000 mm 0,0 UV-I 0 W/m² 15,7 °C 18,3 °C 0,0 km/h (0 Bft)
02.07.2019 21:21 18,3 °C 86 % 1015,5 hPa 0,0 mm 0,0 km/h (0 Bft) O-NO 65 ° 0 min 0,000 mm 0,0 UV-I 0 W/m² 15,9 °C 18,3 °C 0,0 km/h (0 Bft)
02.07.2019 21:22 18,2 °C 86 % 1015,5 hPa 0,0 mm 0,0 km/h (0 Bft) O-NO 65 ° 0 min 0,000 mm 0,0 UV-I 0 W/m² 15,8 °C 18,2 °C 0,0 km/h (0 Bft)
02.07.2019 21:23 18,2 °C 86 % 1015,5 hPa 0,0 mm 0,0 km/h (0 Bft) O-NO 65 ° 0 min 0,000 mm 0,0 UV-I 0 W/m² 15,8 °C 18,2 °C 0,0 km/h (0 Bft)
02.07.2019 21:24 18,2 °C 87 % 1015,5 hPa 0,0 mm 0,0 km/h (0 Bft) O-NO 65 ° 0 min 0,000 mm 0,0 UV-I 0 W/m² 16,0 °C 18,2 °C 0,0 km/h (0 Bft)
02.07.2019 21:25 18,1 °C 87 % 1015,5 hPa 0,0 mm 0,0 km/h (0 Bft) O-NO 65 ° 0 min 0,000 mm 0,0 UV-I 0 W/m² 15,9 °C 18,1 °C 0,0 km/h (0 Bft)
02.07.2019 21:26 18,1 °C 87 % 1015,6 hPa 0,0 mm 0,0 km/h (0 Bft) O-NO 65 ° 0 min 0,000 mm 0,0 UV-I 0 W/m² 15,9 °C 18,1 °C 0,0 km/h (0 Bft)
02.07.2019 21:27 18,1 °C 87 % 1015,5 hPa 0,0 mm 0,0 km/h (0 Bft) O-NO 65 ° 0 min 0,000 mm 0,0 UV-I 0 W/m² 15,9 °C 18,1 °C 0,0 km/h (0 Bft)
02.07.2019 21:28 18,2 °C 88 % 1015,5 hPa 0,0 mm 0,0 km/h (0 Bft) O-NO 65 ° 0 min 0,000 mm 0,0 UV-I 0 W/m² 16,2 °C 18,2 °C 0,0 km/h (0 Bft)
02.07.2019 21:29 18,2 °C 88 % 1015,5 hPa 0,0 mm 0,0 km/h (0 Bft) O-NO 65 ° 0 min 0,000 mm 0,0 UV-I 0 W/m² 16,2 °C 18,2 °C 0,0 km/h (0 Bft)
02.07.2019 21:30 18,2 °C 88 % 1015,5 hPa 0,0 mm 0,0 km/h (0 Bft) O-NO 65 ° 0 min 0,000 mm 0,0 UV-I 0 W/m² 16,2 °C 18,2 °C 0,0 km/h (0 Bft)
02.07.2019 21:31 18,2 °C 88 % 1015,6 hPa 0,0 mm 0,0 km/h (0 Bft) O-NO 65 ° 0 min 0,000 mm 0,0 UV-I 0 W/m² 16,2 °C 18,2 °C 0,0 km/h (0 Bft)
02.07.2019 21:32 18,2 °C 88 % 1015,5 hPa 0,0 mm 0,0 km/h (0 Bft) O-NO 65 ° 0 min 0,000 mm 0,0 UV-I 0 W/m² 16,2 °C 18,2 °C 0,0 km/h (0 Bft)
02.07.2019 21:33 18,2 °C 88 % 1015,5 hPa 0,0 mm 0,0 km/h (0 Bft) O-NO 65 ° 0 min 0,000 mm 0,0 UV-I 0 W/m² 16,2 °C 18,2 °C 0,0 km/h (0 Bft)
02.07.2019 21:34 18,2 °C 87 % 1015,5 hPa 0,0 mm 0,0 km/h (0 Bft) O-NO 65 ° 0 min 0,000 mm 0,0 UV-I 0 W/m² 16,0 °C 18,2 °C 0,0 km/h (0 Bft)
02.07.2019 21:35 18,2 °C 88 % 1015,6 hPa 0,0 mm 0,0 km/h (0 Bft) O-NO 65 ° 0 min 0,000 mm 0,0 UV-I 0 W/m² 16,2 °C 18,2 °C 0,0 km/h (0 Bft)
02.07.2019 21:36 18,2 °C 88 % 1015,6 hPa 0,0 mm 0,0 km/h (0 Bft) O-NO 65 ° 0 min 0,000 mm 0,0 UV-I 0 W/m² 16,2 °C 18,2 °C 0,0 km/h (0 Bft)
02.07.2019 21:37 18,2 °C 88 % 1015,6 hPa 0,0 mm 0,0 km/h (0 Bft) O-NO 65 ° 0 min 0,000 mm 0,0 UV-I 0 W/m² 16,2 °C 18,2 °C 0,0 km/h (0 Bft)
02.07.2019 21:38 18,2 °C 87 % 1015,6 hPa 0,0 mm 0,0 km/h (0 Bft) O-NO 65 ° 0 min 0,000 mm 0,0 UV-I 0 W/m² 16,0 °C 18,2 °C 0,0 km/h (0 Bft)
02.07.2019 21:39 18,2 °C 88 % 1015,6 hPa 0,0 mm 0,0 km/h (0 Bft) O-NO 65 ° 0 min 0,000 mm 0,0 UV-I 0 W/m² 16,2 °C 18,2 °C 0,0 km/h (0 Bft)
02.07.2019 21:40 18,2 °C 88 % 1015,6 hPa 0,0 mm 0,0 km/h (0 Bft) O-NO 65 ° 0 min 0,000 mm 0,0 UV-I 0 W/m² 16,2 °C 18,2 °C 0,0 km/h (0 Bft)
02.07.2019 21:41 18,2 °C 88 % 1015,6 hPa 0,0 mm 0,0 km/h (0 Bft) O-NO 65 ° 0 min 0,000 mm 0,0 UV-I 0 W/m² 16,2 °C 18,2 °C 0,0 km/h (0 Bft)
02.07.2019 21:42 18,2 °C 88 % 1015,6 hPa 0,0 mm 0,0 km/h (0 Bft) O-NO 65 ° 0 min 0,000 mm 0,0 UV-I 0 W/m² 16,2 °C 18,2 °C 0,0 km/h (0 Bft)
02.07.2019 21:43 18,2 °C 87 % 1015,6 hPa 0,0 mm 0,0 km/h (0 Bft) O-NO 65 ° 0 min 0,000 mm 0,0 UV-I 0 W/m² 16,0 °C 18,2 °C 0,0 km/h (0 Bft)
02.07.2019 21:44 18,2 °C 88 % 1015,6 hPa 0,0 mm 0,0 km/h (0 Bft) O-NO 65 ° 0 min 0,000 mm 0,0 UV-I 0 W/m² 16,2 °C 18,2 °C 0,0 km/h (0 Bft)
02.07.2019 21:45 18,1 °C 88 % 1015,6 hPa 0,0 mm 0,0 km/h (0 Bft) O-NO 65 ° 0 min 0,000 mm 0,0 UV-I 0 W/m² 16,1 °C 18,1 °C 0,0 km/h (0 Bft)
02.07.2019 21:46 18,1 °C 88 % 1015,6 hPa 0,0 mm 0,0 km/h (0 Bft) O-NO 65 ° 0 min 0,000 mm 0,0 UV-I 0 W/m² 16,1 °C 18,1 °C 0,0 km/h (0 Bft)
02.07.2019 21:47 18,1 °C 88 % 1015,6 hPa 0,0 mm 0,0 km/h (0 Bft) O-NO 65 ° 0 min 0,000 mm 0,0 UV-I 0 W/m² 16,1 °C 18,1 °C 0,0 km/h (0 Bft)
02.07.2019 21:48 18,1 °C 88 % 1015,7 hPa 0,0 mm 0,0 km/h (0 Bft) O-NO 65 ° 0 min 0,000 mm 0,0 UV-I 0 W/m² 16,1 °C 18,1 °C 0,0 km/h (0 Bft)
02.07.2019 21:49 18,1 °C 89 % 1015,7 hPa 0,0 mm 0,0 km/h (0 Bft) O-NO 65 ° 0 min 0,000 mm 0,0 UV-I 0 W/m² 16,3 °C 18,1 °C 0,0 km/h (0 Bft)
02.07.2019 21:50 18,1 °C 89 % 1015,7 hPa 0,0 mm 0,0 km/h (0 Bft) O-NO 65 ° 0 min 0,000 mm 0,0 UV-I 0 W/m² 16,3 °C 18,1 °C 0,0 km/h (0 Bft)
02.07.2019 21:51 18,0 °C 89 % 1015,7 hPa 0,0 mm 0,0 km/h (0 Bft) O-NO 65 ° 0 min 0,000 mm 0,0 UV-I 0 W/m² 16,2 °C 18,0 °C 0,0 km/h (0 Bft)
02.07.2019 21:52 18,0 °C 89 % 1015,7 hPa 0,0 mm 0,0 km/h (0 Bft) O-NO 65 ° 0 min 0,000 mm 0,0 UV-I 0 W/m² 16,2 °C 18,0 °C 0,0 km/h (0 Bft)
02.07.2019 21:53 18,0 °C 89 % 1015,7 hPa 0,0 mm 0,0 km/h (0 Bft) O-NO 65 ° 0 min 0,000 mm 0,0 UV-I 0 W/m² 16,2 °C 18,0 °C 0,0 km/h (0 Bft)
02.07.2019 21:54 18,0 °C 89 % 1015,7 hPa 0,0 mm 0,0 km/h (0 Bft) O-NO 65 ° 0 min 0,000 mm 0,0 UV-I 0 W/m² 16,2 °C 18,0 °C 0,0 km/h (0 Bft)
02.07.2019 21:55 18,0 °C 89 % 1015,7 hPa 0,0 mm 0,0 km/h (0 Bft) O-NO 65 ° 0 min 0,000 mm 0,0 UV-I 0 W/m² 16,2 °C 18,0 °C 0,0 km/h (0 Bft)
02.07.2019 21:56 18,0 °C 88 % 1015,8 hPa 0,0 mm 0,0 km/h (0 Bft) O-NO 65 ° 0 min 0,000 mm 0,0 UV-I 0 W/m² 16,0 °C 18,0 °C 0,0 km/h (0 Bft)
02.07.2019 21:57 17,9 °C 88 % 1015,7 hPa 0,0 mm 0,0 km/h (0 Bft) O-NO 65 ° 0 min 0,000 mm 0,0 UV-I 0 W/m² 15,9 °C 17,9 °C 0,0 km/h (0 Bft)
02.07.2019 21:58 18,0 °C 88 % 1015,7 hPa 0,0 mm 0,0 km/h (0 Bft) O-NO 65 ° 0 min 0,000 mm 0,0 UV-I 0 W/m² 16,0 °C 18,0 °C 0,0 km/h (0 Bft)
02.07.2019 21:59 18,1 °C 87 % 1015,8 hPa 0,0 mm 0,0 km/h (0 Bft) O-NO 65 ° 0 min 0,000 mm 0,0 UV-I 0 W/m² 15,9 °C 18,1 °C 0,0 km/h (0 Bft)
02.07.2019 22:00 18,1 °C 87 % 1015,7 hPa 0,0 mm 0,0 km/h (0 Bft) O-NO 65 ° 0 min 0,000 mm 0,0 UV-I 0 W/m² 15,9 °C 18,1 °C 0,0 km/h (0 Bft)
02.07.2019 22:01 18,1 °C 88 % 1015,8 hPa 0,0 mm 0,0 km/h (0 Bft) O-NO 65 ° 0 min 0,000 mm 0,0 UV-I 0 W/m² 16,1 °C 18,1 °C 0,0 km/h (0 Bft)
02.07.2019 22:02 18,2 °C 88 % 1015,8 hPa 0,0 mm 0,0 km/h (0 Bft) O-NO 65 ° 0 min 0,000 mm 0,0 UV-I 0 W/m² 16,2 °C 18,2 °C 0,0 km/h (0 Bft)
02.07.2019 22:03 18,2 °C 88 % 1015,8 hPa 0,0 mm 0,0 km/h (0 Bft) O-NO 65 ° 0 min 0,000 mm 0,0 UV-I 0 W/m² 16,2 °C 18,2 °C 0,0 km/h (0 Bft)
02.07.2019 22:04 18,2 °C 88 % 1015,8 hPa 0,0 mm 0,0 km/h (0 Bft) O-NO 65 ° 0 min 0,000 mm 0,0 UV-I 0 W/m² 16,2 °C 18,2 °C 0,0 km/h (0 Bft)
02.07.2019 22:05 18,2 °C 88 % 1015,8 hPa 0,0 mm 0,0 km/h (0 Bft) O-NO 65 ° 0 min 0,000 mm 0,0 UV-I 0 W/m² 16,2 °C 18,2 °C 0,0 km/h (0 Bft)
02.07.2019 22:06 18,2 °C 88 % 1015,8 hPa 0,0 mm 0,0 km/h (0 Bft) O-NO 65 ° 0 min 0,000 mm 0,0 UV-I 0 W/m² 16,2 °C 18,2 °C 0,0 km/h (0 Bft)
02.07.2019 22:07 18,2 °C 88 % 1015,8 hPa 0,0 mm 0,0 km/h (0 Bft) O-NO 65 ° 0 min 0,000 mm 0,0 UV-I 0 W/m² 16,2 °C 18,2 °C 0,0 km/h (0 Bft)
02.07.2019 22:08 18,1 °C 88 % 1015,8 hPa 0,0 mm 0,0 km/h (0 Bft) O-NO 65 ° 0 min 0,000 mm 0,0 UV-I 0 W/m² 16,1 °C 18,1 °C 0,0 km/h (0 Bft)
02.07.2019 22:09 18,1 °C 88 % 1015,8 hPa 0,0 mm 0,0 km/h (0 Bft) O-NO 65 ° 0 min 0,000 mm 0,0 UV-I 0 W/m² 16,1 °C 18,1 °C 0,0 km/h (0 Bft)
02.07.2019 22:10 18,1 °C 88 % 1015,8 hPa 0,0 mm 0,0 km/h (0 Bft) O-NO 65 ° 0 min 0,000 mm 0,0 UV-I 0 W/m² 16,1 °C 18,1 °C 0,0 km/h (0 Bft)
02.07.2019 22:11 18,0 °C 88 % 1015,8 hPa 0,0 mm 0,0 km/h (0 Bft) O-NO 65 ° 0 min 0,000 mm 0,0 UV-I 0 W/m² 16,0 °C 18,0 °C 0,0 km/h (0 Bft)
02.07.2019 22:12 17,9 °C 88 % 1015,8 hPa 0,0 mm 0,0 km/h (0 Bft) O-NO 65 ° 0 min 0,000 mm 0,0 UV-I 0 W/m² 15,9 °C 17,9 °C 0,0 km/h (0 Bft)
02.07.2019 22:13 17,9 °C 88 % 1015,8 hPa 0,0 mm 0,0 km/h (0 Bft) O-NO 65 ° 0 min 0,000 mm 0,0 UV-I 0 W/m² 15,9 °C 17,9 °C 0,0 km/h (0 Bft)
02.07.2019 22:14 17,9 °C 88 % 1015,8 hPa 0,0 mm 0,0 km/h (0 Bft) O-NO 65 ° 0 min 0,000 mm 0,0 UV-I 0 W/m² 15,9 °C 17,9 °C 0,0 km/h (0 Bft)
02.07.2019 22:15 17,9 °C 88 % 1015,8 hPa 0,0 mm 0,0 km/h (0 Bft) O-NO 65 ° 0 min 0,000 mm 0,0 UV-I 0 W/m² 15,9 °C 17,9 °C 0,0 km/h (0 Bft)
02.07.2019 22:16 17,9 °C 88 % 1015,8 hPa 0,0 mm 0,0 km/h (0 Bft) O-NO 65 ° 0 min 0,000 mm 0,0 UV-I 0 W/m² 15,9 °C 17,9 °C 0,0 km/h (0 Bft)
02.07.2019 22:17 17,9 °C 88 % 1015,8 hPa 0,0 mm 0,0 km/h (0 Bft) O-NO 65 ° 0 min 0,000 mm 0,0 UV-I 0 W/m² 15,9 °C 17,9 °C 0,0 km/h (0 Bft)
02.07.2019 22:18 17,8 °C 88 % 1015,8 hPa 0,0 mm 0,0 km/h (0 Bft) O-NO 65 ° 0 min 0,000 mm 0,0 UV-I 0 W/m² 15,8 °C 17,8 °C 0,0 km/h (0 Bft)
02.07.2019 22:19 17,8 °C 88 % 1015,9 hPa 0,0 mm 0,0 km/h (0 Bft) O-NO 65 ° 0 min 0,000 mm 0,0 UV-I 0 W/m² 15,8 °C 17,8 °C 0,0 km/h (0 Bft)
02.07.2019 22:20 17,8 °C 88 % 1015,9 hPa 0,0 mm 0,0 km/h (0 Bft) O-NO 65 ° 0 min 0,000 mm 0,0 UV-I 0 W/m² 15,8 °C 17,8 °C 0,0 km/h (0 Bft)
02.07.2019 22:21 17,8 °C 89 % 1015,9 hPa 0,0 mm 0,0 km/h (0 Bft) O-NO 65 ° 0 min 0,000 mm 0,0 UV-I 0 W/m² 16,0 °C 17,8 °C 0,0 km/h (0 Bft)
02.07.2019 22:22 17,8 °C 89 % 1015,9 hPa 0,0 mm 0,0 km/h (0 Bft) O-NO 65 ° 0 min 0,000 mm 0,0 UV-I 0 W/m² 16,0 °C 17,8 °C 0,0 km/h (0 Bft)
02.07.2019 22:23 17,8 °C 89 % 1015,9 hPa 0,0 mm 0,0 km/h (0 Bft) O-NO 65 ° 0 min 0,000 mm 0,0 UV-I 0 W/m² 16,0 °C 17,8 °C 0,0 km/h (0 Bft)
02.07.2019 22:24 17,7 °C 89 % 1015,9 hPa 0,0 mm 0,0 km/h (0 Bft) O-NO 65 ° 0 min 0,000 mm 0,0 UV-I 0 W/m² 15,9 °C 17,7 °C 0,0 km/h (0 Bft)
02.07.2019 22:25 17,7 °C 89 % 1016,0 hPa 0,0 mm 0,0 km/h (0 Bft) O-NO 65 ° 0 min 0,000 mm 0,0 UV-I 0 W/m² 15,9 °C 17,7 °C 0,0 km/h (0 Bft)
02.07.2019 22:26 17,7 °C 89 % 1015,9 hPa 0,0 mm 0,0 km/h (0 Bft) O-NO 65 ° 0 min 0,000 mm 0,0 UV-I 0 W/m² 15,9 °C 17,7 °C 0,0 km/h (0 Bft)
02.07.2019 22:27 17,7 °C 89 % 1016,0 hPa 0,0 mm 0,0 km/h (0 Bft) O-NO 65 ° 0 min 0,000 mm 0,0 UV-I 0 W/m² 15,9 °C 17,7 °C 0,0 km/h (0 Bft)
02.07.2019 22:28 17,7 °C 89 % 1015,9 hPa 0,0 mm 0,0 km/h (0 Bft) O-NO 65 ° 0 min 0,000 mm 0,0 UV-I 0 W/m² 15,9 °C 17,7 °C 0,0 km/h (0 Bft)
02.07.2019 22:29 17,7 °C 89 % 1015,9 hPa 0,0 mm 0,0 km/h (0 Bft) O-NO 65 ° 0 min 0,000 mm 0,0 UV-I 0 W/m² 15,9 °C 17,7 °C 0,0 km/h (0 Bft)
02.07.2019 22:30 17,6 °C 89 % 1016,0 hPa 0,0 mm 0,0 km/h (0 Bft) O-NO 65 ° 0 min 0,000 mm 0,0 UV-I 0 W/m² 15,8 °C 17,6 °C 0,0 km/h (0 Bft)
02.07.2019 22:31 17,7 °C 90 % 1015,9 hPa 0,0 mm 0,0 km/h (0 Bft) O-NO 65 ° 0 min 0,000 mm 0,0 UV-I 0 W/m² 16,0 °C 17,7 °C 0,0 km/h (0 Bft)
02.07.2019 22:32 17,6 °C 89 % 1016,0 hPa 0,0 mm 0,0 km/h (0 Bft) O-NO 65 ° 0 min 0,000 mm 0,0 UV-I 0 W/m² 15,8 °C 17,6 °C 0,0 km/h (0 Bft)
02.07.2019 22:33 17,7 °C 90 % 1016,0 hPa 0,0 mm 0,0 km/h (0 Bft) O-NO 65 ° 0 min 0,000 mm 0,0 UV-I 0 W/m² 16,0 °C 17,7 °C 0,0 km/h (0 Bft)
02.07.2019 22:34 17,7 °C 90 % 1016,0 hPa 0,0 mm 0,0 km/h (0 Bft) O-NO 65 ° 0 min 0,000 mm 0,0 UV-I 0 W/m² 16,0 °C 17,7 °C 0,0 km/h (0 Bft)
02.07.2019 22:35 17,7 °C 90 % 1016,0 hPa 0,0 mm 0,0 km/h (0 Bft) O-NO 65 ° 0 min 0,000 mm 0,0 UV-I 0 W/m² 16,0 °C 17,7 °C 0,0 km/h (0 Bft)
02.07.2019 22:36 17,7 °C 90 % 1016,1 hPa 0,0 mm 0,0 km/h (0 Bft) O-NO 65 ° 0 min 0,000 mm 0,0 UV-I 0 W/m² 16,0 °C 17,7 °C 0,0 km/h (0 Bft)
02.07.2019 22:37 17,7 °C 90 % 1016,1 hPa 0,0 mm 0,0 km/h (0 Bft) O-NO 65 ° 0 min 0,000 mm 0,0 UV-I 0 W/m² 16,0 °C 17,7 °C 0,0 km/h (0 Bft)
02.07.2019 22:38 17,7 °C 90 % 1016,1 hPa 0,0 mm 0,0 km/h (0 Bft) O-NO 65 ° 0 min 0,000 mm 0,0 UV-I 0 W/m² 16,0 °C 17,7 °C 0,0 km/h (0 Bft)
02.07.2019 22:39 17,7 °C 90 % 1016,1 hPa 0,0 mm 0,0 km/h (0 Bft) O-NO 65 ° 0 min 0,000 mm 0,0 UV-I 0 W/m² 16,0 °C 17,7 °C 0,0 km/h (0 Bft)
02.07.2019 22:40 17,7 °C 90 % 1016,1 hPa 0,0 mm 0,0 km/h (0 Bft) O-NO 65 ° 0 min 0,000 mm 0,0 UV-I 0 W/m² 16,0 °C 17,7 °C 0,0 km/h (0 Bft)
02.07.2019 22:41 17,7 °C 89 % 1016,1 hPa 0,0 mm 0,0 km/h (0 Bft) O-NO 65 ° 0 min 0,000 mm 0,0 UV-I 0 W/m² 15,9 °C 17,7 °C 0,0 km/h (0 Bft)
02.07.2019 22:42 17,7 °C 89 % 1016,1 hPa 0,0 mm 0,0 km/h (0 Bft) O-NO 65 ° 0 min 0,000 mm 0,0 UV-I 0 W/m² 15,9 °C 17,7 °C 0,0 km/h (0 Bft)
02.07.2019 22:43 17,7 °C 89 % 1016,1 hPa 0,0 mm 0,0 km/h (0 Bft) O-NO 65 ° 0 min 0,000 mm 0,0 UV-I 0 W/m² 15,9 °C 17,7 °C 0,0 km/h (0 Bft)
02.07.2019 22:44 17,6 °C 90 % 1016,1 hPa 0,0 mm 0,0 km/h (0 Bft) O-NO 65 ° 0 min 0,000 mm 0,0 UV-I 0 W/m² 15,9 °C 17,6 °C 0,0 km/h (0 Bft)
02.07.2019 22:45 17,7 °C 90 % 1016,1 hPa 0,0 mm 0,0 km/h (0 Bft) O-NO 65 ° 0 min 0,000 mm 0,0 UV-I 0 W/m² 16,0 °C 17,7 °C 0,0 km/h (0 Bft)
02.07.2019 22:46 17,6 °C 90 % 1016,1 hPa 0,0 mm 0,0 km/h (0 Bft) O-NO 65 ° 0 min 0,000 mm 0,0 UV-I 0 W/m² 15,9 °C 17,6 °C 0,0 km/h (0 Bft)
02.07.2019 22:47 17,6 °C 90 % 1016,1 hPa 0,0 mm 0,0 km/h (0 Bft) O-NO 65 ° 0 min 0,000 mm 0,0 UV-I 0 W/m² 15,9 °C 17,6 °C 0,0 km/h (0 Bft)
02.07.2019 22:48 17,6 °C 90 % 1016,1 hPa 0,0 mm 0,0 km/h (0 Bft) O-NO 65 ° 0 min 0,000 mm 0,0 UV-I 0 W/m² 15,9 °C 17,6 °C 0,0 km/h (0 Bft)
02.07.2019 22:49 17,6 °C 90 % 1016,1 hPa 0,0 mm 0,0 km/h (0 Bft) O-NO 65 ° 0 min 0,000 mm 0,0 UV-I 0 W/m² 15,9 °C 17,6 °C 0,0 km/h (0 Bft)
02.07.2019 22:50 17,6 °C 90 % 1016,1 hPa 0,0 mm 0,0 km/h (0 Bft) O-NO 65 ° 0 min 0,000 mm 0,0 UV-I 0 W/m² 15,9 °C 17,6 °C 0,0 km/h (0 Bft)
02.07.2019 22:51 17,5 °C 90 % 1016,1 hPa 0,0 mm 0,0 km/h (0 Bft) O-NO 65 ° 0 min 0,000 mm 0,0 UV-I 0 W/m² 15,8 °C 17,5 °C 0,0 km/h (0 Bft)
02.07.2019 22:52 17,5 °C 90 % 1016,1 hPa 0,0 mm 0,0 km/h (0 Bft) O-NO 65 ° 0 min 0,000 mm 0,0 UV-I 0 W/m² 15,8 °C 17,5 °C 0,0 km/h (0 Bft)
02.07.2019 22:53 17,6 °C 90 % 1016,1 hPa 0,0 mm 0,0 km/h (0 Bft) O-NO 65 ° 0 min 0,000 mm 0,0 UV-I 0 W/m² 15,9 °C 17,6 °C 0,0 km/h (0 Bft)
02.07.2019 22:54 17,6 °C 90 % 1016,1 hPa 0,0 mm 0,0 km/h (0 Bft) O-NO 65 ° 0 min 0,000 mm 0,0 UV-I 0 W/m² 15,9 °C 17,6 °C 0,0 km/h (0 Bft)
02.07.2019 22:55 17,6 °C 90 % 1016,2 hPa 0,0 mm 0,0 km/h (0 Bft) O-NO 65 ° 0 min 0,000 mm 0,0 UV-I 0 W/m² 15,9 °C 17,6 °C 0,0 km/h (0 Bft)
02.07.2019 22:56 17,6 °C 90 % 1016,1 hPa 0,0 mm 0,2 km/h (0 Bft) S-SO 155 ° 0 min 0,000 mm 0,0 UV-I 0 W/m² 15,9 °C 17,6 °C 3,2 km/h (1 Bft)
02.07.2019 22:57 17,7 °C 90 % 1016,1 hPa 0,0 mm 3,5 km/h (1 Bft) S-SO 155 ° 0 min 0,000 mm 0,0 UV-I 0 W/m² 16,0 °C 17,7 °C 4,8 km/h (1 Bft)
02.07.2019 22:58 17,7 °C 90 % 1016,2 hPa 0,0 mm 1,9 km/h (1 Bft) S-SO 155 ° 0 min 0,000 mm 0,0 UV-I 0 W/m² 16,0 °C 17,7 °C 3,2 km/h (1 Bft)
02.07.2019 22:59 17,7 °C 90 % 1016,2 hPa 0,0 mm 1,7 km/h (1 Bft) S-SO 155 ° 0 min 0,000 mm 0,0 UV-I 0 W/m² 16,0 °C 17,7 °C 3,2 km/h (1 Bft)
02.07.2019 23:00 17,7 °C 90 % 1016,2 hPa 0,0 mm 0,0 km/h (0 Bft) S-SO 155 ° 0 min 0,000 mm 0,0 UV-I 0 W/m² 16,0 °C 17,7 °C 0,0 km/h (0 Bft)
02.07.2019 23:01 17,7 °C 90 % 1016,2 hPa 0,0 mm 0,0 km/h (0 Bft) S-SO 155 ° 0 min 0,000 mm 0,0 UV-I 0 W/m² 16,0 °C 17,7 °C 0,0 km/h (0 Bft)
02.07.2019 23:02 17,6 °C 90 % 1016,1 hPa 0,0 mm 0,0 km/h (0 Bft) S-SO 155 ° 0 min 0,000 mm 0,0 UV-I 0 W/m² 15,9 °C 17,6 °C 0,0 km/h (0 Bft)
02.07.2019 23:03 17,6 °C 90 % 1016,1 hPa 0,0 mm 0,0 km/h (0 Bft) S-SO 155 ° 0 min 0,000 mm 0,0 UV-I 0 W/m² 15,9 °C 17,6 °C 0,0 km/h (0 Bft)
02.07.2019 23:04 17,6 °C 90 % 1016,1 hPa 0,0 mm 0,0 km/h (0 Bft) S-SO 155 ° 0 min 0,000 mm 0,0 UV-I 0 W/m² 15,9 °C 17,6 °C 0,0 km/h (0 Bft)
02.07.2019 23:05 17,6 °C 90 % 1016,1 hPa 0,0 mm 0,0 km/h (0 Bft) S-SO 155 ° 0 min 0,000 mm 0,0 UV-I 0 W/m² 15,9 °C 17,6 °C 0,0 km/h (0 Bft)
02.07.2019 23:06 17,6 °C 90 % 1016,1 hPa 0,0 mm 0,0 km/h (0 Bft) S-SO 155 ° 0 min 0,000 mm 0,0 UV-I 0 W/m² 15,9 °C 17,6 °C 0,0 km/h (0 Bft)
02.07.2019 23:07 17,6 °C 90 % 1016,0 hPa 0,0 mm 0,0 km/h (0 Bft) S-SO 155 ° 0 min 0,000 mm 0,0 UV-I 0 W/m² 15,9 °C 17,6 °C 0,0 km/h (0 Bft)
02.07.2019 23:08 17,5 °C 90 % 1016,1 hPa 0,0 mm 0,0 km/h (0 Bft) S-SO 155 ° 0 min 0,000 mm 0,0 UV-I 0 W/m² 15,8 °C 17,5 °C 0,0 km/h (0 Bft)
02.07.2019 23:09 17,4 °C 90 % 1016,0 hPa 0,0 mm 0,0 km/h (0 Bft) S-SO 155 ° 0 min 0,000 mm 0,0 UV-I 0 W/m² 15,7 °C 17,4 °C 0,0 km/h (0 Bft)
02.07.2019 23:10 17,4 °C 90 % 1016,0 hPa 0,0 mm 0,0 km/h (0 Bft) S-SO 155 ° 0 min 0,000 mm 0,0 UV-I 0 W/m² 15,7 °C 17,4 °C 0,0 km/h (0 Bft)
02.07.2019 23:11 17,4 °C 90 % 1016,0 hPa 0,0 mm 0,0 km/h (0 Bft) S-SO 155 ° 0 min 0,000 mm 0,0 UV-I 0 W/m² 15,7 °C 17,4 °C 0,0 km/h (0 Bft)
02.07.2019 23:12 17,4 °C 90 % 1016,0 hPa 0,0 mm 0,0 km/h (0 Bft) S-SO 155 ° 0 min 0,000 mm 0,0 UV-I 0 W/m² 15,7 °C 17,4 °C 0,0 km/h (0 Bft)
02.07.2019 23:13 17,3 °C 90 % 1016,0 hPa 0,0 mm 0,0 km/h (0 Bft) S-SO 155 ° 0 min 0,000 mm 0,0 UV-I 0 W/m² 15,6 °C 17,3 °C 0,0 km/h (0 Bft)
02.07.2019 23:14 17,4 °C 90 % 1016,0 hPa 0,0 mm 0,0 km/h (0 Bft) S-SO 155 ° 0 min 0,000 mm 0,0 UV-I 0 W/m² 15,7 °C 17,4 °C 0,0 km/h (0 Bft)
02.07.2019 23:15 17,4 °C 90 % 1016,0 hPa 0,0 mm 0,0 km/h (0 Bft) S-SO 155 ° 0 min 0,000 mm 0,0 UV-I 0 W/m² 15,7 °C 17,4 °C 0,0 km/h (0 Bft)
02.07.2019 23:16 17,4 °C 90 % 1016,0 hPa 0,0 mm 0,0 km/h (0 Bft) S-SO 155 ° 0 min 0,000 mm 0,0 UV-I 0 W/m² 15,7 °C 17,4 °C 0,0 km/h (0 Bft)
02.07.2019 23:17 17,4 °C 90 % 1016,0 hPa 0,0 mm 0,0 km/h (0 Bft) S-SO 155 ° 0 min 0,000 mm 0,0 UV-I 0 W/m² 15,7 °C 17,4 °C 0,0 km/h (0 Bft)
02.07.2019 23:18 17,4 °C 90 % 1016,0 hPa 0,0 mm 0,0 km/h (0 Bft) S-SO 155 ° 0 min 0,000 mm 0,0 UV-I 0 W/m² 15,7 °C 17,4 °C 0,0 km/h (0 Bft)
02.07.2019 23:19 17,4 °C 90 % 1016,1 hPa 0,0 mm 0,0 km/h (0 Bft) S-SO 155 ° 0 min 0,000 mm 0,0 UV-I 0 W/m² 15,7 °C 17,4 °C 0,0 km/h (0 Bft)
02.07.2019 23:20 17,3 °C 90 % 1016,1 hPa 0,0 mm 0,1 km/h (0 Bft) S-SO 155 ° 0 min 0,000 mm 0,0 UV-I 0 W/m² 15,6 °C 17,3 °C 1,6 km/h (1 Bft)
02.07.2019 23:21 17,3 °C 90 % 1016,1 hPa 0,0 mm 0,0 km/h (0 Bft) S-SO 155 ° 0 min 0,000 mm 0,0 UV-I 0 W/m² 15,6 °C 17,3 °C 0,0 km/h (0 Bft)
02.07.2019 23:22 17,3 °C 90 % 1016,1 hPa 0,0 mm 0,5 km/h (0 Bft) S-SO 155 ° 0 min 0,000 mm 0,0 UV-I 0 W/m² 15,6 °C 17,3 °C 1,6 km/h (1 Bft)
02.07.2019 23:23 17,3 °C 90 % 1016,2 hPa 0,0 mm 0,0 km/h (0 Bft) S-SO 155 ° 0 min 0,000 mm 0,0 UV-I 0 W/m² 15,6 °C 17,3 °C 0,0 km/h (0 Bft)
02.07.2019 23:24 17,3 °C 90 % 1016,2 hPa 0,0 mm 0,0 km/h (0 Bft) S-SO 155 ° 0 min 0,000 mm 0,0 UV-I 0 W/m² 15,6 °C 17,3 °C 0,0 km/h (0 Bft)
02.07.2019 23:25 17,3 °C 90 % 1016,2 hPa 0,0 mm 0,0 km/h (0 Bft) S-SO 155 ° 0 min 0,000 mm 0,0 UV-I 0 W/m² 15,6 °C 17,3 °C 0,0 km/h (0 Bft)
02.07.2019 23:26 17,3 °C 90 % 1016,3 hPa 0,0 mm 0,0 km/h (0 Bft) S-SO 155 ° 0 min 0,000 mm 0,0 UV-I 0 W/m² 15,6 °C 17,3 °C 0,0 km/h (0 Bft)
02.07.2019 23:27 17,3 °C 90 % 1016,2 hPa 0,0 mm 0,0 km/h (0 Bft) S-SO 155 ° 0 min 0,000 mm 0,0 UV-I 0 W/m² 15,6 °C 17,3 °C 0,0 km/h (0 Bft)
02.07.2019 23:28 17,3 °C 90 % 1016,3 hPa 0,0 mm 0,0 km/h (0 Bft) S-SO 155 ° 0 min 0,000 mm 0,0 UV-I 0 W/m² 15,6 °C 17,3 °C 0,0 km/h (0 Bft)
02.07.2019 23:29 17,3 °C 90 % 1016,3 hPa 0,0 mm 0,0 km/h (0 Bft) S-SO 155 ° 0 min 0,000 mm 0,0 UV-I 0 W/m² 15,6 °C 17,3 °C 0,0 km/h (0 Bft)
02.07.2019 23:30 17,3 °C 89 % 1016,3 hPa 0,0 mm 0,0 km/h (0 Bft) S-SO 155 ° 0 min 0,000 mm 0,0 UV-I 0 W/m² 15,5 °C 17,3 °C 0,0 km/h (0 Bft)
02.07.2019 23:31 17,3 °C 89 % 1016,2 hPa 0,0 mm 0,0 km/h (0 Bft) S-SO 155 ° 0 min 0,000 mm 0,0 UV-I 0 W/m² 15,5 °C 17,3 °C 0,0 km/h (0 Bft)
02.07.2019 23:32 17,3 °C 89 % 1016,2 hPa 0,0 mm 0,4 km/h (0 Bft) S-SO 155 ° 0 min 0,000 mm 0,0 UV-I 0 W/m² 15,5 °C 17,3 °C 1,6 km/h (1 Bft)
02.07.2019 23:33 17,3 °C 89 % 1016,2 hPa 0,0 mm 0,0 km/h (0 Bft) S-SO 155 ° 0 min 0,000 mm 0,0 UV-I 0 W/m² 15,5 °C 17,3 °C 0,0 km/h (0 Bft)
02.07.2019 23:34 17,4 °C 89 % 1016,3 hPa 0,0 mm 0,0 km/h (0 Bft) S-SO 155 ° 0 min 0,000 mm 0,0 UV-I 0 W/m² 15,6 °C 17,4 °C 0,0 km/h (0 Bft)
02.07.2019 23:35 17,4 °C 89 % 1016,3 hPa 0,0 mm 0,0 km/h (0 Bft) S-SO 155 ° 0 min 0,000 mm 0,0 UV-I 0 W/m² 15,6 °C 17,4 °C 0,0 km/h (0 Bft)
02.07.2019 23:36 17,4 °C 89 % 1016,3 hPa 0,0 mm 0,0 km/h (0 Bft) S-SO 155 ° 0 min 0,000 mm 0,0 UV-I 0 W/m² 15,6 °C 17,4 °C 0,0 km/h (0 Bft)
02.07.2019 23:37 17,4 °C 88 % 1016,3 hPa 0,0 mm 0,0 km/h (0 Bft) S-SO 155 ° 0 min 0,000 mm 0,0 UV-I 0 W/m² 15,4 °C 17,4 °C 0,0 km/h (0 Bft)
02.07.2019 23:38 17,4 °C 89 % 1016,3 hPa 0,0 mm 0,0 km/h (0 Bft) S-SO 155 ° 0 min 0,000 mm 0,0 UV-I 0 W/m² 15,6 °C 17,4 °C 0,0 km/h (0 Bft)
02.07.2019 23:39 17,4 °C 88 % 1016,3 hPa 0,0 mm 0,0 km/h (0 Bft) S-SO 155 ° 0 min 0,000 mm 0,0 UV-I 0 W/m² 15,4 °C 17,4 °C 0,0 km/h (0 Bft)
02.07.2019 23:40 17,3 °C 88 % 1016,3 hPa 0,0 mm 0,0 km/h (0 Bft) S-SO 155 ° 0 min 0,000 mm 0,0 UV-I 0 W/m² 15,3 °C 17,3 °C 0,0 km/h (0 Bft)
02.07.2019 23:41 17,3 °C 89 % 1016,3 hPa 0,0 mm 0,0 km/h (0 Bft) S-SO 155 ° 0 min 0,000 mm 0,0 UV-I 0 W/m² 15,5 °C 17,3 °C 0,0 km/h (0 Bft)
02.07.2019 23:42 17,2 °C 89 % 1016,3 hPa 0,0 mm 0,0 km/h (0 Bft) S-SO 155 ° 0 min 0,000 mm 0,0 UV-I 0 W/m² 15,4 °C 17,2 °C 0,0 km/h (0 Bft)
02.07.2019 23:43 17,2 °C 89 % 1016,3 hPa 0,0 mm 0,0 km/h (0 Bft) S-SO 155 ° 0 min 0,000 mm 0,0 UV-I 0 W/m² 15,4 °C 17,2 °C 0,0 km/h (0 Bft)
02.07.2019 23:44 17,1 °C 89 % 1016,3 hPa 0,0 mm 0,0 km/h (0 Bft) S-SO 155 ° 0 min 0,000 mm 0,0 UV-I 0 W/m² 15,3 °C 17,1 °C 0,0 km/h (0 Bft)
02.07.2019 23:45 17,1 °C 89 % 1016,3 hPa 0,0 mm 0,0 km/h (0 Bft) S-SO 155 ° 0 min 0,000 mm 0,0 UV-I 0 W/m² 15,3 °C 17,1 °C 0,0 km/h (0 Bft)
02.07.2019 23:46 17,0 °C 89 % 1016,2 hPa 0,0 mm 0,0 km/h (0 Bft) S-SO 155 ° 0 min 0,000 mm 0,0 UV-I 0 W/m² 15,2 °C 17,0 °C 0,0 km/h (0 Bft)
02.07.2019 23:47 17,0 °C 89 % 1016,2 hPa 0,0 mm 0,1 km/h (0 Bft) S-SO 155 ° 0 min 0,000 mm 0,0 UV-I 0 W/m² 15,2 °C 17,0 °C 1,6 km/h (1 Bft)
02.07.2019 23:48 17,0 °C 89 % 1016,2 hPa 0,0 mm 0,0 km/h (0 Bft) S-SO 155 ° 0 min 0,000 mm 0,0 UV-I 0 W/m² 15,2 °C 17,0 °C 0,0 km/h (0 Bft)
02.07.2019 23:49 17,0 °C 89 % 1016,3 hPa 0,0 mm 0,0 km/h (0 Bft) S-SO 155 ° 0 min 0,000 mm 0,0 UV-I 0 W/m² 15,2 °C 17,0 °C 0,0 km/h (0 Bft)
02.07.2019 23:50 17,0 °C 89 % 1016,3 hPa 0,0 mm 0,0 km/h (0 Bft) S-SO 155 ° 0 min 0,000 mm 0,0 UV-I 0 W/m² 15,2 °C 17,0 °C 0,0 km/h (0 Bft)
02.07.2019 23:51 16,9 °C 89 % 1016,3 hPa 0,0 mm 0,0 km/h (0 Bft) S-SO 155 ° 0 min 0,000 mm 0,0 UV-I 0 W/m² 15,1 °C 16,9 °C 0,0 km/h (0 Bft)
02.07.2019 23:52 16,9 °C 89 % 1016,3 hPa 0,0 mm 0,0 km/h (0 Bft) S-SO 155 ° 0 min 0,000 mm 0,0 UV-I 0 W/m² 15,1 °C 16,9 °C 0,0 km/h (0 Bft)
02.07.2019 23:53 16,8 °C 89 % 1016,3 hPa 0,0 mm 0,0 km/h (0 Bft) S-SO 155 ° 0 min 0,000 mm 0,0 UV-I 0 W/m² 15,0 °C 16,8 °C 0,0 km/h (0 Bft)
02.07.2019 23:54 16,8 °C 89 % 1016,3 hPa 0,0 mm 0,0 km/h (0 Bft) S-SO 155 ° 0 min 0,000 mm 0,0 UV-I 0 W/m² 15,0 °C 16,8 °C 0,0 km/h (0 Bft)
02.07.2019 23:55 16,9 °C 89 % 1016,3 hPa 0,0 mm 0,0 km/h (0 Bft) S-SO 155 ° 0 min 0,000 mm 0,0 UV-I 0 W/m² 15,1 °C 16,9 °C 0,0 km/h (0 Bft)
02.07.2019 23:56 16,9 °C 89 % 1016,4 hPa 0,0 mm 0,0 km/h (0 Bft) S-SO 155 ° 0 min 0,000 mm 0,0 UV-I 0 W/m² 15,1 °C 16,9 °C 0,0 km/h (0 Bft)
02.07.2019 23:57 16,9 °C 90 % 1016,3 hPa 0,0 mm 0,0 km/h (0 Bft) S-SO 155 ° 0 min 0,000 mm 0,0 UV-I 0 W/m² 15,2 °C 16,9 °C 0,0 km/h (0 Bft)
02.07.2019 23:58 17,0 °C 90 % 1016,4 hPa 0,0 mm 0,0 km/h (0 Bft) S-SO 155 ° 0 min 0,000 mm 0,0 UV-I 0 W/m² 15,3 °C 17,0 °C 0,0 km/h (0 Bft)
02.07.2019 23:59 17,0 °C 89 % 1016,3 hPa 0,0 mm 0,0 km/h (0 Bft) S-SO 155 ° 0 min 0,000 mm 0,0 UV-I 0 W/m² 15,2 °C 17,0 °C 0,0 km/h (0 Bft)
_ Min-Zeit 06:02 19:04 00:50 - 23:59 - - - - - - 05:15 06:02 23:59
Minimum _ 14,7 °C 71 % 1013,7 hPa - 0,0 km/h (0 Bft) - - - - - - 13,5 °C 14,7 °C 0,0 km/h (0 Bft)
_ Max-Zeit 12:23 07:46 13:00 09:50 05:03 - - 13:40 12:01 12:21 12:21 12:21 12:24 03:45
Maximum _ 22,3 °C 95 % 1016,8 hPa 0,2 mm 12,2 km/h
W-SW (2 Bft)
- - 1 min 0,330 mm 8,2 UV-I 1143 W/m² 19,3 °C 22,2 °C 19,3 km/h
W (3 Bft)
Durchschnitt _ 18,4 °C 85 % 1015,8 hPa #5,8 mm 1,7 km/h (1 Bft) NO - #48 min. #2,286 mm 2,4 UV-I 147 W/m² 15,7 °C 18,4 °C 3,3 km/h (1 Bft)